[[{"header":{"parameterUnit":"m.s-1","parameterCategory":1,"la1":30.6,"la2":29.2853,"lo1":-89.7004,"lo2":-87.6739,"dy":0.0162,"dx":0.0183,"nx":112,"ny":82,"refTime":"2023-09-02T12:00:00:Z","depth":0,"parameterNumber":2,"parameterNumberName":"U-component_of_WINDS"},"data":[0.0,0.0,0.0,0.0,0.0,0.0,0.0,0.0,0.0,0.0,0.0,0.0,0.0,0.0,0.0,0.0,0.0,0.0,0.0,0.0,0.0,0.0,0.0,0.0,0.0,0.0,0.0,0.0,0.0,0.0,0.0,0.0,0.0,0.0,0.0,0.0,0.0,0.0,0.0,0.0,0.0,0.0,0.0,0.0,0.0,0.0,0.0,0.0,0.0,0.0,0.0,0.0,0.0,0.0,0.0,0.0,0.0,0.0,0.0,0.0,0.0,0.0,0.0,0.0,0.0,0.0,0.0,0.0,0.0,0.0,0.0,0.0,0.0,0.0,0.0,0.0,0.0,0.0,0.0,0.0,0.0,0.0,0.0,0.0,0.0,0.0,0.0,0.0,0.0,0.0,-2.1371,-2.1433,-2.1676,-2.1825,-2.1796,-2.1825,-2.1706,-2.1402,0.0,0.0,0.0,0.0,0.0,0.0,0.0,0.0,0.0,0.0,0.0,0.0,0.0,0.0,0.0,0.0,0.0,0.0,0.0,0.0,0.0,0.0,0.0,0.0,0.0,0.0,0.0,0.0,0.0,0.0,0.0,0.0,0.0,0.0,0.0,0.0,0.0,0.0,0.0,0.0,0.0,0.0,0.0,0.0,0.0,0.0,0.0,0.0,0.0,0.0,0.0,0.0,0.0,0.0,0.0,0.0,0.0,0.0,0.0,0.0,0.0,0.0,0.0,0.0,0.0,0.0,0.0,0.0,0.0,0.0,0.0,0.0,0.0,0.0,0.0,0.0,0.0,0.0,0.0,0.0,0.0,0.0,0.0,0.0,0.0,0.0,0.0,0.0,0.0,0.0,0.0,0.0,0.0,0.0,0.0,0.0,0.0,0.0,0.0,0.0,0.0,0.0,0.0,0.0,-2.1658,-2.1953,-2.2025,-2.1984,-2.1811,-2.1955,-2.1969,-2.1736,0.0,0.0,0.0,0.0,0.0,0.0,0.0,0.0,0.0,0.0,0.0,0.0,0.0,0.0,0.0,0.0,0.0,0.0,0.0,0.0,0.0,0.0,0.0,0.0,0.0,0.0,0.0,0.0,0.0,0.0,0.0,0.0,0.0,0.0,0.0,0.0,0.0,0.0,0.0,0.0,0.0,0.0,0.0,0.0,0.0,0.0,0.0,0.0,0.0,0.0,0.0,0.0,0.0,0.0,0.0,0.0,0.0,0.0,0.0,0.0,0.0,0.0,0.0,0.0,0.0,0.0,0.0,0.0,0.0,0.0,0.0,0.0,0.0,0.0,0.0,0.0,0.0,0.0,0.0,0.0,0.0,0.0,0.0,0.0,0.0,0.0,0.0,0.0,0.0,0.0,0.0,0.0,0.0,0.0,0.0,0.0,0.0,0.0,0.0,0.0,0.0,0.0,0.0,-2.2414,-2.2854,-2.2723,-2.2601,-2.2498,-2.2392,-2.2218,-2.201,-2.1811,-2.1913,0.0,0.0,0.0,0.0,0.0,0.0,0.0,0.0,0.0,0.0,0.0,0.0,0.0,0.0,0.0,0.0,0.0,0.0,0.0,0.0,0.0,0.0,0.0,0.0,0.0,0.0,0.0,0.0,0.0,0.0,0.0,0.0,0.0,0.0,0.0,0.0,0.0,0.0,0.0,0.0,0.0,0.0,0.0,0.0,0.0,0.0,0.0,0.0,0.0,0.0,0.0,0.0,0.0,0.0,0.0,0.0,0.0,0.0,0.0,0.0,0.0,0.0,0.0,0.0,0.0,0.0,0.0,0.0,0.0,0.0,0.0,0.0,0.0,0.0,0.0,0.0,0.0,0.0,0.0,0.0,0.0,0.0,0.0,0.0,0.0,0.0,0.0,0.0,0.0,0.0,0.0,0.0,0.0,0.0,0.0,0.0,0.0,0.0,0.0,0.0,0.0,0.0,-2.3521,-2.3915,-2.363,-2.3432,-2.328,-2.3171,-2.2731,-2.2353,-2.2076,-2.2142,0.0,0.0,0.0,0.0,0.0,0.0,0.0,0.0,0.0,0.0,0.0,0.0,0.0,0.0,0.0,0.0,0.0,0.0,0.0,0.0,0.0,0.0,0.0,0.0,0.0,0.0,0.0,0.0,0.0,0.0,0.0,0.0,0.0,0.0,0.0,0.0,0.0,0.0,0.0,0.0,0.0,0.0,0.0,0.0,0.0,0.0,0.0,0.0,0.0,0.0,0.0,0.0,0.0,0.0,0.0,0.0,0.0,0.0,0.0,0.0,0.0,0.0,0.0,0.0,0.0,0.0,0.0,0.0,0.0,0.0,0.0,0.0,0.0,0.0,0.0,0.0,0.0,0.0,0.0,0.0,0.0,0.0,0.0,0.0,0.0,0.0,0.0,0.0,0.0,0.0,0.0,0.0,0.0,0.0,0.0,0.0,0.0,0.0,0.0,0.0,0.0,0.0,-2.4427,-2.4271,-2.4729,-2.4658,-2.4391,-2.3966,-2.3671,-2.3306,-2.2839,-2.2591,0.0,0.0,0.0,0.0,0.0,0.0,0.0,0.0,0.0,0.0,0.0,0.0,0.0,0.0,0.0,0.0,0.0,0.0,0.0,0.0,0.0,0.0,0.0,0.0,0.0,0.0,0.0,0.0,0.0,0.0,0.0,0.0,0.0,0.0,0.0,0.0,0.0,0.0,0.0,0.0,0.0,0.0,0.0,0.0,0.0,0.0,0.0,0.0,0.0,0.0,0.0,0.0,0.0,0.0,0.0,0.0,0.0,0.0,0.0,0.0,0.0,0.0,0.0,0.0,0.0,0.0,0.0,0.0,0.0,0.0,0.0,0.0,0.0,0.0,0.0,0.0,0.0,0.0,0.0,0.0,0.0,0.0,0.0,0.0,0.0,0.0,0.0,0.0,0.0,0.0,0.0,0.0,0.0,0.0,0.0,0.0,0.0,0.0,0.0,0.0,0.0,0.0,-2.5834,-2.6109,-2.5971,-2.5744,-2.5554,-2.5444,-2.4948,-2.4516,-2.423,0.0,0.0,0.0,0.0,0.0,0.0,0.0,0.0,0.0,0.0,0.0,0.0,0.0,0.0,0.0,0.0,0.0,0.0,0.0,0.0,0.0,0.0,0.0,0.0,0.0,0.0,0.0,0.0,0.0,0.0,0.0,0.0,0.0,0.0,0.0,0.0,0.0,0.0,0.0,0.0,0.0,0.0,0.0,0.0,0.0,0.0,0.0,0.0,0.0,0.0,0.0,0.0,0.0,0.0,0.0,0.0,0.0,0.0,0.0,0.0,0.0,0.0,0.0,0.0,0.0,0.0,0.0,0.0,0.0,0.0,0.0,0.0,0.0,0.0,0.0,0.0,0.0,0.0,0.0,0.0,0.0,0.0,0.0,0.0,0.0,0.0,0.0,0.0,0.0,0.0,0.0,0.0,0.0,0.0,0.0,0.0,0.0,0.0,0.0,0.0,0.0,0.0,-2.6216,-2.6915,-2.7264,-2.7063,-2.679,-2.6646,-2.6641,-2.6072,-2.5607,-2.5354,0.0,0.0,0.0,0.0,0.0,0.0,0.0,0.0,0.0,0.0,0.0,0.0,0.0,0.0,0.0,0.0,0.0,0.0,0.0,0.0,0.0,0.0,0.0,0.0,0.0,0.0,0.0,0.0,0.0,0.0,0.0,0.0,0.0,0.0,0.0,0.0,0.0,0.0,0.0,0.0,0.0,0.0,0.0,0.0,0.0,0.0,0.0,0.0,0.0,0.0,0.0,0.0,0.0,0.0,0.0,0.0,0.0,0.0,0.0,0.0,0.0,0.0,0.0,0.0,0.0,0.0,0.0,0.0,0.0,0.0,0.0,0.0,0.0,0.0,0.0,0.0,0.0,0.0,0.0,0.0,0.0,0.0,0.0,0.0,0.0,0.0,0.0,0.0,0.0,0.0,0.0,0.0,0.0,0.0,0.0,0.0,0.0,0.0,0.0,0.0,0.0,0.0,-2.7888,-2.7579,-2.7417,-2.7952,-2.7886,-2.7698,-2.7441,-2.6917,-2.6479,0.0,0.0,0.0,0.0,0.0,0.0,0.0,0.0,0.0,0.0,0.0,0.0,0.0,0.0,0.0,0.0,0.0,0.0,0.0,0.0,0.0,0.0,0.0,0.0,0.0,0.0,0.0,0.0,0.0,0.0,0.0,0.0,0.0,0.0,0.0,0.0,0.0,0.0,0.0,0.0,0.0,0.0,0.0,0.0,0.0,0.0,0.0,0.0,0.0,0.0,0.0,0.0,0.0,0.0,0.0,0.0,0.0,0.0,0.0,0.0,0.0,0.0,0.0,0.0,0.0,0.0,0.0,0.0,0.0,0.0,0.0,0.0,0.0,0.0,0.0,0.0,0.0,0.0,0.0,0.0,0.0,0.0,0.0,0.0,0.0,0.0,0.0,0.0,0.0,0.0,0.0,0.0,0.0,0.0,0.0,0.0,0.0,0.0,0.0,0.0,0.0,0.0,0.0,-2.8296,-2.8294,-2.824,-2.8422,-2.8309,-2.8228,-2.8233,-2.8009,-2.783,-2.7721,0.0,0.0,0.0,0.0,0.0,0.0,0.0,0.0,0.0,0.0,0.0,0.0,0.0,0.0,0.0,0.0,0.0,0.0,0.0,0.0,0.0,0.0,0.0,0.0,0.0,0.0,0.0,0.0,0.0,0.0,0.0,0.0,0.0,0.0,0.0,0.0,0.0,0.0,0.0,0.0,0.0,0.0,0.0,0.0,0.0,0.0,0.0,0.0,0.0,0.0,0.0,0.0,0.0,0.0,0.0,0.0,0.0,0.0,0.0,0.0,0.0,0.0,0.0,0.0,0.0,0.0,0.0,0.0,0.0,0.0,0.0,0.0,0.0,0.0,0.0,0.0,0.0,0.0,0.0,0.0,0.0,0.0,0.0,0.0,0.0,0.0,0.0,0.0,0.0,0.0,0.0,0.0,0.0,0.0,0.0,0.0,0.0,0.0,0.0,0.0,0.0,0.0,-2.852,-2.86,-2.86,-2.86,-2.8523,-2.851,-2.8587,-2.8523,-2.8463,-2.8393,0.0,0.0,0.0,0.0,0.0,0.0,0.0,0.0,0.0,0.0,0.0,0.0,0.0,0.0,0.0,0.0,0.0,0.0,0.0,0.0,0.0,0.0,0.0,0.0,0.0,0.0,0.0,0.0,0.0,0.0,0.0,0.0,0.0,0.0,0.0,0.0,0.0,0.0,0.0,0.0,0.0,0.0,0.0,0.0,0.0,0.0,0.0,0.0,0.0,0.0,0.0,0.0,0.0,0.0,0.0,0.0,0.0,0.0,0.0,0.0,0.0,0.0,0.0,0.0,0.0,0.0,0.0,0.0,0.0,0.0,0.0,0.0,0.0,0.0,0.0,0.0,0.0,0.0,0.0,0.0,0.0,0.0,0.0,0.0,0.0,0.0,0.0,0.0,0.0,0.0,0.0,0.0,0.0,0.0,0.0,0.0,0.0,0.0,0.0,0.0,0.0,0.0,-2.86,-2.8612,-2.8625,-2.86,-2.86,-2.86,-2.86,-2.86,-2.8549,-2.8445,0.0,0.0,0.0,0.0,0.0,0.0,0.0,0.0,0.0,0.0,0.0,0.0,0.0,0.0,0.0,0.0,0.0,0.0,0.0,0.0,0.0,0.0,0.0,0.0,0.0,0.0,0.0,0.0,0.0,0.0,0.0,0.0,0.0,0.0,0.0,0.0,0.0,0.0,0.0,0.0,0.0,0.0,0.0,0.0,0.0,0.0,0.0,0.0,0.0,0.0,0.0,0.0,0.0,0.0,0.0,0.0,0.0,0.0,0.0,0.0,-2.3241,-2.3036,0.0,0.0,0.0,0.0,0.0,0.0,0.0,0.0,0.0,0.0,0.0,0.0,0.0,0.0,0.0,0.0,0.0,0.0,0.0,0.0,0.0,0.0,0.0,0.0,0.0,0.0,0.0,0.0,0.0,0.0,0.0,0.0,0.0,0.0,0.0,0.0,0.0,0.0,0.0,0.0,-2.8612,-2.8749,-2.8785,-2.8612,-2.86,-2.86,-2.86,-2.86,-2.8662,-2.8798,-2.8779,0.0,0.0,0.0,0.0,0.0,0.0,0.0,0.0,0.0,0.0,0.0,0.0,0.0,0.0,0.0,0.0,0.0,0.0,0.0,0.0,0.0,0.0,0.0,0.0,0.0,0.0,0.0,0.0,0.0,0.0,0.0,0.0,0.0,0.0,0.0,0.0,0.0,0.0,0.0,0.0,0.0,0.0,0.0,0.0,0.0,0.0,0.0,0.0,0.0,0.0,0.0,0.0,0.0,0.0,0.0,0.0,0.0,0.0,0.0,-2.4784,-2.4255,0.0,0.0,0.0,0.0,0.0,0.0,0.0,0.0,0.0,0.0,0.0,0.0,0.0,0.0,0.0,0.0,0.0,0.0,0.0,0.0,0.0,0.0,0.0,0.0,0.0,0.0,0.0,0.0,0.0,0.0,0.0,0.0,0.0,0.0,0.0,0.0,0.0,0.0,0.0,0.0,-2.8761,-2.888,-2.8927,-2.8755,-2.8749,-2.8712,-2.86,-2.8687,-2.8798,-2.8893,-2.895,0.0,0.0,0.0,0.0,0.0,0.0,0.0,0.0,0.0,0.0,0.0,0.0,0.0,0.0,0.0,0.0,0.0,0.0,0.0,0.0,0.0,0.0,0.0,0.0,0.0,0.0,0.0,0.0,0.0,0.0,0.0,0.0,0.0,0.0,0.0,0.0,0.0,0.0,0.0,0.0,0.0,0.0,0.0,0.0,0.0,0.0,0.0,0.0,0.0,0.0,0.0,0.0,0.0,-2.8332,-2.841,-2.8492,-2.8492,-2.8513,-2.8481,-2.6832,-2.6021,-2.5867,-2.5878,0.0,0.0,0.0,0.0,0.0,0.0,0.0,0.0,0.0,0.0,0.0,0.0,0.0,0.0,0.0,0.0,0.0,0.0,0.0,0.0,0.0,0.0,-2.763,-2.7519,-2.7653,-2.7778,-2.766,0.0,0.0,0.0,0.0,0.0,0.0,0.0,0.0,0.0,0.0,0.0,-2.8968,-2.9079,-2.9101,-2.8938,-2.8934,-2.8875,-2.8706,-2.8839,-2.8945,-2.898,-2.909,-2.9148,0.0,0.0,0.0,0.0,0.0,0.0,0.0,0.0,0.0,0.0,0.0,0.0,0.0,0.0,0.0,0.0,0.0,0.0,0.0,0.0,0.0,0.0,0.0,0.0,0.0,0.0,0.0,0.0,0.0,0.0,0.0,0.0,-2.7784,-2.7855,0.0,0.0,0.0,0.0,0.0,0.0,0.0,0.0,0.0,0.0,0.0,0.0,0.0,-2.8144,-2.8191,-2.8243,-2.8622,-2.9304,-2.9362,-2.9758,-3.0438,-3.0438,-3.044,-3.0383,-2.9388,0.0,-2.7746,-2.7743,0.0,0.0,0.0,0.0,0.0,0.0,0.0,0.0,0.0,0.0,0.0,0.0,0.0,0.0,0.0,0.0,0.0,0.0,0.0,0.0,0.0,0.0,-2.8692,-2.8679,-2.9265,-2.9806,-2.9792,-2.8868,-2.8026,-2.7989,-2.8632,-2.916,0.0,0.0,0.0,0.0,0.0,0.0,-2.9251,-2.9312,-2.9291,-2.9093,-2.9071,-2.9071,-2.9038,-2.906,-2.9155,-2.9312,-2.9343,-2.9353,-2.9353,-2.9332,0.0,0.0,0.0,0.0,0.0,0.0,0.0,0.0,0.0,0.0,0.0,0.0,0.0,0.0,0.0,0.0,0.0,0.0,0.0,0.0,0.0,0.0,0.0,0.0,0.0,0.0,0.0,0.0,0.0,-2.7848,-2.8167,-2.8208,-2.8191,-2.8191,0.0,0.0,0.0,0.0,0.0,0.0,0.0,0.0,0.0,-2.964,-2.9695,-3.0153,-3.1113,-3.1151,-3.1342,-3.169,-3.1722,-3.1914,-3.2264,-3.2264,-3.2264,-3.2245,-3.1868,-3.1468,-3.0925,-2.895,-2.8423,-2.8835,0.0,0.0,0.0,0.0,-2.9569,-2.9572,-2.9571,-2.9579,-2.9574,-2.953,0.0,0.0,0.0,0.0,0.0,0.0,0.0,-2.9312,-2.9261,-2.9492,-2.9746,-2.9746,-3.0034,-3.0303,-3.0303,-2.9823,-2.9327,-2.9141,-2.937,-2.957,-2.9378,-2.9367,0.0,0.0,0.0,-2.957,-2.9532,-2.958,-2.9551,-2.9348,-2.9285,-2.923,-2.9115,-2.9191,-2.9312,-2.9402,-2.9511,-2.956,-2.956,-2.9453,-2.9341,0.0,0.0,0.0,0.0,0.0,0.0,0.0,0.0,0.0,0.0,0.0,0.0,0.0,0.0,0.0,0.0,0.0,0.0,0.0,0.0,0.0,0.0,0.0,0.0,0.0,0.0,0.0,0.0,-2.8685,-2.8873,-2.8873,-2.8873,-2.8873,0.0,0.0,0.0,0.0,0.0,0.0,-2.9518,-2.9538,-3.0117,-3.1427,-3.1464,-3.2096,-3.3386,-3.3397,-3.3516,-3.373,-3.3727,-3.3857,-3.4068,-3.4068,-3.4065,-3.404,-3.3826,-3.3728,-3.3512,-3.0682,-2.9909,-3.0494,-3.0494,-3.0882,-3.1462,-3.1462,-3.1462,-3.1467,-3.1462,-3.1313,-3.1115,-3.1073,-3.0903,-3.0714,-3.0617,0.0,0.0,0.0,0.0,-3.0515,-3.0467,-3.0423,-3.0402,-3.0402,-3.0402,-3.0402,-3.0402,-3.0356,-3.0228,-2.9985,-2.9907,-2.9826,-2.9616,-2.9579,0.0,-2.9861,-2.9991,-3.0175,-3.04,-3.0466,-3.0411,-3.0255,-3.0188,-2.9995,-2.964,-2.9721,-2.9696,-2.9491,-2.9626,-2.9701,-2.9701,-2.955,-2.9453,-2.9402,0.0,0.0,0.0,0.0,0.0,0.0,0.0,0.0,0.0,0.0,0.0,0.0,0.0,0.0,0.0,0.0,0.0,0.0,0.0,0.0,0.0,0.0,0.0,0.0,0.0,0.0,0.0,0.0,0.0,-3.0665,-3.0665,0.0,0.0,0.0,0.0,-3.1839,-3.1897,-3.2267,-3.3086,-3.3144,-3.3186,-3.3264,-3.3275,-3.3308,-3.3406,-3.3405,-3.3822,-3.4623,-3.4624,-3.5077,-3.5877,-3.5877,-3.5872,-3.5817,-3.4998,-3.4627,-3.4569,-3.3552,-3.3161,-3.32,-3.32,-3.3239,-3.3278,-3.3278,-3.3278,-3.3278,-3.3278,-3.2733,-3.2031,-3.203,-3.1474,-3.0796,-3.0794,-3.0776,0.0,0.0,-3.0639,-3.0587,-3.0585,-3.0501,-3.0402,-3.0402,-3.0402,-3.0402,-3.0402,-3.0356,-3.0304,-3.0273,-3.0227,-3.0169,-3.0087,0.0,-3.0319,-3.1099,-3.1149,-3.1455,-3.2336,-3.2353,-3.2263,-3.2255,-3.2184,-3.1836,-3.1072,-3.0885,-3.049,-2.973,-2.9683,-2.9701,-2.9701,-2.9701,-2.9607,-2.9402,-2.9392,0.0,0.0,0.0,0.0,0.0,0.0,0.0,0.0,0.0,0.0,0.0,0.0,0.0,0.0,0.0,0.0,0.0,0.0,0.0,0.0,0.0,0.0,0.0,0.0,0.0,0.0,0.0,0.0,-3.1619,-3.2129,0.0,-3.2479,-3.2479,-3.2596,-3.291,-3.2949,-3.3066,-3.3378,-3.3397,-3.3631,-3.4157,-3.417,-3.4447,-3.4993,-3.5004,-3.5153,-3.5465,-3.5517,-3.5699,-3.5995,-3.5995,-3.5996,-3.5976,-3.5661,-3.5541,-3.5502,-3.5198,-3.4411,-3.3396,-3.3396,-3.3396,-3.3396,-3.3396,-3.3396,-3.3396,-3.3396,-3.3201,-3.2949,-3.2949,-3.273,-3.2472,-3.2472,-3.2467,-3.2479,-3.2441,-3.2426,-3.2269,-3.1654,-3.1871,-3.212,-3.1564,-3.1866,-3.2277,-3.2277,-3.2184,-3.211,-3.211,-3.1488,-3.1152,-3.1676,-3.1764,-3.1878,-3.2165,-3.2179,-3.2286,-3.2615,-3.257,-3.2528,-3.2528,-3.2424,-3.2257,-3.1954,-3.1881,-3.1522,-3.071,-3.0681,-3.04,-2.9801,-2.9755,-2.9701,-2.9607,-2.9579,-2.9482,0.0,0.0,0.0,0.0,0.0,0.0,0.0,0.0,0.0,0.0,0.0,0.0,0.0,0.0,0.0,0.0,0.0,0.0,0.0,0.0,0.0,0.0,0.0,0.0,0.0,-3.1541,-3.2107,-3.2496,-3.3047,-3.3397,-3.3397,-3.3397,-3.3514,-3.3787,-3.3807,-3.3924,-3.4235,-3.4235,-3.4489,-3.5012,-3.5324,-3.5752,-3.6337,-3.6343,-3.6335,-3.6335,-3.6084,-3.5978,-3.5964,-3.5964,-3.5987,-3.5991,-3.5995,-3.5996,-3.5996,-3.5993,-3.5327,-3.4271,-3.4281,-3.4275,-3.4275,-3.4275,-3.4275,-3.4236,-3.3943,-3.3846,-3.3787,-3.3494,-3.3396,-3.3396,-3.3396,-3.3396,-3.3394,-3.3399,-3.3393,-3.3251,-3.2608,-3.2867,-3.3147,-3.2584,-3.2884,-3.3289,-3.3297,-3.3186,-3.3195,-3.3485,-3.2669,-3.2126,-3.2678,-3.2766,-3.2847,-3.3089,-3.3138,-3.3234,-3.3501,-3.35,-3.3487,-3.3487,-3.3373,-3.3189,-3.2893,-3.2804,-3.2436,-3.1646,-3.1574,-3.1188,-3.0313,-3.024,-3.0215,-3.0133,-3.0114,-2.9869,-2.9402,0.0,0.0,0.0,0.0,0.0,0.0,0.0,0.0,0.0,0.0,0.0,0.0,0.0,0.0,0.0,0.0,0.0,0.0,0.0,0.0,0.0,0.0,0.0,-3.1813,-3.187,-3.235,-3.3309,-3.3453,-3.3473,-3.3514,-3.3514,-3.3846,-3.4664,-3.472,-3.509,-3.5947,-3.5986,-3.5986,-3.5986,-3.6805,-3.7233,-3.7233,-3.7233,-3.7233,-3.7233,-3.6376,-3.5987,-3.5978,-3.5978,-3.6012,-3.6087,-3.6088,-3.6088,-3.6088,-3.6088,-3.6089,-3.6071,-3.6027,-3.5994,-3.5994,-3.5994,-3.5994,-3.5876,-3.5037,-3.4746,-3.4591,-3.3768,-3.3474,-3.3476,-3.3474,-3.3474,-3.3472,-3.3477,-3.3473,-3.347,-3.3371,-3.3366,-3.3378,-3.3342,-3.3352,-3.3382,-3.3382,-3.3288,-3.3432,-3.427,-3.3715,-3.3059,-3.2994,-3.2974,-3.3222,-3.3949,-3.4041,0.0,-3.5103,-3.5218,-3.5218,-3.5209,-3.5153,-3.4767,-3.3919,-3.3677,-3.3242,-3.25,-3.2381,-3.2032,-3.1267,-3.1162,-3.1062,-3.0959,-3.0894,-3.0375,-2.9402,0.0,0.0,0.0,0.0,0.0,0.0,0.0,0.0,0.0,0.0,0.0,0.0,0.0,0.0,0.0,0.0,0.0,0.0,0.0,0.0,0.0,-3.2458,-3.2496,-3.2435,-3.3087,-3.3722,-3.414,-3.4703,-3.5346,-3.6081,-3.6162,-3.6512,-3.737,-3.7428,-3.7525,-3.7779,-3.7798,-3.7798,-3.7798,-3.8013,-3.8149,-3.8149,-3.8149,-3.8149,-3.8149,-3.7896,-3.7784,-3.7795,-3.7795,-3.78,-3.7812,-3.7817,-3.7806,-3.7807,-3.7802,-3.7805,-3.7689,-3.6464,-3.5996,-3.5996,-3.5996,-3.5996,-3.5976,-3.5729,-3.5638,-3.5605,-3.5358,-3.528,-3.5287,-3.5295,-3.529,-3.5288,-3.5285,-3.5284,-3.5145,-3.4486,-3.4753,-3.5037,-3.4386,-3.4728,-3.5187,-3.5194,-3.5157,-3.5193,-3.5385,-3.5212,-3.4986,-3.482,-3.4789,-3.4854,-3.5053,-3.5091,-3.5168,-3.5392,-3.5412,-3.5397,-3.535,-3.5339,-3.5178,-3.4841,-3.4764,-3.4404,-3.3617,-3.3544,-3.3149,-3.2251,-3.1599,-3.089,-3.0147,-3.0121,-2.9861,0.0,0.0,0.0,0.0,0.0,0.0,0.0,0.0,0.0,0.0,0.0,0.0,0.0,0.0,0.0,0.0,0.0,0.0,0.0,0.0,0.0,0.0,-3.3798,-3.4089,-3.4187,-3.4445,-3.4828,-3.5403,-3.6217,-3.6988,-3.7591,-3.7702,-3.7954,-3.8461,-3.85,-3.85,-3.85,-3.85,-3.85,-3.85,-3.885,-3.9045,-3.9045,-3.9045,-3.9045,-3.9045,-3.8675,-3.85,-3.85,-3.85,-3.85,-3.85,-3.8507,-3.8497,-3.8497,-3.8497,-3.8502,-3.8367,0.0,0.0,0.0,0.0,-3.5991,-3.5992,-3.5995,-3.5996,-3.5993,-3.5995,-3.5995,-3.5996,-3.5994,-3.5992,-3.5992,-3.6006,-3.6005,-3.5885,-3.5381,-3.5589,-3.5816,-3.5268,-3.5527,-3.59,-3.5908,-3.5901,-3.5887,-3.5803,-3.5811,0.0,-3.5649,-3.5602,-3.5562,-3.5507,-3.5501,-3.5501,-3.5501,-3.5501,-3.5496,-3.545,-3.5443,-3.5416,-3.5333,-3.5296,0.0,0.0,0.0,-3.4085,-3.3149,-3.2295,0.0,0.0,0.0,-3.0121,-2.957,-2.957,0.0,0.0,-2.8976,-2.8776,0.0,0.0,0.0,0.0,0.0,0.0,0.0,0.0,0.0,0.0,0.0,0.0,0.0,0.0,0.0,0.0,-3.5704,-3.6254,-3.6397,-3.595,-3.594,-3.6832,-3.7672,-3.8278,-3.8436,-3.8571,-3.8669,-3.8792,-3.8792,-3.8792,-3.8792,-3.8792,0.0,0.0,0.0,-3.9941,-3.9941,-3.9941,-3.9941,-3.9941,-3.9162,-3.8792,-3.8792,-3.8792,-3.8792,-3.8792,-3.8792,-3.8792,-3.8792,-3.8792,-3.8733,-3.8564,-3.7689,-3.7351,-3.7255,-3.6437,-3.6144,-3.6124,-3.6029,0.0,0.0,-3.5991,-3.599,-3.5989,-3.5991,-3.5991,-3.5993,-3.5996,-3.5995,-3.5994,-3.6003,-3.5998,-3.5992,-3.5939,-3.5919,-3.5911,-3.5901,-3.5892,-3.5882,-3.5815,-3.5861,-3.5875,-3.5803,-3.5747,-3.5678,-3.5543,-3.5531,-3.5531,-3.5531,-3.5531,-3.5525,-3.5513,-3.5513,0.0,-3.5501,-3.5445,-3.5438,-3.5495,-3.5336,-3.4802,-3.3857,-3.3138,-3.2262,-3.1227,-3.121,-3.0743,-2.9816,-2.9808,-2.9764,-2.9692,-2.9334,-2.909,0.0,0.0,0.0,0.0,0.0,0.0,0.0,0.0,0.0,0.0,0.0,0.0,0.0,0.0,0.0,-3.5817,-3.6093,-3.6434,-3.7088,-3.7659,-3.7955,-3.7793,-3.8021,-3.8509,-3.9357,-3.9459,-3.9772,-4.0542,-4.0604,-4.0604,-4.0604,-4.0604,-4.0604,-4.0604,-4.0757,-4.0854,-4.0854,-4.0854,-4.0854,-4.0854,-4.0679,0.0,-4.0604,-4.0604,-4.0604,-4.0604,-4.0604,-4.0604,-4.0604,-4.0604,-4.0175,-3.9454,-3.8594,-3.8251,-3.8137,-3.7285,-3.6969,-3.6876,-3.6236,-3.5955,-3.5923,-3.5984,-3.5963,-3.5934,-3.5988,-3.5991,0.0,-3.5993,-3.5993,-3.5994,-3.5995,-3.5996,-3.5992,-3.5972,-3.5979,-3.5978,-3.5919,-3.5895,-3.5899,-3.5882,-3.5898,-3.5882,-3.5811,-3.5786,-3.5773,-3.576,-3.5736,-3.5736,-3.5736,-3.5736,-3.5713,-3.5672,-3.5662,-3.5615,-3.5507,-3.5489,-3.5483,-3.5495,-3.5404,-3.4954,-3.4076,-3.3846,-3.2958,-3.1309,-3.129,-3.0823,-2.9891,-2.9842,-2.9799,-2.9773,-2.9645,-2.9472,0.0,0.0,0.0,0.0,0.0,0.0,0.0,0.0,0.0,0.0,0.0,-3.5022,-3.5476,0.0,-3.5817,-3.6661,-3.7173,-3.759,-3.7988,-3.8838,-3.9156,-3.8482,-3.8861,-3.9429,-4.0045,-4.0098,-4.0344,-4.0949,-4.0943,-4.0948,-4.1041,-4.1454,-4.1694,-4.1692,-4.1692,-4.1692,-4.1692,-4.1302,-4.1107,-4.1107,-4.1107,-4.1107,-4.1107,-4.1107,-4.1107,-4.1107,-4.1107,-4.1107,-4.1107,-4.1107,-4.0835,-4.0409,-3.998,-3.9279,-3.8444,-3.8015,-3.7854,-3.7726,-3.6887,-3.6584,-3.6482,-3.6089,-3.5933,-3.5901,-3.5939,-3.5942,-3.5946,-3.5957,-3.596,-3.5962,-3.599,-3.5994,-3.5996,-3.5996,-3.5973,-3.5939,-3.5911,-3.59,-3.5897,-3.5897,-3.5892,-3.5897,-3.5866,-3.5841,-3.5842,-3.5818,-3.5795,-3.5795,-3.5795,-3.5795,-3.5782,-3.5747,-3.5747,-3.5728,-3.5654,-3.5649,-3.5634,-3.561,-3.5577,-3.531,-3.476,-3.4307,-3.362,-3.2672,-3.1833,-3.1138,-3.0595,-3.0157,-2.9918,-2.9849,-2.9782,-2.9626,0.0,0.0,0.0,0.0,0.0,0.0,0.0,0.0,-3.5154,-3.5154,-3.5287,-3.559,-3.6301,-3.6434,-3.6699,-3.7514,-3.8235,-3.8746,-3.8917,-3.9571,-3.9793,-3.9093,-3.9729,-4.029,-4.0462,-4.0468,-4.0649,-4.1022,-4.0967,-4.1031,-4.1378,-4.2081,-4.2473,-4.2467,-4.2471,-4.2498,-4.2539,-4.1866,-4.1558,-4.1594,-4.1594,-4.1594,-4.1594,-4.1594,-4.1594,-4.1594,-4.1594,-4.1497,-4.1322,-4.1322,-4.1244,-4.1107,-4.1107,-4.0234,-3.8987,-3.8811,-3.8753,-3.8636,-3.7759,-3.7448,-3.7331,-3.6629,-3.6415,-3.6376,-3.6201,-3.6142,-3.6111,-3.5945,-3.5894,-3.5919,-3.5979,-3.5986,-3.5987,-3.5987,-3.5957,-3.5912,-3.5912,-3.5923,-3.5924,-3.5906,-3.5912,-3.5914,-3.5907,-3.59,-3.5885,-3.5838,-3.5803,-3.5795,-3.5795,-3.5795,-3.5795,-3.5795,-3.5795,-3.5795,-3.5795,-3.5795,-3.5773,-3.5713,-3.5718,-3.5623,-3.5463,-3.4762,-3.4265,-3.4014,-3.2687,-3.1859,-3.1565,-3.0731,-3.0285,-3.0167,-2.9925,-2.97,-3.4908,-3.4908,-3.4908,-3.4908,-3.4908,-3.4908,0.0,0.0,-3.6055,-3.6055,-3.6623,-3.7154,-3.7249,-3.7268,-3.7552,-3.8405,-3.8633,-3.8955,-3.9673,-3.9865,-3.9884,-3.9797,-4.0082,-4.0315,-4.0392,-4.0408,-4.0735,-4.1554,-4.1605,-4.1945,-4.2732,-4.2989,-4.3103,-4.3109,-4.3109,-4.3197,-4.3369,-4.3151,-4.3136,-4.3328,-4.3328,-4.3328,-4.3328,-4.3328,-4.3328,-4.3328,-4.3328,-4.288,-4.2179,-4.2179,-4.1731,-4.1107,-4.1107,-4.0971,-4.0718,-3.9941,-3.9649,-3.9532,-3.8656,-3.8344,-3.8344,-3.8246,-3.8207,-3.8052,-3.7292,-3.7058,-3.6883,-3.6128,-3.5897,-3.5897,-3.5902,-3.5908,-3.5907,-3.5907,-3.5945,-3.5993,-3.5993,-3.5994,-3.5976,-3.5917,-3.5955,-3.5969,-3.5903,-3.5908,-3.5902,-3.5885,-3.5842,-3.5795,-3.5795,-3.5795,-3.5795,-3.5795,-3.5795,-3.5795,-3.5795,-3.5795,-3.5791,-3.5786,-3.5728,-3.5697,-3.5681,-3.5467,-3.4957,-3.4112,-3.3901,-3.3384,-3.2531,-3.1611,-3.1153,-3.1118,-3.0289,-2.9849,-3.4908,-3.4908,-3.5022,0.0,-3.5647,-3.578,-3.6253,-3.6642,-3.6908,-3.6908,-3.7173,-3.7552,-3.8064,-3.8159,-3.8424,-3.9267,-3.9399,-3.9532,-3.9843,-3.99,-3.99,-3.99,-4.0446,-4.0663,-4.026,-4.0616,-4.1084,-4.1605,-4.1995,-4.2426,-4.292,-4.3482,-4.3805,-4.3849,-4.3849,-4.3884,-4.3957,-4.3408,-4.3208,-4.3364,-4.3364,-4.3423,-4.3543,-4.3543,-4.3543,-4.3547,-4.3533,-4.3331,-4.3004,-4.3045,-4.2861,-4.2491,-4.2003,-4.1809,-4.1692,-4.0854,-4.0565,-4.0429,-3.9552,-3.926,-3.9162,-3.8656,-3.85,-3.8422,-3.8071,-3.7954,-3.7876,-3.7525,-3.7409,-3.7409,-3.7409,-3.7032,-3.6655,-3.6655,-3.629,-3.5938,-3.5938,-3.5966,-3.5992,-3.5955,-3.5975,-3.5996,-3.5956,-3.5927,-3.5908,-3.5894,-3.5875,-3.5857,-3.5857,-3.5811,-3.5795,-3.5795,-3.5795,-3.5795,-3.5795,-3.5795,-3.5795,-3.5795,-3.5769,-3.5732,-3.5707,-3.5657,-3.5402,-3.4918,-3.4456,-3.3981,-3.3518,-3.2654,-3.1953,-3.1413,-3.0928,-3.0454,-3.5192,0.0,0.0,-3.632,-3.6529,-3.668,-3.7268,-3.759,-3.7761,-3.7761,-3.794,-3.8281,-3.8906,-3.902,-3.921,-3.9805,-3.99,-3.99,-3.99,-4.0108,-4.026,-4.026,-4.0999,-4.132,-4.0802,-4.1209,-4.1716,-4.2154,-4.2635,-4.3056,-4.3436,-4.4106,-4.4496,-4.4558,-4.4558,-4.4573,-4.463,-4.3954,-4.3701,-4.3866,-4.3866,-4.3944,-4.4089,-4.4112,-4.4259,-4.4478,-4.4273,-4.4199,-4.416,-4.3985,-4.3763,-4.351,-4.2879,-4.2629,-4.2532,-4.1737,-4.1289,-4.0977,-4.0354,-4.012,-4.0026,-3.9412,-3.9221,-3.9162,-3.8928,-3.887,-3.8811,-3.8578,-3.85,-3.85,-3.85,-3.8032,-3.7564,-3.7564,-3.7079,-3.6551,-3.6319,-3.6297,-3.6251,-3.6017,-3.5963,-3.5966,-3.5966,-3.5957,-3.5934,-3.5934,-3.5907,-3.5894,-3.5901,-3.5861,-3.5834,-3.5834,-3.5803,-3.5795,-3.5795,-3.5795,-3.5795,-3.5795,-3.5795,-3.5773,-3.5723,-3.5737,-3.5664,-3.5556,-3.4977,-3.4621,-3.4481,-3.3634,-3.2889,-3.2204,-3.184,-3.1363,-3.5931,-3.6168,-3.6358,-3.7173,-3.7363,-3.7382,-3.7401,-3.8045,-3.8652,-3.8652,-3.9286,-3.9824,-3.9862,-3.9862,-3.9862,-3.99,-3.99,-3.99,-3.99,-4.062,-4.115,-4.115,-4.187,-4.2356,-4.2337,-4.2356,-4.2716,-4.3561,-4.3656,-4.4016,-4.4806,-4.5057,-4.5175,-4.5175,-4.5175,-4.5263,-4.546,-4.5237,-4.5265,-4.5534,-4.5534,-4.5534,-4.5542,-4.5678,-4.619,-4.6945,-4.6236,-4.5919,-4.5855,-4.5006,-4.421,-4.3505,-4.346,-4.3463,-4.3365,-4.2552,-4.1735,-4.0996,-4.0976,-4.0957,-4.0964,-4.1,-4.101,-4.0854,-4.0019,-3.9766,-3.9571,-3.8733,-3.85,-3.85,-3.85,-3.848,-3.8461,-3.8461,-3.8441,-3.8191,-3.7333,-3.7158,-3.6908,-3.607,-3.5903,-3.5903,-3.5903,-3.5962,-3.5992,-3.5992,-3.5937,-3.5892,-3.5902,-3.5901,-3.5901,-3.5901,-3.5842,-3.5795,-3.5795,-3.5795,-3.5795,-3.5795,-3.5795,-3.5795,-3.5791,-3.5791,-3.576,-3.5707,-3.5664,-3.5588,-3.5456,-3.4526,-3.4049,-3.4004,-3.3077,-3.2634,-3.6072,-3.6585,-3.7211,-3.8045,-3.8254,-3.8405,-3.8944,-3.9286,-3.9513,-3.9513,-3.9286,-3.9267,-3.9805,-3.9456,-3.9286,-3.9805,-3.99,-3.99,-3.99,-4.0639,-4.1188,-4.1188,-4.2431,-4.3265,-4.3265,-4.3265,-4.3379,-4.3682,-4.4194,-4.4611,-4.4895,-4.4955,-4.4991,-4.4991,-4.4991,-4.5019,-4.5102,-4.5026,-4.5105,-4.5332,-4.5419,-4.5464,-4.5464,-4.5518,-4.5689,-4.5995,-4.6467,-4.6344,-4.5828,-4.6244,-4.5919,-4.5103,-4.4516,-4.4292,-4.419,-4.3335,-4.2834,-4.2431,-4.1325,-4.0952,-4.0996,-4.103,-4.1052,-4.1049,-4.0757,-4.0659,-4.0601,-4.0312,-4.0234,-4.0234,-4.0234,-3.9805,-3.9357,-3.9357,-3.8928,-3.8422,-3.8129,-3.8052,-3.7974,-3.7681,-3.7166,-3.6767,-3.6767,-3.6308,-3.596,-3.599,-3.5937,-3.5907,-3.5892,-3.5899,-3.5908,-3.5905,-3.5887,-3.585,-3.5799,-3.5795,-3.5795,-3.5795,-3.5795,-3.5795,-3.5795,-3.5795,-3.5786,-3.576,-3.576,-3.5728,-3.5626,-3.5328,-3.4838,-3.4212,-3.3819,-3.3341,-3.6866,-3.7476,-3.8064,-3.8906,-3.9134,-3.9267,-3.9786,-3.9673,-3.9475,-3.9475,-3.8812,-3.8386,-3.8906,-3.8584,-3.8519,-3.9342,-3.9475,-3.9559,-3.9862,-4.0904,-4.1624,-4.1624,-4.3114,-4.4137,-4.4137,-4.4137,-4.4137,-4.4137,-4.4611,-4.4895,-4.4895,-4.4895,-4.4895,-4.4895,-4.4895,-4.4895,-4.4895,-4.4895,-4.4955,-4.5084,-4.5175,-4.521,-4.521,-4.5291,-4.5494,-4.5791,-4.6547,-4.6731,-4.6527,-4.6892,-4.6751,-4.6248,-4.5382,-4.5082,-4.5032,-4.4172,-4.3864,-4.3676,-4.228,-4.183,-4.18,-4.1527,-4.1467,-4.1477,-4.1169,-4.1078,-4.1107,-4.1107,-4.1107,-4.1107,-4.1107,-4.0679,-4.0253,-4.0253,-3.9844,-3.9337,-3.9026,-3.8967,-3.887,-3.8558,-3.8052,-3.7662,-3.7662,-3.6943,-3.638,-3.6419,-3.6129,-3.5917,-3.5923,-3.5901,-3.5895,-3.59,-3.5908,-3.5889,-3.5845,-3.585,-3.5838,-3.5838,-3.5803,-3.5795,-3.5795,-3.5795,-3.5795,-3.5795,-3.5795,-3.5773,-3.5747,-3.5703,-3.5391,-3.4795,-3.4661,-3.4301,-3.818,-3.8717,-3.8936,-3.9711,-3.99,-3.99,-3.9843,-3.9248,-3.869,-3.8633,-3.7921,-3.7323,0.0,0.0,-3.7608,-3.8471,-3.866,-3.8974,-3.973,-4.1283,-4.2344,0.0,0.0,0.0,0.0,0.0,-4.4895,-4.4895,-4.4895,-4.4895,-4.4895,-4.4895,-4.4895,-4.4895,-4.4895,-4.4895,-4.4895,-4.4895,-4.4895,-4.4895,-4.4895,-4.4895,-4.4907,-4.5103,-4.5611,-4.6347,-4.6565,-4.7086,-4.7767,-4.6981,-4.6743,-4.6801,-4.6005,-4.5761,-4.577,-4.5014,-4.4743,-4.4633,-4.3794,-4.3464,-4.3269,-4.2509,-4.231,-4.2209,-4.1381,-4.1139,-4.1166,-4.1166,-4.1127,-4.1107,-4.1107,-4.1107,-4.1107,-4.1107,-4.1107,-4.0874,-4.0058,-3.9864,-3.963,-3.8792,-3.8597,-3.8558,-3.8519,-3.7818,-3.7272,-3.7272,-3.6523,-3.5975,-3.5996,-3.5933,-3.5902,-3.5896,-3.5892,-3.5894,-3.5892,-3.5905,-3.5905,-3.5905,-3.5846,-3.5818,-3.5818,-3.5795,-3.5795,-3.5795,-3.5795,-3.5795,-3.5795,-3.5747,-3.5713,-3.5693,-3.5568,-3.547,-3.8136,-3.8954,-3.9635,-3.9843,-3.99,-3.973,-3.9134,-3.886,-3.8519,-3.7874,-3.6917,-3.6403,0.0,0.0,0.0,-3.7288,-3.8148,0.0,-3.8993,-4.046,0.0,-4.2325,0.0,-4.4251,-4.4838,-4.4895,-4.4895,-4.4895,-4.4895,-4.4895,-4.4895,-4.4895,-4.4895,-4.4895,-4.4895,-4.4895,-4.4895,-4.4895,-4.4895,-4.4895,-4.4895,-4.4895,-4.4895,-4.4943,-4.5081,-4.5359,-4.6793,-4.7166,-4.6814,-4.7343,-4.7222,-4.6609,-4.5792,-4.5502,-4.5498,-4.5297,-4.5288,-4.533,-4.5117,-4.4316,-4.3379,-4.3164,-4.3144,-4.3156,-4.2925,-4.2455,-4.1984,-4.1997,-4.1555,-4.1107,-4.1107,-4.1107,-4.1107,-4.1107,-4.1107,-4.1029,-4.0815,-4.0776,-4.0698,-4.0487,-3.9902,-3.926,-3.8617,-3.8324,-3.8168,-3.8168,-3.7436,-3.6642,-3.6014,-3.5952,-3.5957,-3.5915,-3.5905,-3.5908,-3.5892,-3.5899,-3.5897,-3.5897,-3.5885,-3.5864,-3.5864,-3.5834,-3.5795,-3.5795,-3.5795,-3.5795,-3.5795,-3.5778,-3.5769,-3.5769,-3.5693,-3.5646,-3.8577,-3.9242,-3.9758,-3.9878,-3.9635,-3.9226,-3.8647,-3.7964,-3.7252,-3.6644,-3.5758,-3.5243,-3.5684,-3.5503,-3.5533,0.0,0.0,0.0,-3.8652,-4.0138,-4.1503,0.0,-4.317,0.0,-4.4819,-4.4895,-4.4895,-4.4895,-4.4895,-4.4895,-4.4895,-4.4895,-4.4895,-4.4895,-4.4895,-4.4895,-4.4895,-4.4895,-4.4895,-4.4895,-4.4895,-4.4895,-4.4895,-4.4895,-4.4895,-4.499,-4.6782,-4.7286,-4.6906,-4.785,-4.7788,-4.7012,-4.6152,-4.5667,-4.54,-4.54,-4.5457,-4.551,-4.551,-4.5012,-4.4323,-4.4015,-4.3974,-4.3954,-4.3578,-4.3156,-4.2829,-4.2836,-4.2221,-4.1583,-4.1583,-4.1326,-4.1068,-4.1068,-4.1078,-4.1107,-4.1107,-4.1107,-4.1107,-4.1107,-4.0718,-4.0214,-3.9727,-3.9318,-3.9065,-3.9065,-3.8324,-3.7456,-3.6582,-3.6162,-3.5948,-3.5936,-3.5937,-3.5934,-3.5944,-3.5926,-3.5906,-3.5907,-3.59,-3.5898,-3.5901,-3.5861,-3.5834,-3.5795,-3.5795,-3.5795,-3.5795,-3.5795,-3.5795,-3.5795,-3.5756,-3.5718,-3.9048,-3.9408,-3.9495,-3.9717,-3.918,-3.8493,-3.8136,-3.6839,-3.5626,-3.5268,-3.4624,-3.4136,-3.4136,-3.4328,-3.472,-3.5424,0.0,-3.7461,-3.8344,-3.984,-4.1204,-4.2268,-4.3076,-4.3891,-4.4819,-4.4895,-4.4895,-4.4895,-4.4895,-4.4895,-4.4895,-4.4895,-4.4895,-4.4895,-4.4895,-4.4895,-4.4895,-4.4895,-4.4895,-4.4895,-4.4895,-4.4895,-4.4895,-4.4895,-4.4895,-4.499,-4.6676,-4.7397,-4.7472,-4.8338,-4.8353,-4.7738,-4.6759,-4.6009,-4.5495,-4.538,-4.5351,-4.5371,-4.5371,-4.5456,-4.5481,-4.4923,-4.4776,-4.4698,-4.3955,-4.3704,-4.3665,-4.365,-4.3034,-4.2374,-4.2374,-4.177,-4.1159,-4.1159,-4.1116,-4.1081,-4.1081,-4.1085,-4.1107,-4.1107,-4.1107,-4.1107,-4.1107,-4.0467,-3.998,-3.998,-3.924,-3.8402,-3.7642,-3.6677,-3.6043,-3.5985,-3.5987,-3.5992,-3.5996,-3.5934,-3.5902,-3.5919,-3.5892,-3.5903,-3.5895,-3.5892,-3.5872,-3.5815,-3.5807,-3.5803,-3.5803,-3.5799,-3.5795,-3.5795,-3.5795,-3.5765,-3.8681,-3.8919,-3.909,-3.9144,-3.8592,-3.7815,-3.6991,-3.6067,0.0,0.0,-3.395,-3.3793,-3.3793,-3.3868,-3.397,-3.4131,-3.5058,-3.6115,-3.7149,-3.818,-3.9701,0.0,-4.2533,-4.3227,-4.4743,-4.4895,0.0,-4.4895,-4.4895,-4.4895,-4.4895,-4.4895,-4.4895,-4.4895,-4.4895,-4.4895,-4.4895,-4.4895,-4.4895,-4.4895,-4.4895,-4.4895,-4.4895,-4.4895,-4.4895,-4.499,-4.6676,-4.7397,-4.7472,-4.8338,-4.8636,-4.8371,-4.6822,-4.6163,-4.596,-4.5238,-4.5095,-4.5227,-4.5227,-4.5311,-4.5428,-4.5434,-4.5522,-4.5602,-4.5505,-4.5013,-4.4482,-4.4485,-4.3894,-4.3267,-4.3267,-4.2636,-4.1981,-4.1981,-4.1496,-4.1023,-4.1023,-4.1068,-4.1107,-4.1107,-4.1107,-4.1107,-4.1107,-4.0971,-4.0874,-4.0874,-4.0136,-3.9513,-3.9376,-3.796,-3.6701,-3.5987,-3.5916,-3.5911,-3.5914,-3.5956,-3.5973,-3.5972,-3.5926,-3.5899,-3.5895,-3.5894,-3.59,-3.5875,-3.5885,-3.5872,-3.5872,-3.5834,-3.5795,-3.5795,-3.5795,-3.5791,-3.8382,-3.8643,-3.8678,-3.8387,-3.7769,-3.6944,-3.5896,0.0,0.0,0.0,-3.3484,-3.3477,-3.3477,-3.3629,0.0,-3.3775,-3.4657,-3.5702,-3.6671,-3.7652,0.0,-4.1247,-4.2028,-4.2893,-4.4156,-4.4649,-4.4895,-4.4895,-4.4895,-4.4895,-4.4895,-4.4895,-4.4895,-4.4895,-4.4895,-4.4895,-4.4895,-4.4895,-4.4895,-4.4895,-4.4895,-4.4895,-4.4895,-4.4895,-4.5141,-4.5634,-4.6866,-4.7662,-4.8149,-4.8983,-4.9078,-4.8623,-4.7808,-4.7207,-4.6771,-4.6354,-4.5999,-4.5722,-4.5722,-4.5532,-4.531,-4.5371,-4.5475,-4.5605,-4.5626,-4.5375,-4.5082,-4.5155,-4.4556,-4.3937,-4.4053,-4.3455,-4.2818,-4.2818,-4.2243,-4.1556,-4.1093,-4.1045,-4.1085,-4.1045,-4.1078,-4.1085,-4.1045,-4.1078,-4.1107,-4.1107,-4.0737,-4.0312,-3.9864,-3.9065,-3.8052,-3.6727,-3.6589,-3.6391,-3.5939,-3.5922,-3.5953,-3.5995,-3.5971,-3.5938,-3.5892,-3.5908,-3.5904,-3.5908,-3.5894,-3.5908,-3.5908,-3.5872,-3.585,-3.585,-3.5826,-3.5795,-3.7594,-3.7854,-3.7752,-3.7327,-3.6653,-3.5874,-3.4954,-3.412,0.0,-3.3132,-3.3152,-3.3232,-3.3232,-3.3419,-3.3601,0.0,-3.4311,-3.5227,-3.6345,-3.7267,-3.854,0.0,-4.1655,0.0,-4.3613,-4.4421,-4.4895,-4.4895,-4.4895,-4.4895,-4.4895,-4.4895,-4.4895,-4.4895,-4.4895,-4.4895,-4.4895,-4.4895,-4.4895,-4.4895,-4.4895,-4.4895,-4.4914,-4.5085,-4.5539,-4.6259,-4.7245,-4.8073,-4.8755,-4.957,-4.9533,-4.8945,-4.8774,-4.8281,-4.7662,-4.7472,-4.6999,-4.643,-4.6259,-4.5858,-4.5384,-4.5194,-4.5258,-4.54,-4.54,-4.54,-4.541,-4.5528,-4.5064,-4.457,-4.4731,-4.416,-4.3511,-4.3376,-4.2925,-4.2343,-4.1676,-4.1432,-4.133,-4.128,-4.1143,-4.1038,-4.0988,-4.1027,-4.1068,-4.1078,-4.1078,-4.0848,-4.0153,-4.0078,-3.9474,-3.7915,-3.7584,-3.713,-3.6241,-3.6171,-3.6126,-3.5986,-3.5995,-3.5976,-3.5914,-3.5917,-3.5916,-3.5919,-3.5907,-3.5899,-3.5899,-3.5908,-3.5892,-3.5892,-3.585,-3.5811,-3.5752,-3.577,-3.5768,-3.571,-3.5115,-3.4472,-3.4303,0.0,-3.3042,-3.2948,-3.2979,-3.3044,-3.3044,-3.3104,-3.3162,-3.3162,-3.3247,-3.3973,-3.5886,-3.6248,-3.7387,-4.0346,0.0,0.0,-4.3583,-4.4421,-4.4895,-4.4895,-4.4895,-4.4895,-4.4895,-4.4895,-4.4895,-4.4895,-4.4895,-4.4895,-4.4895,-4.4895,-4.4895,-4.4895,-4.4895,-4.4895,-4.4933,-4.571,-4.6108,-4.6278,-4.7902,-4.8642,-4.8755,-4.957,-4.9855,-4.9722,-4.9002,-4.8661,-4.849,-4.7681,-4.734,-4.7188,-4.6449,-4.6158,-4.5994,-4.5185,-4.5143,-4.54,-4.54,-4.54,-4.541,-4.54,-4.5371,-4.5294,-4.5323,-4.468,-4.3889,-4.3265,-4.3221,-4.3291,-4.3262,-4.2656,-4.2097,-4.2092,-4.1461,-4.0921,-4.0917,-4.0917,-4.0935,-4.0996,-4.1019,-4.0995,-4.0987,-4.0971,-4.062,-3.9669,-3.885,-3.8032,-3.7141,-3.7074,-3.674,-3.5963,-3.5965,-3.5992,-3.5993,-3.5996,-3.5993,-3.5992,-3.5928,-3.5903,-3.5903,-3.5899,-3.5906,-3.5906,-3.5892,-3.5895,-3.5299,-3.5442,-3.5334,-3.4849,-3.4507,-3.4163,-3.36,0.0,-3.2979,-3.2916,-3.2948,-3.2995,-3.2995,-3.3026,-3.3057,-3.3086,-3.3073,0.0,-3.4829,-3.5621,-3.6677,-3.845,-4.0374,0.0,0.0,0.0,-4.4388,-4.4584,-4.4789,-4.4895,-4.4895,-4.4895,-4.4895,-4.4895,-4.4895,-4.4895,-4.4895,-4.4895,-4.4895,-4.4895,-4.4895,-4.4895,-4.4933,-4.5805,-4.6449,-4.698,-4.8187,-4.8983,-4.9457,-4.9779,-4.9912,-4.9874,-4.9551,-4.9419,-4.9381,-4.904,-4.8604,-4.8149,-4.7826,-4.7049,-4.6146,-4.5805,-4.5421,-4.5098,-4.5098,-4.5098,-4.5121,-4.5248,-4.5279,-4.53,-4.5381,-4.5132,-4.4671,-4.3897,-4.3786,-4.3747,-4.3248,-4.2957,-4.2786,-4.2744,-4.2161,-4.167,-4.1639,-4.1213,-4.0912,-4.0935,-4.0935,-4.0943,-4.098,-4.1003,-4.0901,-4.0551,-3.9773,-3.8928,-3.8052,-3.7988,-3.7608,-3.6731,-3.6703,-3.6483,-3.5956,-3.5972,-3.5996,-3.5995,-3.597,-3.5958,-3.5963,-3.5923,-3.5892,-3.5892,-3.5906,-3.5891,-3.4451,-3.4661,-3.4518,-3.3963,-3.3834,-3.3691,0.0,0.0,-3.277,-3.2721,-3.2753,-3.2836,-3.2948,-3.2963,-3.2979,-3.3024,-3.3011,-3.3263,-3.4148,-3.5178,-3.6175,0.0,0.0,-4.0957,-4.1371,-4.2869,-4.3909,-4.415,-4.4383,-4.4525,-4.457,-4.457,-4.4668,-4.4883,-4.4895,-4.4895,-4.4895,-4.4895,-4.4895,-4.4895,-4.4895,-4.4895,-4.4933,-4.5805,-4.6639,-4.7453,-4.8319,-4.9153,-4.9912,-4.9912,-4.9912,-4.9912,-4.9912,-4.9912,-4.9912,-4.9912,-4.9551,-4.9021,-4.8774,-4.777,-4.6525,-4.6278,-4.5615,-4.4895,-4.4895,-4.4895,-4.4919,-4.5061,-4.5114,-4.5129,-4.5229,-4.5301,-4.5178,-4.4566,-4.4489,-4.439,-4.3766,-4.3546,-4.3446,-4.3405,-4.2851,-4.2292,-4.2047,-4.1542,-4.1103,-4.0898,-4.0864,-4.0869,-4.0907,-4.0935,-4.0975,-4.0975,-4.0485,-3.9812,-3.8964,-3.8889,-3.8519,-3.7642,-3.7571,-3.7195,-3.6317,-3.6325,-3.6223,-3.5975,-3.5996,-3.5994,-3.6001,-3.5953,-3.5924,-3.5935,-3.5914,-3.5897,-3.2821,-3.2936,-3.2918,-3.2918,-3.29,-3.2804,0.0,-3.2301,-3.2301,-3.2301,-3.2301,-3.242,-3.2836,-3.29,-3.29,-3.29,-3.29,-3.32,-3.4083,-3.4908,0.0,0.0,0.0,-4.0038,-4.1095,-4.2659,-4.3601,-4.3617,-4.3617,-4.3666,-4.3802,-4.3818,-4.414,-4.487,-4.4895,-4.4895,-4.4895,-4.4895,-4.4895,-4.4895,-4.4895,-4.4895,-4.4933,-4.5805,-4.6639,-4.7453,-4.8319,-4.9153,-4.9912,-4.9912,-4.9912,-4.9912,-4.9912,-4.9912,-4.9912,-4.9912,-4.9893,-4.9779,-4.8983,-4.8117,-4.7264,-4.6449,-4.5615,-4.4895,-4.4895,-4.4895,-4.4895,-4.4895,-4.4895,-4.4895,-4.4895,-4.5049,-4.5203,-4.5203,-4.5291,-4.5391,-4.5391,-4.4691,-4.4096,-4.4096,-4.3388,-4.2581,-4.1917,-4.1805,-4.1572,-4.0901,-4.0807,-4.0828,-4.0883,-4.0907,-4.0907,-4.0907,-4.0952,-4.0661,-3.986,-3.9786,-3.9415,-3.8539,-3.85,-3.809,-3.7214,-3.7193,-3.678,-3.5923,-3.5964,-3.5995,-3.5995,-3.5995,-3.6009,-3.5992,-3.5935,-3.5895,-3.2127,-3.2283,-3.2488,-3.2488,-3.2283,-3.2127,-3.2266,-3.2091,-3.1895,-3.1895,-3.1895,-3.202,-3.242,-3.2488,-3.2589,-3.2868,-3.29,-3.3005,0.0,0.0,0.0,-3.5881,-3.8362,-4.0366,-4.1252,-4.2503,-4.3265,-4.3265,-4.3468,-4.3617,-4.3668,-4.365,-4.3828,-4.4198,-4.4443,-4.4443,-4.4213,-4.4443,-4.4443,-4.4231,-4.4169,-4.4285,-4.4576,-4.5266,-4.6257,-4.7434,-4.8175,-4.9021,-4.9879,-4.9802,-4.9816,-4.9898,-4.9802,-4.9816,-4.9912,-4.9912,-4.9912,-4.9855,-4.9608,-4.8604,-4.7359,-4.7093,-4.6051,-4.4895,-4.4895,-4.4895,-4.4895,-4.4895,-4.4895,-4.4895,-4.4895,-4.4943,-4.4991,-4.4991,-4.5026,-4.5053,-4.5053,-4.4944,-4.4857,-4.4857,-4.4221,-4.3617,-4.3413,-4.2424,-4.1629,-4.1494,-4.0982,-4.0655,-4.0806,-4.0832,-4.0833,-4.0833,-4.0883,-4.085,-4.0641,-4.0666,-4.0312,-3.9435,-3.9396,-3.9006,-3.8129,-3.8082,-3.7674,-3.6817,-3.6807,-3.6549,-3.5995,-3.5995,-3.5996,-3.5991,-3.5975,-3.5937,0.0,-3.1878,-3.2074,-3.2074,-3.1895,0.0,-3.1823,-3.164,-3.1471,-3.1471,-3.1471,-3.164,-3.2197,-3.2301,-3.242,-3.2818,-3.29,-3.29,0.0,0.0,0.0,-3.6165,0.0,0.0,-4.0785,-4.2042,-4.2789,-4.2789,-4.2978,-4.3141,-4.3176,-4.3176,-4.3265,-4.3404,-4.3909,-4.408,-4.3865,-4.408,-4.4046,-4.3799,-4.3733,-4.3862,-4.4106,-4.4587,-4.5627,-4.7076,-4.7641,-4.857,0.0,-4.9469,-4.9454,-4.9506,-4.9439,-4.9499,-4.9646,-4.9769,-4.9857,-4.9855,-4.9551,-4.8547,-4.734,-4.7036,-4.6013,-4.4895,-4.4895,-4.4895,-4.4895,-4.4895,-4.4895,-4.4895,-4.4895,-4.4895,-4.4895,-4.4895,-4.4895,-4.4895,-4.4895,-4.501,-4.5091,-4.5091,-4.4723,-4.4312,-4.4067,-4.3149,-4.2393,-4.2208,-4.1465,-4.0958,-4.1099,-4.0861,-4.07,-4.07,-4.0787,-4.0874,-4.0921,-4.1019,-4.0838,-4.0292,-4.0283,-3.9902,-3.9026,-3.8987,-3.8589,-3.7715,-3.7698,-3.7441,-3.6939,-3.6944,-3.693,-3.6933,-3.6948,-3.6919,0.0,-3.164,-3.1658,0.0,0.0,0.0,-3.1181,-3.1083,0.0,-3.1064,-3.1064,-3.1281,-3.2074,-3.2197,-3.2352,-3.2753,-3.2852,0.0,0.0,-3.4206,0.0,0.0,-3.8915,-3.9841,-3.9877,-4.1306,-4.2254,-4.2308,-4.2308,-4.2346,-4.2483,-4.2483,-4.2526,-4.2589,-4.3319,-4.3705,-4.3721,-4.3738,-4.3687,-4.3535,-4.3518,-4.3535,-4.3568,-4.3812,-4.4811,-4.64,-4.6753,-4.7815,-4.9224,-4.8963,-4.8863,-4.8863,-4.8863,-4.8982,-4.9198,-4.9506,-4.966,-4.9602,-4.8891,-4.802,-4.713,-4.6361,-4.5558,-4.4895,-4.4895,-4.4895,-4.4895,-4.4895,-4.4895,-4.4895,-4.4895,-4.4895,-4.4895,-4.4895,-4.4895,-4.4895,-4.4895,-4.4895,-4.4895,-4.4895,-4.4895,-4.4697,-4.4089,-4.392,-4.3668,-4.2967,-4.2134,-4.1587,-4.1596,-4.0957,-4.0496,-4.0503,-4.0662,-4.0776,-4.0801,-4.0917,-4.0992,-4.0992,-4.1045,-4.0714,-3.9916,-3.9896,-3.9471,-3.8617,-3.8539,-3.85,-3.8495,-3.8498,-3.8505,-3.8506,-3.8496,-3.8495,-3.076,0.0,-3.1242,-3.1242,-3.1004,-3.0841,0.0,-3.0861,-3.0654,-3.0654,0.0,-3.0801,-3.1281,-3.1376,-3.1509,-3.1914,0.0,-3.2437,-3.2437,0.0,0.0,-3.7416,-3.8451,-3.927,-3.9841,-4.0806,-4.1627,-4.2254,-4.2308,-4.2308,-4.2346,-4.2346,-4.2387,-4.2506,-4.2707,-4.2825,-4.2883,-4.3141,-4.3123,-4.2827,-4.2787,-4.292,-4.3194,-4.3069,-4.3849,-4.5305,-4.5851,-4.6735,-4.782,-4.82,-4.8458,-4.8585,-4.8421,-4.8476,-4.8674,-4.8813,-4.8474,-4.793,-4.8056,-4.7091,-4.5704,-4.52,-4.4978,-4.4895,-4.4895,-4.4895,-4.4895,-4.4895,-4.4895,-4.4895,-4.4895,-4.4895,-4.4895,-4.4895,-4.4895,-4.4895,-4.4895,-4.4895,-4.4895,-4.4895,-4.4895,-4.485,-4.4678,-4.4139,-4.3722,-4.3639,-4.2391,-4.1485,-4.1587,-4.0882,-4.0391,-4.0496,-4.0547,-4.0629,-4.079,-4.0888,-4.0926,-4.0926,-4.0935,-4.0878,-4.0715,-4.0715,-4.0321,-3.951,-3.8831,-3.8505,-3.8494,-3.8493,-3.8507,-3.8507,-3.8506,-3.8492,-3.0506,-3.0675,-3.0804,-3.0804,-3.0658,-3.0551,-3.0781,0.0,0.0,0.0,0.0,0.0,0.0,0.0,0.0,0.0,-3.2038,0.0,0.0,0.0,-3.6203,-3.7452,-3.8308,-3.9074,-3.9823,-4.0628,-4.1431,-4.2254,-4.2308,-4.2308,-4.2308,-4.2308,-4.2328,-4.2405,-4.2405,-4.2465,-4.2548,-4.2728,-4.2691,-4.247,-4.2427,-4.253,-4.2732,-4.2711,-4.3356,-4.451,-4.4949,-4.5663,-4.6563,-4.7085,-4.7393,-4.7528,-4.7773,-4.7781,-4.7664,-4.7813,-4.7387,-4.6735,-4.6587,-4.5637,-4.4469,-4.4274,-4.4237,-4.4341,-4.4457,-4.4484,-4.4538,-4.4814,-4.4895,-4.4895,-4.4895,-4.4895,-4.4895,-4.4895,-4.4895,-4.4895,-4.4895,-4.4895,-4.4895,-4.4895,-4.4895,-4.4895,-4.4895,-4.4535,-4.4287,-4.4342,-4.327,-4.2332,-4.2016,-4.1304,-4.0671,-4.0347,-4.0367,-4.0481,-4.0654,-4.0694,-4.0759,-4.0849,-4.0874,-4.0921,-4.0943,-4.0943,-4.075,-4.0363,-3.9896,-3.9653,-3.9688,-3.9691,-3.9682,-3.9682,-3.9696,-3.9687,-3.0506,-3.0506,-3.0506,-3.0506,-3.0506,-3.0506,-3.0506,0.0,0.0,0.0,0.0,0.0,0.0,-3.1004,0.0,0.0,0.0,0.0,-3.5099,-3.5971,-3.6684,-3.7506,-3.8201,-3.8915,-3.9645,-4.036,-4.1074,-4.1859,-4.2058,-4.2129,-4.2129,-4.2236,-4.2308,-4.2308,-4.2308,-4.2346,-4.2463,-4.2463,-4.2425,-4.2308,-4.2308,-4.2308,-4.2308,-4.2534,-4.3032,-4.3756,-4.4118,-4.4651,-4.5323,-4.5823,-4.6023,-4.6113,-4.6776,-4.6741,-4.6334,-4.6574,-4.625,-4.5585,-4.4847,-4.4143,-4.3568,-4.3568,-4.3584,-4.365,-4.3875,-4.3937,-4.4061,-4.457,-4.4777,-4.487,-4.4883,-4.4895,-4.4895,-4.4895,-4.4895,-4.4895,-4.4895,-4.4895,-4.4895,-4.4895,-4.4895,-4.4895,-4.4895,-4.4895,-4.4895,-4.4895,-4.4213,-4.3436,-4.2685,-4.1871,-4.11,-4.0377,-4.0271,-4.0326,-4.0454,-4.0462,-4.0542,-4.0742,-4.0833,-4.0888,-4.0874,-4.0883,-4.0926,-4.0984,-4.0984,-4.1027,-4.1081,-4.1081,-4.1085,-4.1091,-4.1091,-4.1105,-3.0506,-3.0506,-3.0506,-3.0506,-3.0506,-3.0506,-3.0506,0.0,0.0,0.0,0.0,0.0,0.0,-3.0593,-3.0613,0.0,0.0,-3.361,0.0,-3.6328,-3.6684,-3.7506,-3.772,-3.8094,-3.8897,-3.9093,-3.9468,-4.0198,-4.0895,-4.1288,-4.1288,-4.193,-4.2308,-4.2308,-4.2308,-4.2308,-4.2328,-4.2328,-4.2308,-4.2308,-4.2308,-4.2308,-4.2308,-4.2331,-4.2422,-4.2604,-4.3322,-4.3701,-4.388,-4.4568,-4.485,-4.4868,-4.4993,-4.4979,-4.4936,-4.5084,-4.4602,-4.3829,-4.324,-4.3214,-4.3422,-4.3422,-4.3522,-4.3617,-4.365,-4.3666,-4.3682,-4.3778,-4.4242,-4.4764,-4.4858,-4.4895,-4.4895,-4.4895,-4.4895,-4.4895,-4.4895,-4.4895,-4.4895,-4.4895,-4.4895,-4.4895,-4.4895,-4.4895,-4.4895,-4.4895,-4.4213,-4.3644,-4.3531,-4.217,-4.1212,-4.1205,-4.0559,-4.0176,-4.0326,-4.0334,-4.0399,-4.0547,-4.0713,-4.0825,-4.0818,-4.0864,-4.0893,-4.0917,-4.0917,-4.0943,-4.1023,-4.1023,-4.1041,-4.1107,-4.1097,-4.11,-2.9946,-2.9995,-3.0097,-3.0426,-3.0506,-3.0506,-3.0506,-3.0506,0.0,0.0,0.0,0.0,0.0,0.0,-3.0771,-3.1664,0.0,-3.4915,-3.6221,-3.6774,-3.7202,-3.7559,-3.7595,-3.7916,-3.8736,-3.8808,-3.9092,-3.9841,-4.0253,-4.0449,-4.0449,-4.1217,-4.1645,-4.1645,-4.2055,-4.2308,-4.2308,-4.2308,-4.2308,-4.2308,-4.2308,-4.2308,-4.2308,-4.2308,-4.2308,-4.2325,-4.268,-4.2858,-4.2912,-4.3697,-4.3996,-4.405,-4.4442,-4.4353,-4.3964,-4.3599,-4.3185,-4.2825,-4.2577,-4.2614,-4.2808,-4.2808,-4.2847,-4.2922,-4.3069,-4.3123,-4.3176,-4.342,-4.3799,-4.415,-4.4355,-4.4397,-4.4457,-4.464,-4.4751,-4.4783,-4.4783,-4.4846,-4.4895,-4.4895,-4.4895,-4.4895,-4.4895,-4.4895,-4.4895,-4.4895,-4.4592,-4.4194,-4.3758,-4.2621,-4.1715,-4.1328,-4.0511,-4.005,-4.0176,-4.0185,-4.0283,-4.0496,-4.0694,-4.0809,-4.08,-4.0829,-4.0856,-4.0844,-4.0844,-4.0874,-4.0958,-4.0958,-4.0984,-4.1041,-4.1041,-4.1071,-2.9406,-2.9563,-2.9695,-3.0321,0.0,-3.0506,-3.0506,-3.0506,0.0,0.0,0.0,0.0,0.0,-3.0638,0.0,-3.3014,-3.453,-3.5696,-3.6268,-3.6984,-3.743,-3.743,-3.754,-3.7845,-3.8469,-3.8522,-3.8754,-3.9325,-3.9557,-3.9627,-3.9627,-4.0396,-4.0824,-4.0824,-4.1413,-4.1734,-4.1734,-4.1912,-4.2111,-4.2308,-4.2308,-4.2308,-4.2308,-4.2308,-4.2308,-4.2308,-4.2308,-4.2308,-4.2361,-4.2965,-4.3233,-4.3286,-4.3839,-4.3732,-4.3144,-4.2519,-4.2308,-4.2308,-4.2308,-4.2308,-4.2308,-4.2308,-4.2308,-4.2348,-4.2554,-4.2613,-4.2692,-4.3032,-4.3212,-4.3384,-4.3812,-4.3906,-4.3971,-4.4225,-4.4369,-4.4467,-4.4508,-4.4616,-4.472,-4.4833,-4.4846,-4.4858,-4.4883,-4.4895,-4.4895,-4.4895,-4.4895,-4.4687,-4.4061,-4.3057,-4.2155,-4.1548,-4.0525,-3.9935,-4.005,-4.0081,-4.0195,-4.0391,-4.0607,-4.0752,-4.0797,-4.0797,-4.0796,-4.0804,-4.0809,-4.0837,-4.0869,-4.0869,-4.0917,-4.098,-4.098,-4.0996,-2.9293,-2.9406,-2.9563,-3.0236,-3.0443,-3.0506,-3.0506,-3.0506,0.0,-3.0506,0.0,0.0,0.0,-3.1068,-3.2152,-3.4078,-3.4507,-3.4968,-3.6063,-3.6629,-3.6939,-3.6939,-3.7319,-3.7631,-3.7684,-3.7702,-3.772,-3.7773,-3.8469,-3.8878,-3.8878,-3.9574,-3.9984,-3.9984,-4.0037,-4.0055,-4.0055,-4.0806,-4.1556,-4.2308,-4.2308,-4.2308,-4.2308,-4.2308,-4.2308,-4.2308,-4.2308,-4.2308,-4.2308,-4.2361,-4.2397,-4.2376,-4.243,-4.2433,-4.2397,-4.2325,-4.2308,-4.2308,-4.2308,-4.2308,-4.2308,-4.2308,-4.2308,-4.2308,-4.2328,-4.2328,-4.2348,-4.2371,-4.2391,-4.2577,-4.3418,-4.3634,-4.3634,-4.365,-4.3666,-4.3746,-4.4001,-4.4061,-4.4198,-4.4621,-4.4706,-4.4745,-4.487,-4.4895,-4.4895,-4.4895,-4.4895,-4.4876,-4.4819,-4.3398,-4.2393,-4.2306,-4.0866,-3.99,-3.9922,-4.003,-4.011,-4.0129,-4.0386,-4.0607,-4.079,-4.0797,-4.0797,-4.0803,-4.0803,-4.0794,-4.0812,-4.0812,-4.0844,-4.0912,-4.0912,-4.0917,-2.8693,-2.8904,-2.9035,-2.9832,-3.0236,0.0,0.0,-3.0506,-3.0506,-3.0506,-3.0506,0.0,0.0,0.0,-3.3636,-3.4382,-3.5083,-3.5694,-3.6138,-3.6357,-3.646,-3.646,-3.688,-3.7054,-3.6761,-3.7262,-3.7467,-3.7186,-3.7732,-3.8041,-3.8041,-3.879,-3.9217,-3.9217,-3.9645,-3.9895,-3.9895,-4.0198,-4.0521,-4.0824,-4.1805,-4.2308,-4.2308,-4.2308,-4.2308,-4.2308,-4.2308,-4.2308,-4.2308,-4.2308,-4.2308,-4.2308,-4.2308,-4.2308,-4.2308,-4.2308,-4.2308,-4.2308,-4.2308,-4.2308,-4.2308,-4.2308,-4.2308,-4.2308,-4.2308,-4.2308,-4.2308,-4.2308,-4.2308,-4.2394,-4.2903,-4.3032,-4.3105,-4.3301,-4.3404,-4.3505,-4.3605,-4.3684,-4.3859,-4.4198,-4.4256,-4.4351,-4.46,-4.4659,-4.4685,-4.4757,-4.4789,-4.4815,-4.4883,-4.3436,-4.2401,-4.2401,-4.0904,-3.99,-3.99,-3.9946,-4.001,-4.0091,-4.0274,-4.045,-4.0607,-4.0614,-4.0668,-4.0797,-4.0797,-4.0809,-4.0794,-4.0794,-4.0804,-4.0839,-4.0839,-4.0859,-2.828,-2.8496,-2.8677,-2.9661,0.0,0.0,-3.0426,-3.0506,-3.0506,-3.0506,-3.0688,-3.1135,-3.2111,0.0,-3.4353,-3.4589,-3.5277,-3.5781,-3.5781,-3.5912,-3.5998,-3.5998,-3.6399,-3.6603,-3.644,-3.6997,-3.73,-3.7131,-3.7411,-3.7595,-3.7595,-3.8112,-3.8415,-3.8415,-3.8915,-3.9182,-3.9182,-3.9432,-3.9538,-3.9556,-4.0895,-4.1538,-4.1538,-4.1805,-4.1912,-4.193,-4.22,-4.2308,-4.2308,-4.2308,-4.2308,-4.2308,-4.2308,-4.2308,-4.2308,-4.2308,-4.2308,-4.2308,-4.2308,-4.2308,-4.2308,-4.2308,-4.2308,-4.2254,-4.2004,-4.1912,-4.1859,-4.1609,-4.1538,-4.158,-4.1779,-4.2178,-4.2632,-4.2862,-4.2995,-4.3069,-4.3159,-4.3247,-4.3401,-4.3751,-4.3815,-4.3912,-4.4162,-4.4225,-4.4283,-4.4453,-4.4481,-4.4474,-4.4386,-4.3188,-4.2146,-4.1662,-4.0582,-3.99,-3.99,-3.99,-3.9935,-4.003,-4.0129,-4.0248,-4.0423,-4.0431,-4.0511,-4.07,-4.0707,-4.0739,-4.0797,-4.0797,-4.0796,-4.0798,-4.0798,-4.0821,-2.8143,-2.8288,-2.8599,0.0,0.0,0.0,-3.0321,-3.0489,-3.0506,-3.0506,-3.1101,-3.2061,-3.3524,-3.3829,-3.4038,-3.4767,-3.4899,-3.4899,-3.4899,-3.531,-3.5594,-3.5594,-3.5933,-3.6378,-3.6841,-3.69,-3.7092,-3.7558,-3.7595,-3.7595,-3.7595,-3.7595,-3.7595,-3.7595,-3.7595,-3.7595,-3.7595,-3.8397,-3.8789,-3.8789,-3.952,-3.9877,-3.993,-4.0735,-4.1092,-4.1127,-4.193,-4.229,-4.2308,-4.2308,-4.2308,-4.2308,-4.2308,-4.2308,-4.2308,-4.2308,-4.2308,-4.2308,-4.2308,-4.2308,-4.2308,-4.2308,-4.2308,-4.2147,-4.1341,-4.1092,-4.0931,-4.0109,-3.9895,-3.9895,-3.9895,-4.1074,-4.229,-4.229,-4.229,-4.2353,-4.2616,-4.2693,-4.2809,-4.3283,-4.3387,-4.342,-4.355,-4.3564,-4.3664,-4.3933,-4.3964,-4.3811,-4.3342,-4.2629,-4.1604,-4.0049,-3.99,-3.99,-3.99,-3.99,-3.99,-3.99,-3.99,-4.002,-4.0292,-4.03,-4.0367,-4.0503,-4.0503,-4.0607,-4.0797,-4.0797,-4.0797,-4.0797,-4.0797,-4.0797,-2.7725,-2.7799,0.0,-2.8567,0.0,0.0,0.0,-3.0027,0.0,0.0,-3.226,-3.3276,-3.3707,-3.422,-3.4651,-3.4866,-3.4899,-3.4899,-3.4899,-3.5024,-3.5102,-3.5102,-3.5504,-3.5842,-3.5972,-3.6542,-3.6958,-3.7092,-3.7411,-3.7595,-3.7595,-3.7595,-3.7595,-3.7595,-3.7595,-3.7595,-3.7595,-3.7845,-3.7803,-3.7482,-3.7694,-3.8539,-3.9895,-4.0164,-4.0271,-4.0271,-4.0521,-4.0931,-4.1502,-4.2076,-4.2308,-4.2308,-4.2308,-4.2308,-4.2308,-4.2308,-4.2308,-4.2308,-4.2308,-4.2308,-4.2308,-4.2308,-4.1912,-4.1413,-4.1163,-4.0699,-4.0198,-3.9966,-3.9895,-3.9895,-3.9895,-4.0233,-4.061,-4.061,-4.061,-4.063,-4.0709,-4.1176,-4.1526,-4.1325,-4.176,-4.2014,-4.1691,-4.1632,-4.168,-4.1854,-4.2045,-4.2009,-4.161,-4.1355,-4.081,-3.9724,-3.9623,-3.9623,-3.9623,-3.9623,-3.9658,-3.9751,-3.9751,-3.9876,-4.0158,-4.0167,-4.0221,-4.0359,-4.0367,-4.0442,-4.0581,-4.0581,-4.0661,-4.0797,-4.0797,-4.0797,-2.7525,-2.76,0.0,-2.8149,-2.8535,-2.9006,-2.9653,0.0,0.0,0.0,-3.3176,-3.3889,-3.417,-3.4601,-3.4899,-3.4899,-3.4899,-3.4899,-3.4899,-3.4899,-3.4899,-3.4899,-3.5148,-3.5385,-3.5571,-3.6079,-3.6539,-3.688,-3.715,-3.7393,-3.7577,-3.7595,-3.7595,-3.7595,-3.7595,-3.7595,-3.7595,-3.7411,-3.7186,-3.69,-3.6704,-3.7253,-3.8446,-3.8763,-3.9022,-3.9199,-3.9694,-4.0182,-4.0699,-4.1484,-4.1805,-4.1841,-4.2183,-4.2308,-4.2308,-4.2308,-4.2308,-4.2308,-4.2308,-4.2308,-4.2254,-4.1933,-4.1502,-4.0985,-4.0378,-3.986,-3.9395,-3.9075,-3.8986,-3.8986,-3.8986,-3.8986,-3.9147,-3.9734,-3.9895,-3.9895,-3.9895,-4.0289,-4.0544,-4.027,-4.0595,-4.0813,-4.051,-4.0456,-4.0509,-4.0733,-4.0724,-4.0651,-4.056,-4.0277,-3.9937,-3.9539,-3.9514,-3.9514,-3.9514,-3.9514,-3.952,-3.9623,-3.9623,-3.9686,-3.9846,-3.996,-4.0081,-4.0221,-4.0221,-4.0292,-4.0415,-4.0415,-4.0481,-4.0593,-4.0654,-4.0674,-2.7439,-2.753,0.0,-2.8222,-2.8271,0.0,-3.053,-3.1352,-3.2095,-3.3508,0.0,-3.4104,-3.4767,-3.4899,-3.4899,-3.4899,-3.4965,-3.4998,-3.4998,-3.5048,-3.5081,-3.5015,-3.4998,-3.5161,-3.5566,-3.5594,-3.595,-3.6781,-3.6841,-3.7017,-3.7449,-3.7467,-3.7467,-3.7467,-3.7467,-3.7467,-3.7467,-3.7054,-3.6821,-3.6781,-3.6357,-3.6109,-3.6101,-3.6917,-3.7523,-3.8006,-3.916,-3.9672,-3.9743,-4.0584,-4.0925,-4.0996,-4.1787,-4.2073,-4.2073,-4.2073,-4.2073,-4.2073,-4.2073,-4.2073,-4.1948,-4.1234,-4.0949,-4.0628,-3.9236,-3.8754,-3.854,-3.7809,-3.7595,-3.7595,-3.7595,-3.7595,-3.7952,-3.9361,-3.9681,-3.9681,-3.9681,-3.9734,-3.977,-3.9698,-3.9734,-3.977,-3.9698,-3.9681,-3.9796,-4.0131,-3.9781,-3.9605,-3.9993,-3.939,-3.9069,-3.937,-3.9408,-3.9439,-3.9439,-3.9446,-3.9477,-3.9489,-3.9471,-3.9502,-3.9514,-3.9747,-3.9946,-4.0061,-4.0071,-4.0158,-4.0283,-4.0283,-4.0292,-4.0309,-4.0423,-4.0469,-2.6948,-2.6974,0.0,0.0,-2.8018,-2.9195,-3.1022,-3.1981,-3.2713,-3.3607,-3.4253,-3.47,-3.4866,-3.4899,-3.4899,-3.4899,-3.5396,-3.576,-3.576,-3.6257,-3.6406,-3.5827,-3.576,-3.5728,-3.5616,-3.5594,-3.5798,-3.6316,-3.6357,-3.6381,-3.6501,-3.6501,-3.6501,-3.6501,-3.6501,-3.6501,-3.6501,-3.6399,-3.619,-3.5885,-3.5776,-3.5526,-3.5218,-3.6061,-3.6515,-3.6655,-3.7561,-3.7934,-3.8045,-3.9185,-3.9682,-3.9741,-4.0242,-4.0431,-4.0431,-4.0431,-4.0431,-4.0431,-4.0431,-4.0431,-4.0396,-4.0198,-3.9771,-3.9236,-3.8915,-3.8362,-3.7827,-3.7648,-3.7595,-3.7595,-3.7595,-3.7595,-3.7684,-3.8023,-3.8076,-3.8076,-3.8076,-3.8594,-3.8861,-3.8219,-3.8594,-3.8843,-3.8201,-3.8076,-3.8186,-3.8472,-3.8413,-3.8457,-3.875,-3.8651,-3.8572,-3.8631,-3.8811,-3.8946,-3.8946,-3.9101,-3.9232,-3.9337,-3.935,-3.9401,-3.9502,-3.9658,-3.9751,-3.9796,-3.9892,-4.0,-4.0129,-4.0129,-4.0194,-4.0309,-4.0334,-4.0351,-2.6806,0.0,0.0,-2.7067,0.0,-2.8687,-3.0045,-3.1054,-3.2045,-3.3141,-3.418,-3.4899,-3.4899,-3.4899,-3.4899,-3.4899,-3.5214,-3.5462,-3.5462,-3.581,-3.5909,-3.5512,-3.5462,-3.5542,-3.5777,-3.5465,-3.5588,-3.6376,-3.6095,-3.5998,-3.6172,-3.6194,-3.6194,-3.6194,-3.6194,-3.6194,-3.6194,-3.5998,-3.5798,-3.5611,-3.5362,-3.5102,-3.4828,-3.5577,-3.5912,-3.5946,-3.656,-3.6818,-3.6908,-3.7965,-3.838,-3.8457,-3.9297,-3.9618,-3.9638,-3.9836,-3.9895,-3.9895,-3.9895,-3.9895,-3.9841,-3.9484,-3.9092,-3.8736,-3.8344,-3.7916,-3.7595,-3.7595,-3.7595,-3.7595,-3.7595,-3.7595,-3.7595,-3.7595,-3.7595,-3.7595,-3.7595,-3.7934,-3.8094,-3.7684,-3.7933,-3.8094,-3.7684,-3.7595,-3.7649,-3.7792,-3.781,-3.7915,-3.817,-3.8203,-3.8252,-3.8382,-3.8528,-3.8606,-3.8606,-3.8815,-3.8974,-3.9059,-3.9137,-3.9232,-3.9311,-3.9439,-3.9551,-3.9592,-3.967,-3.9751,-3.9802,-3.9802,-3.9857,-3.9932,-4.0053,-4.011,-2.6806,0.0,-2.6989,-2.7104,-2.7403,0.0,-2.8774,-2.977,-3.097,-3.2537,-3.3835,-3.4763,-3.4875,-3.4875,-3.4875,-3.4899,-3.4975,-3.5033,-3.5081,-3.5173,-3.5206,-3.5098,-3.5081,-3.523,-3.5595,-3.5065,-3.5071,-3.5958,-3.5425,-3.5299,-3.5771,-3.5771,-3.584,-3.5938,-3.5938,-3.5916,-3.5895,-3.5577,-3.5413,-3.5407,-3.5024,-3.4763,-3.4691,-3.5178,-3.5413,-3.5459,-3.5803,-3.5977,-3.6032,-3.6775,-3.7094,-3.7189,-3.8335,-3.8765,-3.8824,-3.9153,-3.9272,-3.9272,-3.935,-3.937,-3.93,-3.8752,-3.8594,-3.8469,-3.7809,-3.7595,-3.7595,-3.7595,-3.7595,-3.7595,-3.7595,-3.7595,-3.7595,-3.7595,-3.7595,-3.7595,-3.7595,-3.7595,-3.7595,-3.7595,-3.7595,-3.7595,-3.7595,-3.7595,-3.7595,-3.7595,-3.7595,-3.7685,-3.7897,-3.7932,-3.8018,-3.8236,-3.8302,-3.835,-3.8399,-3.8606,-3.8777,-3.8848,-3.8979,-3.9059,-3.9101,-3.9205,-3.9324,-3.9439,-3.9489,-3.9514,-3.9514,-3.9514,-3.9514,-3.9514,-3.9736,-3.9827,0.0,0.0,-2.6832,0.0,-2.7291,-2.7916,0.0,0.0,-3.0389,-3.2318,-3.3385,-3.4144,-3.4787,-3.4804,-3.4763,-3.4875,-3.5235,-3.5597,-3.5835,-3.6307,-3.6447,-3.5918,-3.586,-3.5396,-3.4203,-3.3988,-3.3752,-3.3272,-3.3139,-3.3378,-3.4078,-3.4128,-3.4366,-3.4897,-3.489,-3.4842,-3.473,-3.4675,-3.4667,-3.4667,-3.4594,-3.4546,-3.4521,-3.4618,-3.4699,-3.4835,-3.5001,-3.5055,-3.5102,-3.5645,-3.5835,-3.5902,-3.6405,-3.6609,-3.6609,-3.6672,-3.6693,-3.6755,-3.7158,-3.7294,-3.7355,-3.7644,-3.7773,-3.7738,-3.7631,-3.7595,-3.7595,-3.7595,-3.7595,-3.7595,-3.7595,-3.7595,-3.7595,-3.7595,-3.7595,-3.7595,-3.7595,-3.7595,-3.7595,-3.7595,-3.7595,-3.7595,-3.7595,-3.7595,-3.7595,-3.7595,-3.7595,-3.7613,-3.7649,-3.7649,-3.7667,-3.7703,-3.7915,-3.8153,-3.8382,-3.843,-3.8634,-3.9031,-3.8921,-3.8921,-3.9101,-3.9129,-3.9142,-3.9137,-3.9389,-3.9514,-3.9514,-3.9514,-3.9514,-3.9514,-3.9532,-3.9556,-2.6806,-2.6806,-2.6806,0.0,-2.6985,-2.7288,-2.761,-2.8144,-2.8938,-3.0237,-3.1271,-3.2504,-3.4333,-3.4618,-3.4594,-3.4667,-3.4849,-3.5021,-3.5136,-3.5029,-3.4873,-3.4681,-3.4292,-3.3985,-3.3822,-3.3448,-3.3232,-3.3292,-3.2934,-3.2806,-3.3053,-3.3069,-3.3189,-3.3395,-3.3789,-3.3939,-3.3891,-3.4284,-3.4497,-3.4497,-3.4423,-3.4399,-3.4399,-3.4399,-3.4448,-3.4594,-3.4732,-3.4804,-3.4787,-3.5008,-3.5102,-3.5131,-3.5493,-3.5693,-3.5781,-3.6058,-3.6143,-3.6165,-3.6374,-3.6437,-3.6478,-3.6698,-3.6956,-3.7206,-3.7206,-3.7393,-3.7594,-3.7466,-3.7503,-3.7558,-3.7466,-3.7521,-3.7595,-3.7595,-3.7595,-3.7595,-3.7595,-3.7595,-3.7595,-3.7595,-3.7595,-3.7595,-3.7595,-3.7595,-3.7595,-3.7595,-3.7595,-3.7595,-3.7595,-3.7595,-3.7595,-3.7595,-3.7703,-3.781,-3.7932,-3.8236,-3.843,-3.8473,-3.868,-3.8833,-3.8935,-3.8935,-3.9197,-3.9825,-3.9461,-3.9272,-3.9272,-3.9272,-3.9272,-3.9272,-3.9363,-3.9401,0.0,0.0,-2.6806,-2.6806,-2.6806,-2.6806,0.0,0.0,-2.772,-2.8561,-2.9449,-3.0705,-3.3028,-3.3722,-3.3932,-3.3956,-3.3908,-3.3884,-3.3956,-3.3457,-3.3137,-3.3294,-3.28,-3.2665,-3.3119,-3.2701,-3.2519,-3.2861,-3.2403,-3.2128,-3.2198,-3.2192,-3.2245,-3.2361,-3.2829,-3.3067,-3.3043,-3.3582,-3.3958,-3.4137,-3.4039,-3.4071,-3.425,-3.425,-3.43,-3.4399,-3.457,-3.4643,-3.4643,-3.4643,-3.4643,-3.4667,-3.4927,-3.5075,-3.5214,-3.5554,-3.5688,-3.5727,-3.582,-3.5864,-3.5885,-3.6011,-3.6333,-3.6701,-3.6701,-3.6937,-3.7204,-3.7031,-3.7147,-3.7261,-3.7126,-3.726,-3.7448,-3.7503,-3.7503,-3.7539,-3.7594,-3.7595,-3.7595,-3.7595,-3.7595,-3.7595,-3.7595,-3.7595,-3.7595,-3.7595,-3.7595,-3.7595,-3.7595,-3.7595,-3.7595,-3.7595,-3.7595,-3.7631,-3.7703,-3.8001,-3.817,-3.8103,-3.8415,-3.8637,-3.8698,-3.8698,-3.916,-4.0137,-3.9618,-3.9453,-3.9733,-3.9733,-3.9621,-3.9417,-3.9541,-3.945,0.0,-2.6806,0.0,-2.6806,-2.6806,0.0,0.0,0.0,-2.7167,-2.8382,-2.8662,-2.9096,-3.0382,-3.1541,-3.2366,-3.2498,-3.2313,-3.2219,-3.2459,-3.2373,-3.2318,-3.2456,-3.2423,-3.2144,-3.1472,-3.1501,-3.1227,-3.0461,-3.0486,-3.0766,-3.1325,-3.1358,-3.1618,-3.219,-3.2255,-3.2201,-3.2084,-3.2116,-3.2489,-3.317,-3.317,-3.351,-3.4126,-3.4126,-3.4126,-3.4126,-3.4399,-3.4521,-3.4521,-3.4521,-3.4521,-3.4521,-3.4521,-3.4546,-3.4546,-3.4554,-3.4578,-3.465,-3.5098,-3.5243,-3.5311,-3.5776,-3.6032,-3.6139,-3.6139,-3.6161,-3.6182,-3.6161,-3.6308,-3.6457,-3.6437,-3.6736,-3.7085,-3.7278,-3.7316,-3.7372,-3.7558,-3.7595,-3.7595,-3.7595,-3.7595,-3.7595,-3.7595,-3.7595,-3.7595,-3.7595,-3.7595,-3.7595,-3.7595,-3.7595,-3.7595,-3.7595,-3.7595,-3.7703,-3.7949,-3.7775,-3.7845,-3.835,-3.817,-3.8153,-3.8415,-3.8415,-3.8782,-3.9531,-3.9806,-4.0455,-4.146,-4.146,-4.107,-4.0327,-4.0341,-3.9895,0.0,0.0,0.0,-2.6806,-2.6806,-2.6806,-2.6806,-2.6806,-2.6916,-2.7372,-2.7683,-2.8025,-2.8455,-2.9912,-3.1045,-3.1119,-3.1307,-3.1534,-3.163,-3.1474,-3.1407,-3.1544,-3.1159,-3.0789,-3.0615,-3.0642,-3.0548,-3.0205,-3.0231,-3.0325,-3.0457,-3.0473,-3.0543,-3.0709,-3.1141,-3.1565,-3.2012,-3.2012,-3.2141,-3.2384,-3.2384,-3.253,-3.2757,-3.2757,-3.2757,-3.2773,-3.334,-3.3893,-3.4374,-3.4374,-3.4374,-3.4349,-3.4275,-3.43,-3.4374,-3.4374,-3.4374,-3.4399,-3.4561,-3.4634,-3.4658,-3.4809,-3.5168,-3.5515,-3.5515,-3.5715,-3.5929,-3.5764,-3.589,-3.6101,-3.6203,-3.6412,-3.6696,-3.7029,-3.6913,-3.6816,-3.7145,-3.7411,-3.7595,-3.7595,-3.7595,-3.7595,-3.7595,-3.7595,-3.7595,-3.7595,-3.7595,-3.7595,-3.7595,-3.7595,-3.7595,-3.7595,-3.7595,-3.7631,-3.7739,-3.781,-3.788,-3.7898,-3.7949,-3.8035,-3.8136,-3.8136,-3.8837,-4.0315,-4.0452,-4.0779,-4.1345,-4.1516,-4.1441,-4.1144,-4.0639,-4.0215,-2.6806,0.0,0.0,0.0,-2.6806,-2.6806,-2.6806,-2.6806,-2.6806,-2.6806,-2.7037,-2.7265,-2.7265,-2.8325,-2.9301,-2.9643,-2.9993,-3.023,-3.023,-3.0275,-3.0312,-3.0426,-3.0156,-2.9995,-3.0098,-3.0119,-3.0124,-3.0098,-3.0119,-3.0081,-2.9968,-2.9968,-2.9946,-2.9896,-3.0328,-3.0797,-3.1283,-3.1299,-3.1413,-3.1616,-3.1616,-3.1746,-3.2012,-3.2012,-3.2012,-3.2044,-3.2514,-3.3161,-3.39,-3.4128,-3.4226,-3.4226,-3.4126,-3.4151,-3.4226,-3.4226,-3.4226,-3.4226,-3.4226,-3.4226,-3.4226,-3.4226,-3.4537,-3.4904,-3.4904,-3.5121,-3.5328,-3.5151,-3.5289,-3.5526,-3.5616,-3.5864,-3.619,-3.6594,-3.6553,-3.6516,-3.6911,-3.726,-3.7503,-3.7503,-3.7503,-3.7503,-3.7594,-3.754,-3.7503,-3.7577,-3.7595,-3.7595,-3.7595,-3.7595,-3.7595,-3.7595,-3.7595,-3.7595,-3.7595,-3.7775,-3.7792,-3.7613,-3.7775,-3.788,-3.788,-3.788,-3.858,-4.0111,-4.0471,-4.0901,-4.1345,-4.1885,-4.2044,-4.1841,-4.1045,-4.0422,0.0,0.0,0.0,0.0,0.0,0.0,-2.6806,-2.6806,-2.6806,-2.6806,-2.6806,-2.6806,-2.6806,-2.6806,-2.7115,-2.811,-2.8264,-2.828,-2.828,-2.8732,-2.9074,-2.9074,-2.9554,-2.9896,-2.9896,-2.9946,-2.9968,-2.9902,-2.9968,-2.9968,-2.9902,-2.9896,-2.9896,-2.9896,-2.9896,-2.9896,-2.9896,-2.9896,-3.0237,-3.0872,-3.0872,-3.1244,-3.1947,-3.1947,-3.1947,-3.1947,-3.1963,-3.2368,-3.308,-3.3761,-3.4036,-3.4036,-3.4052,-3.4068,-3.4068,-3.4084,-3.4101,-3.4101,-3.4101,-3.4101,-3.4101,-3.4101,-3.4201,-3.43,-3.43,-3.43,-3.43,-3.43,-3.4472,-3.4691,-3.4691,-3.5075,-3.5587,-3.5972,-3.6207,-3.6454,-3.6871,-3.7106,-3.7259,-3.7278,-3.7278,-3.7353,-3.7558,-3.7428,-3.7372,-3.7558,-3.7613,-3.7595,-3.7595,-3.7595,-3.7595,-3.7595,-3.7595,-3.7595,-3.7595,-3.7595,-3.7595,-3.7595,-3.7595,-3.7595,-3.7595,-3.7595,-3.7969,-3.879,-3.9841,-4.0781,-4.1593,-4.2668,-4.2937,-4.24,-4.1574,-4.0428,-2.6806,0.0,0.0,0.0,0.0,0.0,-2.6806,-2.6806,-2.6806,-2.6806,-2.6806,-2.6806,-2.6806,-2.6806,-2.6884,-2.7167,-2.7504,-2.7725,-2.7725,-2.8167,-2.8519,-2.8519,-2.9005,-2.9319,-2.9319,-2.9687,-2.9924,-2.9896,-2.9918,-2.9924,-2.9896,-2.9896,-2.9896,-2.9896,-2.9896,-2.9896,-2.9896,-2.9896,-2.9977,-3.0188,-3.0188,-3.0285,-3.048,-3.048,-3.048,-3.0512,-3.0985,-3.1325,-3.1551,-3.2287,-3.2595,-3.2627,-3.3161,-3.3372,-3.342,-3.3922,-3.4101,-3.4101,-3.4101,-3.4101,-3.4101,-3.4101,-3.4126,-3.4151,-3.4151,-3.4151,-3.4151,-3.4151,-3.4201,-3.4325,-3.4618,-3.4818,-3.5015,-3.5368,-3.5316,-3.527,-3.5616,-3.6075,-3.6553,-3.6989,-3.7085,-3.7105,-3.7163,-3.7239,-3.7316,-3.7372,-3.7521,-3.7595,-3.7595,-3.7595,-3.7595,-3.7595,-3.7595,-3.7595,-3.7595,-3.7595,-3.7595,-3.7595,-3.7595,-3.7595,-3.7595,-3.7595,-3.7969,-3.879,-3.9616,-4.0423,-4.1248,-4.2576,-4.3123,-4.2938,-4.1548,-4.0374,0.0,0.0,0.0,0.0,0.0,0.0,-2.6806,-2.6806,-2.6806,-2.6806,-2.6806,-2.6806,-2.6806,-2.6806,-2.6806,-2.6806,-2.7037,-2.7214,-2.7214,-2.764,-2.7987,-2.7987,-2.8448,-2.8772,-2.8772,-2.925,-2.9576,-2.9576,-2.977,-2.9896,-2.9896,-2.9896,-2.9896,-2.9896,-2.9896,-2.9896,-2.9896,-2.9896,-2.9896,-2.9896,-2.9896,-2.9896,-2.9896,-2.9896,-2.9896,-2.9913,-3.0295,-3.049,-3.0522,-3.0943,-3.1461,-3.2044,-3.2465,-3.2643,-3.2724,-3.342,-3.368,-3.3712,-3.4003,-3.4101,-3.4101,-3.4101,-3.4101,-3.4101,-3.4101,-3.4101,-3.4101,-3.4101,-3.4101,-3.4151,-3.4399,-3.4448,-3.4546,-3.4913,-3.4842,-3.4787,-3.5131,-3.5611,-3.6114,-3.6533,-3.6751,-3.6888,-3.6987,-3.7027,-3.7083,-3.7163,-3.7353,-3.7466,-3.7466,-3.7558,-3.7595,-3.7595,-3.7595,-3.7595,-3.7595,-3.7595,-3.7595,-3.7595,-3.7595,-3.7595,-3.7595,-3.7595,-3.7827,-3.829,-3.9058,-4.0003,-4.1092,-4.2254,-4.27,-4.245,-4.1321,-4.0333,0.0,0.0,0.0,0.0,-2.67,0.0,-2.6779,-2.6806,-2.6806,-2.6806,-2.6806,-2.6806,-2.6806,-2.6806,-2.6806,-2.6806,-2.6806,-2.6806,-2.6806,-2.7152,-2.7414,-2.7414,-2.7889,-2.8216,-2.8216,-2.8709,-2.9028,-2.9113,-2.9598,-2.9896,-2.9896,-2.9896,-2.9896,-2.9896,-2.9896,-2.9896,-2.9896,-2.9896,-2.9896,-2.9896,-2.9896,-2.9896,-2.9896,-2.9896,-2.9896,-2.9896,-2.9896,-2.9896,-2.9896,-2.9896,-3.0642,-3.1769,-3.185,-3.1882,-3.1979,-3.2708,-3.2967,-3.3048,-3.3663,-3.3874,-3.3874,-3.3874,-3.3874,-3.3874,-3.3955,-3.3987,-3.4003,-3.4084,-3.4101,-3.4101,-3.4101,-3.4101,-3.4201,-3.4546,-3.4618,-3.4715,-3.5015,-3.5385,-3.5722,-3.5902,-3.6297,-3.6664,-3.6849,-3.6728,-3.6705,-3.6928,-3.7143,-3.7259,-3.7259,-3.7411,-3.754,-3.7558,-3.7576,-3.7576,-3.7595,-3.7595,-3.7595,-3.7595,-3.7595,-3.7595,-3.7595,-3.7595,-3.7595,-3.7595,-3.8397,-3.9575,-4.1092,-4.1895,-4.2054,-4.1589,-4.1071,-4.0359,0.0,0.0,0.0,-2.5934,-2.6084,0.0,-2.67,-2.6806,-2.6806,-2.6806,-2.6806,-2.6806,-2.6806,-2.6806,-2.6806,-2.6806,-2.6806,-2.6806,-2.6806,-2.6884,-2.6948,-2.6948,-2.7352,-2.7665,-2.7665,-2.8143,-2.8638,-2.9074,-2.9598,-2.9896,-2.9896,-2.9896,-2.9896,-2.9896,-2.9896,-2.9896,-2.9896,-2.9896,-2.9896,-2.9896,-2.9896,-2.9896,-2.9896,-2.9896,-2.9896,-2.9896,-2.9896,-2.9896,-2.9896,-2.9896,-3.0058,-3.0366,-3.0888,-3.1114,-3.1195,-3.1947,-3.2222,-3.2238,-3.2368,-3.2417,-3.2417,-3.2417,-3.2417,-3.253,-3.3113,-3.3291,-3.3404,-3.3939,-3.4101,-3.4101,-3.4101,-3.4101,-3.4126,-3.4201,-3.4226,-3.4234,-3.4308,-3.4626,-3.493,-3.4961,-3.5515,-3.598,-3.6045,-3.6135,-3.6343,-3.6705,-3.6946,-3.7066,-3.7066,-3.7087,-3.7182,-3.7334,-3.7353,-3.7428,-3.7594,-3.7595,-3.7595,-3.7595,-3.7595,-3.7595,-3.7595,-3.7595,-3.7595,-3.7595,-3.8397,-3.9575,-4.1092,-4.1895,-4.2257,-4.2139,-4.1393,-4.0606,0.0,0.0,-2.5453,-2.5453,-2.5453,0.0,0.0,-2.6138,-2.634,-2.634,-2.6594,-2.6806,-2.6806,-2.6806,-2.6806,-2.6806,-2.6806,-2.6806,-2.6806,-2.6806,-2.6806,-2.6806,-2.7011,-2.7152,-2.7152,-2.7605,-2.8216,-2.9028,-2.9357,-2.9621,-2.9896,-2.9896,-2.9896,-2.9896,-2.9896,-2.9896,-2.9896,-2.9896,-2.9896,-2.9896,-2.9896,-2.9896,-2.9896,-2.9896,-2.9896,-2.9896,-2.9896,-2.9896,-2.9896,-2.9896,-2.9896,-2.9929,-3.0263,-3.0393,-3.049,-3.1179,-3.1438,-3.1487,-3.1882,-3.2012,-3.2012,-3.2012,-3.2012,-3.2077,-3.2433,-3.2805,-3.3161,-3.3501,-3.3841,-3.4101,-3.4101,-3.4101,-3.4101,-3.4101,-3.4101,-3.4101,-3.4101,-3.4423,-3.4643,-3.4448,-3.4866,-3.5293,-3.5476,-3.5571,-3.5788,-3.6191,-3.6426,-3.6612,-3.6809,-3.6948,-3.7046,-3.7143,-3.7143,-3.7201,-3.7279,-3.7392,-3.7447,-3.7447,-3.754,-3.7595,-3.7595,-3.7595,-3.7595,-3.7595,-3.8397,-3.9163,-3.995,-4.0735,-4.152,-4.229,-4.1466,-4.0681,-2.5797,-2.5578,-2.537,-2.5035,-2.5035,-2.5161,0.0,0.0,0.0,-2.5893,-2.6286,-2.6621,-2.6621,-2.6727,-2.6806,-2.6806,-2.6806,-2.6806,-2.6806,-2.6806,-2.6806,-2.6806,-2.6806,-2.6806,-2.6806,-2.7214,-2.7849,-2.8732,-2.8889,-2.912,-2.9576,-2.9687,-2.9748,-2.9748,-2.9852,-2.9896,-2.9896,-2.9896,-2.9896,-2.9896,-2.9792,-2.9748,-2.9748,-2.9643,-2.9598,-2.9598,-2.9598,-2.9598,-2.9598,-2.9598,-2.9598,-2.9621,-2.9814,-2.9896,-2.9961,-3.0522,-3.071,-3.0775,-3.1396,-3.1591,-3.1591,-3.1591,-3.1688,-3.1778,-3.1778,-3.2303,-3.2902,-3.3072,-3.3485,-3.3939,-3.4068,-3.4101,-3.4101,-3.4101,-3.4101,-3.4101,-3.4101,-3.4349,-3.4497,-3.4151,-3.4349,-3.4691,-3.5038,-3.5108,-3.5224,-3.5633,-3.5815,-3.6049,-3.6377,-3.6547,-3.6693,-3.6794,-3.6831,-3.6871,-3.6987,-3.7143,-3.7239,-3.7239,-3.7392,-3.7485,-3.7485,-3.7485,-3.7503,-3.7539,-3.8181,-3.861,-3.8808,-3.9395,-4.0431,-4.1805,-4.1163,-4.0449,-2.4867,-2.4368,-2.4005,-2.4584,-2.5134,-2.5715,-2.6433,0.0,-2.5893,-2.5893,0.0,-2.6002,-2.6002,0.0,0.0,-2.6806,-2.6806,-2.6806,-2.6806,-2.6806,-2.6806,-2.6806,-2.6806,-2.6806,-2.6806,-2.7214,-2.7565,-2.7675,-2.8119,-2.8424,-2.8472,-2.8935,-2.9182,-2.9182,-2.9643,-2.9896,-2.9896,-2.9896,-2.9896,-2.988,-2.9425,-2.9182,-2.9182,-2.8709,-2.8496,-2.8496,-2.8496,-2.8496,-2.8496,-2.8496,-2.8496,-2.8591,-2.9515,-2.9896,-2.9896,-2.9977,-3.001,-3.0026,-3.0107,-3.0139,-3.0139,-3.0139,-3.0538,-3.1017,-3.1017,-3.1535,-3.2271,-3.2902,-3.3145,-3.334,-3.3939,-3.4101,-3.4101,-3.4101,-3.4101,-3.4101,-3.4101,-3.4126,-3.4151,-3.4101,-3.4151,-3.43,-3.4691,-3.4763,-3.4866,-3.5224,-3.5293,-3.5316,-3.5362,-3.5407,-3.5616,-3.6139,-3.6203,-3.643,-3.695,-3.7027,-3.7029,-3.7029,-3.7066,-3.7085,-3.7085,-3.7085,-3.7145,-3.7334,-3.7423,-3.7907,-3.8808,-3.8878,-3.9342,-4.0182,-4.0092,-3.9627,-2.5495,-2.5161,-2.4908,-2.4753,-2.4894,-2.5161,-2.5425,-2.5591,-2.5729,-2.5729,0.0,0.0,0.0,0.0,0.0,0.0,-2.65,-2.65,-2.65,-2.65,-2.6594,-2.6779,-2.6806,-2.6806,-2.6806,-2.6974,-2.7214,-2.7489,-2.7715,-2.7972,-2.8264,-2.8504,-2.8638,-2.8638,-2.9159,-2.9273,-2.8982,-2.9273,-2.9273,-2.8982,-2.8732,-2.8638,-2.8638,-2.8384,-2.8288,-2.8288,-2.8288,-2.8288,-2.8288,-2.8288,-2.8288,-2.8336,-2.8818,-2.9143,-2.947,-2.9792,-2.9896,-2.9896,-2.9896,-2.9896,-2.9896,-2.9896,-3.0091,-3.0312,-3.0312,-3.0814,-3.1503,-3.2255,-3.2757,-3.3242,-3.3922,-3.4101,-3.4101,-3.4101,-3.4101,-3.4101,-3.4101,-3.4101,-3.4101,-3.4101,-3.4101,-3.4151,-3.4325,-3.4349,-3.4472,-3.4842,-3.4913,-3.4984,-3.5178,-3.5201,-3.5293,-3.5549,-3.5571,-3.5683,-3.5924,-3.6284,-3.6471,-3.6471,-3.6811,-3.7007,-3.7007,-3.7007,-3.7046,-3.7124,-3.7124,-3.7379,-3.7943,-3.7943,-3.816,-3.8594,-3.9486,-3.9484,-2.5879,-2.5743,-2.5564,-2.4992,-2.4851,-2.4823,-2.4766,-2.5035,-2.5287,-2.5287,-2.5892,0.0,0.0,0.0,-2.6418,-2.6313,0.0,-2.6313,-2.6313,-2.6313,-2.6394,-2.6621,-2.67,-2.6738,-2.6779,-2.6806,-2.6948,-2.7291,-2.7302,-2.7479,-2.7864,-2.8012,-2.807,-2.807,-2.8614,-2.8685,-2.8288,-2.8685,-2.8685,-2.8288,-2.8143,-2.807,-2.807,-2.7938,-2.7904,-2.7904,-2.7904,-2.7904,-2.7904,-2.7904,-2.7904,-2.7889,-2.8036,-2.8328,-2.8732,-2.925,-2.9538,-2.9687,-2.9687,-2.9792,-2.9896,-2.9896,-2.9896,-2.9896,-2.9896,-3.036,-3.105,-3.1778,-3.253,-3.3242,-3.3922,-3.4101,-3.4101,-3.4101,-3.4101,-3.4101,-3.4101,-3.4101,-3.4101,-3.4101,-3.4101,-3.4101,-3.4101,-3.4101,-3.4201,-3.4497,-3.4546,-3.4602,-3.4873,-3.4897,-3.4944,-3.5038,-3.5062,-3.5085,-3.5201,-3.5594,-3.5859,-3.5859,-3.6367,-3.6673,-3.6673,-3.6771,-3.6831,-3.6908,-3.6908,-3.7027,-3.722,-3.722,-3.7316,-3.7539,-3.8735,-3.8986,-2.5467,-2.5315,-2.5217,-2.5175,-2.5175,-2.5231,-2.5342,-2.4922,-2.4538,-2.4538,-2.5007,-2.5425,-2.5425,-2.5892,0.0,0.0,0.0,0.0,0.0,-2.6313,-2.6313,-2.6313,-2.6418,-2.6578,-2.6779,-2.6806,-2.6806,-2.6806,-2.6806,-2.6832,-2.6858,-2.7291,-2.754,-2.754,-2.8061,-2.8328,-2.8288,-2.8328,-2.8328,-2.8288,-2.7775,-2.754,-2.7515,-2.7063,-2.6858,-2.6858,-2.6858,-2.6858,-2.6858,-2.6858,-2.6858,-2.6896,-2.7352,-2.754,-2.7615,-2.8143,-2.8685,-2.9136,-2.9136,-2.947,-2.9896,-2.9896,-2.9896,-2.9896,-2.9896,-3.036,-3.105,-3.1778,-3.253,-3.3242,-3.3922,-3.4101,-3.4101,-3.4101,-3.4101,-3.4101,-3.4101,-3.4101,-3.4101,-3.4101,-3.4101,-3.4101,-3.4101,-3.4101,-3.4101,-3.4126,-3.4126,-3.4126,-3.4109,-3.4151,-3.4275,-3.4667,-3.4715,-3.4842,-3.5178,-3.5224,-3.5224,-3.5224,-3.5611,-3.5849,-3.5849,-3.6152,-3.6444,-3.6702,-3.6702,-3.6806,-3.7007,-3.7007,-3.7124,-3.7333,-3.7574,-3.7666,-2.6353,-2.619,-2.6041,-2.5947,-2.5852,-2.5797,-2.5743,-2.5328,-2.5077,-2.5481,-2.5467,-2.5495,-2.5825,-2.6029,0.0,0.0,0.0,0.0,0.0,-2.5784,-2.6056,-2.6165,-2.6299,-2.6433,-2.6592,-2.6604,-2.6645,-2.6779,-2.6806,-2.6806,-2.6806,-2.6948,-2.7037,-2.7037,-2.7504,-2.7615,-2.7306,-2.763,-2.7615,-2.7306,-2.7126,-2.7037,-2.7037,-2.6884,-2.6806,-2.6806,-2.6806,-2.6806,-2.6806,-2.6806,-2.6806,-2.6806,-2.6959,-2.7037,-2.7126,-2.7987,-2.8408,-2.8567,-2.8567,-2.8685,-2.8912,-2.925,-2.9364,-2.9505,-3.0335,-3.071,-3.1163,-3.2384,-3.2902,-3.3242,-3.3922,-3.4101,-3.4101,-3.4101,-3.4101,-3.4101,-3.4101,-3.4101,-3.4101,-3.4101,-3.4101,-3.4101,-3.4101,-3.4101,-3.4101,-3.4101,-3.4101,-3.4101,-3.4101,-3.4101,-3.4151,-3.43,-3.43,-3.4349,-3.4456,-3.4723,-3.4961,-3.5178,-3.5339,-3.5407,-3.5407,-3.5766,-3.6023,-3.6105,-3.6318,-3.6564,-3.6806,-3.6806,-3.6888,-3.7105,-3.7164,-3.7336,-2.6647,-2.6486,-2.6338,-2.6192,-2.5921,-2.5702,-2.5591,-2.5356,-2.5231,-2.5633,-2.5633,-2.5674,-2.5975,-2.6029,-2.5866,0.0,0.0,0.0,0.0,-2.5342,-2.5619,-2.5702,-2.6029,-2.6299,-2.6484,-2.651,-2.6578,-2.6779,-2.6806,-2.6806,-2.6806,-2.6806,-2.6806,-2.6806,-2.7074,-2.71,-2.6806,-2.71,-2.71,-2.6806,-2.6806,-2.6806,-2.6806,-2.6806,-2.6806,-2.6806,-2.6806,-2.6806,-2.6806,-2.6806,-2.6806,-2.6806,-2.6806,-2.6806,-2.6884,-2.7519,-2.7864,-2.8046,-2.8216,-2.8288,-2.8407,-2.8982,-2.9171,-2.9343,-3.0347,-3.0839,-3.1189,-3.189,-3.2472,-3.2943,-3.3363,-3.3613,-3.3841,-3.405,-3.4101,-3.4101,-3.4101,-3.4101,-3.4101,-3.4101,-3.4101,-3.4101,-3.4101,-3.4101,-3.4101,-3.4101,-3.4101,-3.4101,-3.4101,-3.4101,-3.4101,-3.4101,-3.4101,-3.4101,-3.4101,-3.4349,-3.4578,-3.4802,-3.4944,-3.5031,-3.5031,-3.5385,-3.5588,-3.5588,-3.581,-3.5985,-3.617,-3.6314,-3.6485,-3.6673,-3.6731,-3.6989]},{"header":{"parameterUnit":"m.s-1","parameterCategory":1,"la1":30.6,"la2":29.2853,"lo1":-89.7004,"lo2":-87.6739,"dy":0.0162,"dx":0.0183,"nx":112,"ny":82,"refTime":"2023-09-02T12:00:00:Z","depth":0,"parameterNumber":3,"parameterNumberName":"V-component_of_WINDS"},"data":[0.0,0.0,0.0,0.0,0.0,0.0,0.0,0.0,0.0,0.0,0.0,0.0,0.0,0.0,0.0,0.0,0.0,0.0,0.0,0.0,0.0,0.0,0.0,0.0,0.0,0.0,0.0,0.0,0.0,0.0,0.0,0.0,0.0,0.0,0.0,0.0,0.0,0.0,0.0,0.0,0.0,0.0,0.0,0.0,0.0,0.0,0.0,0.0,0.0,0.0,0.0,0.0,0.0,0.0,0.0,0.0,0.0,0.0,0.0,0.0,0.0,0.0,0.0,0.0,0.0,0.0,0.0,0.0,0.0,0.0,0.0,0.0,0.0,0.0,0.0,0.0,0.0,0.0,0.0,0.0,0.0,0.0,0.0,0.0,0.0,0.0,0.0,0.0,0.0,0.0,-1.428,-1.4186,-1.3776,-1.3539,-1.3586,-1.3539,-1.3729,-1.4233,0.0,0.0,0.0,0.0,0.0,0.0,0.0,0.0,0.0,0.0,0.0,0.0,0.0,0.0,0.0,0.0,0.0,0.0,0.0,0.0,0.0,0.0,0.0,0.0,0.0,0.0,0.0,0.0,0.0,0.0,0.0,0.0,0.0,0.0,0.0,0.0,0.0,0.0,0.0,0.0,0.0,0.0,0.0,0.0,0.0,0.0,0.0,0.0,0.0,0.0,0.0,0.0,0.0,0.0,0.0,0.0,0.0,0.0,0.0,0.0,0.0,0.0,0.0,0.0,0.0,0.0,0.0,0.0,0.0,0.0,0.0,0.0,0.0,0.0,0.0,0.0,0.0,0.0,0.0,0.0,0.0,0.0,0.0,0.0,0.0,0.0,0.0,0.0,0.0,0.0,0.0,0.0,0.0,0.0,0.0,0.0,0.0,0.0,0.0,0.0,0.0,0.0,0.0,0.0,-1.3732,-1.3256,-1.3136,-1.3242,-1.3563,-1.329,-1.3266,-1.3681,0.0,0.0,0.0,0.0,0.0,0.0,0.0,0.0,0.0,0.0,0.0,0.0,0.0,0.0,0.0,0.0,0.0,0.0,0.0,0.0,0.0,0.0,0.0,0.0,0.0,0.0,0.0,0.0,0.0,0.0,0.0,0.0,0.0,0.0,0.0,0.0,0.0,0.0,0.0,0.0,0.0,0.0,0.0,0.0,0.0,0.0,0.0,0.0,0.0,0.0,0.0,0.0,0.0,0.0,0.0,0.0,0.0,0.0,0.0,0.0,0.0,0.0,0.0,0.0,0.0,0.0,0.0,0.0,0.0,0.0,0.0,0.0,0.0,0.0,0.0,0.0,0.0,0.0,0.0,0.0,0.0,0.0,0.0,0.0,0.0,0.0,0.0,0.0,0.0,0.0,0.0,0.0,0.0,0.0,0.0,0.0,0.0,0.0,0.0,0.0,0.0,0.0,0.0,-1.4108,-1.4177,-1.3452,-1.358,-1.3787,-1.3958,-1.3383,-1.316,-1.3563,-1.3396,0.0,0.0,0.0,0.0,0.0,0.0,0.0,0.0,0.0,0.0,0.0,0.0,0.0,0.0,0.0,0.0,0.0,0.0,0.0,0.0,0.0,0.0,0.0,0.0,0.0,0.0,0.0,0.0,0.0,0.0,0.0,0.0,0.0,0.0,0.0,0.0,0.0,0.0,0.0,0.0,0.0,0.0,0.0,0.0,0.0,0.0,0.0,0.0,0.0,0.0,0.0,0.0,0.0,0.0,0.0,0.0,0.0,0.0,0.0,0.0,0.0,0.0,0.0,0.0,0.0,0.0,0.0,0.0,0.0,0.0,0.0,0.0,0.0,0.0,0.0,0.0,0.0,0.0,0.0,0.0,0.0,0.0,0.0,0.0,0.0,0.0,0.0,0.0,0.0,0.0,0.0,0.0,0.0,0.0,0.0,0.0,0.0,0.0,0.0,0.0,0.0,0.0,-1.3752,-1.4122,-1.3643,-1.3941,-1.4231,-1.4444,-1.3591,-1.3233,-1.3728,-1.3206,0.0,0.0,0.0,0.0,0.0,0.0,0.0,0.0,0.0,0.0,0.0,0.0,0.0,0.0,0.0,0.0,0.0,0.0,0.0,0.0,0.0,0.0,0.0,0.0,0.0,0.0,0.0,0.0,0.0,0.0,0.0,0.0,0.0,0.0,0.0,0.0,0.0,0.0,0.0,0.0,0.0,0.0,0.0,0.0,0.0,0.0,0.0,0.0,0.0,0.0,0.0,0.0,0.0,0.0,0.0,0.0,0.0,0.0,0.0,0.0,0.0,0.0,0.0,0.0,0.0,0.0,0.0,0.0,0.0,0.0,0.0,0.0,0.0,0.0,0.0,0.0,0.0,0.0,0.0,0.0,0.0,0.0,0.0,0.0,0.0,0.0,0.0,0.0,0.0,0.0,0.0,0.0,0.0,0.0,0.0,0.0,0.0,0.0,0.0,0.0,0.0,0.0,-1.2547,-1.2467,-1.3149,-1.3528,-1.4082,-1.4867,-1.3805,-1.3422,-1.4202,-1.3175,0.0,0.0,0.0,0.0,0.0,0.0,0.0,0.0,0.0,0.0,0.0,0.0,0.0,0.0,0.0,0.0,0.0,0.0,0.0,0.0,0.0,0.0,0.0,0.0,0.0,0.0,0.0,0.0,0.0,0.0,0.0,0.0,0.0,0.0,0.0,0.0,0.0,0.0,0.0,0.0,0.0,0.0,0.0,0.0,0.0,0.0,0.0,0.0,0.0,0.0,0.0,0.0,0.0,0.0,0.0,0.0,0.0,0.0,0.0,0.0,0.0,0.0,0.0,0.0,0.0,0.0,0.0,0.0,0.0,0.0,0.0,0.0,0.0,0.0,0.0,0.0,0.0,0.0,0.0,0.0,0.0,0.0,0.0,0.0,0.0,0.0,0.0,0.0,0.0,0.0,0.0,0.0,0.0,0.0,0.0,0.0,0.0,0.0,0.0,0.0,0.0,0.0,-1.288,-1.316,-1.2913,-1.3401,-1.3802,-1.3923,-1.3195,-1.2967,-1.3535,0.0,0.0,0.0,0.0,0.0,0.0,0.0,0.0,0.0,0.0,0.0,0.0,0.0,0.0,0.0,0.0,0.0,0.0,0.0,0.0,0.0,0.0,0.0,0.0,0.0,0.0,0.0,0.0,0.0,0.0,0.0,0.0,0.0,0.0,0.0,0.0,0.0,0.0,0.0,0.0,0.0,0.0,0.0,0.0,0.0,0.0,0.0,0.0,0.0,0.0,0.0,0.0,0.0,0.0,0.0,0.0,0.0,0.0,0.0,0.0,0.0,0.0,0.0,0.0,0.0,0.0,0.0,0.0,0.0,0.0,0.0,0.0,0.0,0.0,0.0,0.0,0.0,0.0,0.0,0.0,0.0,0.0,0.0,0.0,0.0,0.0,0.0,0.0,0.0,0.0,0.0,0.0,0.0,0.0,0.0,0.0,0.0,0.0,0.0,0.0,0.0,0.0,-1.2225,-1.2802,-1.3114,-1.2764,-1.3284,-1.3613,-1.3537,-1.2928,-1.2767,-1.3304,0.0,0.0,0.0,0.0,0.0,0.0,0.0,0.0,0.0,0.0,0.0,0.0,0.0,0.0,0.0,0.0,0.0,0.0,0.0,0.0,0.0,0.0,0.0,0.0,0.0,0.0,0.0,0.0,0.0,0.0,0.0,0.0,0.0,0.0,0.0,0.0,0.0,0.0,0.0,0.0,0.0,0.0,0.0,0.0,0.0,0.0,0.0,0.0,0.0,0.0,0.0,0.0,0.0,0.0,0.0,0.0,0.0,0.0,0.0,0.0,0.0,0.0,0.0,0.0,0.0,0.0,0.0,0.0,0.0,0.0,0.0,0.0,0.0,0.0,0.0,0.0,0.0,0.0,0.0,0.0,0.0,0.0,0.0,0.0,0.0,0.0,0.0,0.0,0.0,0.0,0.0,0.0,0.0,0.0,0.0,0.0,0.0,0.0,0.0,0.0,0.0,0.0,-1.2417,-1.1956,-1.1886,-1.2702,-1.3078,-1.3472,-1.3944,-1.3201,-1.2986,0.0,0.0,0.0,0.0,0.0,0.0,0.0,0.0,0.0,0.0,0.0,0.0,0.0,0.0,0.0,0.0,0.0,0.0,0.0,0.0,0.0,0.0,0.0,0.0,0.0,0.0,0.0,0.0,0.0,0.0,0.0,0.0,0.0,0.0,0.0,0.0,0.0,0.0,0.0,0.0,0.0,0.0,0.0,0.0,0.0,0.0,0.0,0.0,0.0,0.0,0.0,0.0,0.0,0.0,0.0,0.0,0.0,0.0,0.0,0.0,0.0,0.0,0.0,0.0,0.0,0.0,0.0,0.0,0.0,0.0,0.0,0.0,0.0,0.0,0.0,0.0,0.0,0.0,0.0,0.0,0.0,0.0,0.0,0.0,0.0,0.0,0.0,0.0,0.0,0.0,0.0,0.0,0.0,0.0,0.0,0.0,0.0,0.0,0.0,0.0,0.0,0.0,0.0,-1.1866,-1.172,-1.1697,-1.1919,-1.2236,-1.2421,-1.2313,-1.2288,-1.2354,-1.2597,0.0,0.0,0.0,0.0,0.0,0.0,0.0,0.0,0.0,0.0,0.0,0.0,0.0,0.0,0.0,0.0,0.0,0.0,0.0,0.0,0.0,0.0,0.0,0.0,0.0,0.0,0.0,0.0,0.0,0.0,0.0,0.0,0.0,0.0,0.0,0.0,0.0,0.0,0.0,0.0,0.0,0.0,0.0,0.0,0.0,0.0,0.0,0.0,0.0,0.0,0.0,0.0,0.0,0.0,0.0,0.0,0.0,0.0,0.0,0.0,0.0,0.0,0.0,0.0,0.0,0.0,0.0,0.0,0.0,0.0,0.0,0.0,0.0,0.0,0.0,0.0,0.0,0.0,0.0,0.0,0.0,0.0,0.0,0.0,0.0,0.0,0.0,0.0,0.0,0.0,0.0,0.0,0.0,0.0,0.0,0.0,0.0,0.0,0.0,0.0,0.0,0.0,-1.1632,-1.1591,-1.1591,-1.1591,-1.1778,-1.1809,-1.1622,-1.1778,-1.1972,-1.2089,0.0,0.0,0.0,0.0,0.0,0.0,0.0,0.0,0.0,0.0,0.0,0.0,0.0,0.0,0.0,0.0,0.0,0.0,0.0,0.0,0.0,0.0,0.0,0.0,0.0,0.0,0.0,0.0,0.0,0.0,0.0,0.0,0.0,0.0,0.0,0.0,0.0,0.0,0.0,0.0,0.0,0.0,0.0,0.0,0.0,0.0,0.0,0.0,0.0,0.0,0.0,0.0,0.0,0.0,0.0,0.0,0.0,0.0,0.0,0.0,0.0,0.0,0.0,0.0,0.0,0.0,0.0,0.0,0.0,0.0,0.0,0.0,0.0,0.0,0.0,0.0,0.0,0.0,0.0,0.0,0.0,0.0,0.0,0.0,0.0,0.0,0.0,0.0,0.0,0.0,0.0,0.0,0.0,0.0,0.0,0.0,0.0,0.0,0.0,0.0,0.0,0.0,-1.1591,-1.156,-1.1529,-1.1591,-1.1591,-1.1591,-1.1591,-1.1591,-1.1716,-1.1965,0.0,0.0,0.0,0.0,0.0,0.0,0.0,0.0,0.0,0.0,0.0,0.0,0.0,0.0,0.0,0.0,0.0,0.0,0.0,0.0,0.0,0.0,0.0,0.0,0.0,0.0,0.0,0.0,0.0,0.0,0.0,0.0,0.0,0.0,0.0,0.0,0.0,0.0,0.0,0.0,0.0,0.0,0.0,0.0,0.0,0.0,0.0,0.0,0.0,0.0,0.0,0.0,0.0,0.0,0.0,0.0,0.0,0.0,0.0,0.0,-0.4176,-0.4426,0.0,0.0,0.0,0.0,0.0,0.0,0.0,0.0,0.0,0.0,0.0,0.0,0.0,0.0,0.0,0.0,0.0,0.0,0.0,0.0,0.0,0.0,0.0,0.0,0.0,0.0,0.0,0.0,0.0,0.0,0.0,0.0,0.0,0.0,0.0,0.0,0.0,0.0,0.0,0.0,-1.156,-1.1216,-1.1122,-1.156,-1.1591,-1.1591,-1.1591,-1.1591,-1.1435,-1.109,-1.1083,0.0,0.0,0.0,0.0,0.0,0.0,0.0,0.0,0.0,0.0,0.0,0.0,0.0,0.0,0.0,0.0,0.0,0.0,0.0,0.0,0.0,0.0,0.0,0.0,0.0,0.0,0.0,0.0,0.0,0.0,0.0,0.0,0.0,0.0,0.0,0.0,0.0,0.0,0.0,0.0,0.0,0.0,0.0,0.0,0.0,0.0,0.0,0.0,0.0,0.0,0.0,0.0,0.0,0.0,0.0,0.0,0.0,0.0,0.0,-0.3566,-0.3923,0.0,0.0,0.0,0.0,0.0,0.0,0.0,0.0,0.0,0.0,0.0,0.0,0.0,0.0,0.0,0.0,0.0,0.0,0.0,0.0,0.0,0.0,0.0,0.0,0.0,0.0,0.0,0.0,0.0,0.0,0.0,0.0,0.0,0.0,0.0,0.0,0.0,0.0,0.0,0.0,-1.1185,-1.0762,-1.0636,-1.1146,-1.1216,-1.131,-1.1591,-1.1373,-1.109,-1.0839,-1.0573,0.0,0.0,0.0,0.0,0.0,0.0,0.0,0.0,0.0,0.0,0.0,0.0,0.0,0.0,0.0,0.0,0.0,0.0,0.0,0.0,0.0,0.0,0.0,0.0,0.0,0.0,0.0,0.0,0.0,0.0,0.0,0.0,0.0,0.0,0.0,0.0,0.0,0.0,0.0,0.0,0.0,0.0,0.0,0.0,0.0,0.0,0.0,0.0,0.0,0.0,0.0,0.0,0.0,-0.2448,-0.2454,-0.2838,-0.2838,-0.262,-0.2304,-0.2939,-0.331,-0.3434,-0.3637,0.0,0.0,0.0,0.0,0.0,0.0,0.0,0.0,0.0,0.0,0.0,0.0,0.0,0.0,0.0,0.0,0.0,0.0,0.0,0.0,0.0,0.0,-0.6729,-0.7245,-0.7119,-0.7023,-0.7476,0.0,0.0,0.0,0.0,0.0,0.0,0.0,0.0,0.0,0.0,0.0,-1.0579,-1.0155,-1.0091,-1.0604,-1.0674,-1.0832,-1.1272,-1.0926,-1.0643,-1.0548,-1.0123,-0.9894,0.0,0.0,0.0,0.0,0.0,0.0,0.0,0.0,0.0,0.0,0.0,0.0,0.0,0.0,0.0,0.0,0.0,0.0,0.0,0.0,0.0,0.0,0.0,0.0,0.0,0.0,0.0,0.0,0.0,0.0,0.0,0.0,0.2645,0.2039,0.0,0.0,0.0,0.0,0.0,0.0,0.0,0.0,0.0,0.0,0.0,0.0,0.0,-0.0154,-0.0831,-0.1017,-0.1312,-0.1728,-0.1378,-0.1267,-0.1362,-0.1362,-0.1329,-0.1293,-0.1637,0.0,-0.2641,-0.2671,0.0,0.0,0.0,0.0,0.0,0.0,0.0,0.0,0.0,0.0,0.0,0.0,0.0,0.0,0.0,0.0,0.0,0.0,0.0,0.0,0.0,0.0,-0.6295,-0.6358,-0.6421,-0.6506,-0.6571,-0.7567,-0.8468,-0.859,-0.889,-0.9229,0.0,0.0,0.0,0.0,0.0,0.0,-0.9646,-0.9524,-0.9588,-1.0053,-1.0117,-1.0117,-1.0212,-1.0148,-0.9932,-0.9524,-0.9428,-0.9396,-0.9396,-0.946,0.0,0.0,0.0,0.0,0.0,0.0,0.0,0.0,0.0,0.0,0.0,0.0,0.0,0.0,0.0,0.0,0.0,0.0,0.0,0.0,0.0,0.0,0.0,0.0,0.0,0.0,0.0,0.0,0.0,0.2988,0.231,0.2034,0.2002,0.2002,0.0,0.0,0.0,0.0,0.0,0.0,0.0,0.0,0.0,0.1294,0.0842,0.0461,0.0136,-0.0306,-0.0615,-0.0761,-0.1004,-0.1114,-0.1162,-0.1162,-0.1162,-0.1161,-0.1287,-0.1511,-0.179,-0.2056,-0.2299,-0.2523,0.0,0.0,0.0,0.0,-0.2652,-0.262,-0.2392,-0.2295,-0.236,-0.2648,0.0,0.0,0.0,0.0,0.0,0.0,0.0,-0.4708,-0.4897,-0.5167,-0.5412,-0.5412,-0.5465,-0.5514,-0.5514,-0.6237,-0.7108,-0.7911,-0.818,-0.8479,-0.9122,-0.9224,0.0,0.0,0.0,-0.8689,-0.8748,-0.8657,-0.8753,-0.9218,-0.948,-0.9709,-0.999,-0.9767,-0.9524,-0.9306,-0.9022,-0.8861,-0.8861,-0.9145,-0.9498,0.0,0.0,0.0,0.0,0.0,0.0,0.0,0.0,0.0,0.0,0.0,0.0,0.0,0.0,0.0,0.0,0.0,0.0,0.0,0.0,0.0,0.0,0.0,0.0,0.0,0.0,0.0,0.0,0.2447,0.2051,0.2051,0.2051,0.2051,0.0,0.0,0.0,0.0,0.0,0.0,0.2064,0.1742,0.1545,0.1544,0.1133,0.0911,0.0911,0.0328,0.0037,0.0037,-0.0478,-0.0813,-0.0966,-0.0966,-0.1078,-0.1226,-0.1218,-0.1215,-0.1243,-0.1574,-0.1764,-0.1798,-0.1798,-0.1855,-0.1959,-0.1959,-0.1959,-0.189,-0.1614,-0.147,-0.1529,-0.1935,-0.2127,-0.2316,-0.2982,0.0,0.0,0.0,0.0,-0.4187,-0.4519,-0.4683,-0.4815,-0.4815,-0.4815,-0.4815,-0.4815,-0.5216,-0.591,-0.6957,-0.7284,-0.7609,-0.8318,-0.8447,0.0,-0.8527,-0.8282,-0.805,-0.8039,-0.8021,-0.8149,-0.8497,-0.8871,-0.9242,-0.9524,-0.9335,-0.915,-0.9087,-0.8705,-0.8517,-0.8517,-0.8894,-0.9145,-0.9306,0.0,0.0,0.0,0.0,0.0,0.0,0.0,0.0,0.0,0.0,0.0,0.0,0.0,0.0,0.0,0.0,0.0,0.0,0.0,0.0,0.0,0.0,0.0,0.0,0.0,0.0,0.0,0.0,0.0,0.2178,0.2178,0.0,0.0,0.0,0.0,0.2191,0.2196,0.2221,0.2277,0.2281,0.2248,0.2253,0.1744,0.1454,0.1459,0.0911,0.0664,0.0642,0.0604,0.0268,-0.0352,-0.0352,-0.0704,-0.129,-0.1222,-0.1209,-0.1207,-0.1208,-0.123,-0.1232,-0.1232,-0.1233,-0.1235,-0.1235,-0.1235,-0.1235,-0.1235,-0.1179,-0.1119,-0.1153,-0.1374,-0.1648,-0.1681,-0.1983,0.0,0.0,-0.3153,-0.362,-0.3959,-0.4422,-0.4815,-0.4815,-0.4815,-0.4815,-0.4815,-0.5216,-0.5617,-0.5679,-0.6115,-0.6585,-0.6946,0.0,-0.707,-0.7251,-0.755,-0.7697,-0.754,-0.7805,-0.8007,-0.8042,-0.8398,-0.8568,-0.8399,-0.871,-0.8815,-0.856,-0.8511,-0.8517,-0.8517,-0.8517,-0.877,-0.9306,-0.9338,0.0,0.0,0.0,0.0,0.0,0.0,0.0,0.0,0.0,0.0,0.0,0.0,0.0,0.0,0.0,0.0,0.0,0.0,0.0,0.0,0.0,0.0,0.0,0.0,0.0,0.0,0.0,0.0,0.2246,0.2247,0.0,0.2271,0.2271,0.2279,0.2265,0.2268,0.2276,0.2297,0.2299,0.2315,0.2351,0.2165,0.2107,0.214,0.1567,0.1266,0.1277,0.0853,0.0506,0.0275,0.0275,0.0157,-0.0078,-0.0467,-0.062,-0.0658,-0.1075,-0.1239,-0.1203,-0.1203,-0.1203,-0.1203,-0.1203,-0.1203,-0.1203,-0.1203,-0.1196,-0.1151,-0.1151,-0.125,-0.1347,-0.1347,-0.1453,-0.1631,-0.1949,-0.2196,-0.2469,-0.3013,-0.3385,-0.3624,-0.3841,-0.3948,-0.3963,-0.3963,-0.438,-0.4763,-0.4763,-0.5765,-0.6657,-0.6914,-0.6969,-0.6994,-0.7057,-0.7171,-0.7232,-0.7193,-0.7482,-0.7659,-0.7659,-0.8009,-0.8192,-0.8115,-0.8245,-0.8226,-0.8014,-0.797,-0.8039,-0.816,-0.8182,-0.8376,-0.877,-0.8797,-0.9049,0.0,0.0,0.0,0.0,0.0,0.0,0.0,0.0,0.0,0.0,0.0,0.0,0.0,0.0,0.0,0.0,0.0,0.0,0.0,0.0,0.0,0.0,0.0,0.0,0.0,0.335,0.2774,0.2308,0.2275,0.2299,0.2299,0.2299,0.2307,0.2326,0.2327,0.2335,0.2356,0.2356,0.2374,0.2448,0.247,0.25,0.2541,0.2143,0.1944,0.1944,0.1457,0.1139,0.0942,0.0942,0.0825,0.0589,0.0196,0.0,-0.0039,-0.0471,-0.0617,-0.0636,-0.1047,-0.1234,-0.1234,-0.1234,-0.1234,-0.1233,-0.1222,-0.1182,-0.1217,-0.1206,-0.1203,-0.1203,-0.1203,-0.1203,-0.1276,-0.1604,-0.1714,-0.1815,-0.2387,-0.2587,-0.2754,-0.3137,-0.3275,-0.3352,-0.3463,-0.3928,-0.4333,-0.4371,-0.5357,-0.6281,-0.6611,-0.6666,-0.6757,-0.7033,-0.7082,-0.7102,-0.7159,-0.735,-0.75,-0.75,-0.782,-0.8006,-0.7897,-0.8179,-0.82,-0.7817,-0.7946,-0.7957,-0.791,-0.8032,-0.8202,-0.8427,-0.8564,-0.8848,-0.9306,0.0,0.0,0.0,0.0,0.0,0.0,0.0,0.0,0.0,0.0,0.0,0.0,0.0,0.0,0.0,0.0,0.0,0.0,0.0,0.0,0.0,0.0,0.0,0.4896,0.3913,0.3115,0.2439,0.2339,0.2341,0.2307,0.2307,0.233,0.2386,0.2428,0.2454,0.2514,0.2516,0.2516,0.2516,0.2574,0.2604,0.2604,0.2604,0.2604,0.2604,0.2544,0.2201,0.1649,0.1649,0.1297,0.0669,0.063,0.063,0.063,0.063,0.0591,0.0472,-0.0747,-0.1257,-0.1257,-0.1257,-0.1257,-0.1253,-0.1224,-0.1175,-0.1132,-0.1179,-0.1206,-0.1169,-0.1206,-0.1206,-0.1279,-0.1608,-0.1681,-0.1754,-0.2114,-0.2187,-0.2297,-0.2771,-0.2881,-0.2994,-0.3398,-0.3903,-0.4327,-0.455,-0.4851,-0.5273,-0.5892,-0.6,-0.627,-0.7023,-0.7158,0.0,-0.7421,-0.7446,-0.7446,-0.7484,-0.7834,-0.7947,-0.7714,-0.8475,-0.8674,-0.8028,-0.8337,-0.8284,-0.7723,-0.8059,-0.8287,-0.8295,-0.8677,-0.8997,-0.9306,0.0,0.0,0.0,0.0,0.0,0.0,0.0,0.0,0.0,0.0,0.0,0.0,0.0,0.0,0.0,0.0,0.0,0.0,0.0,0.0,0.0,0.7868,0.7279,0.6121,0.5463,0.4664,0.3475,0.3341,0.317,0.2563,0.2529,0.2553,0.2613,0.2617,0.2624,0.2642,0.2643,0.2643,0.2643,0.2658,0.2668,0.2668,0.2668,0.2668,0.2668,0.265,0.2559,0.2394,0.2394,0.2312,0.2106,0.161,0.1403,0.1362,0.0907,0.0742,0.0699,0.0239,0.0079,0.0079,0.0079,0.0079,-0.0039,-0.0975,-0.0661,-0.0039,-0.0964,-0.0962,-0.0654,-0.1117,-0.1271,-0.1309,-0.1386,-0.1425,-0.1458,-0.177,-0.1897,-0.2066,-0.2442,-0.2581,-0.2731,-0.3118,-0.3308,-0.3544,-0.3953,-0.409,-0.449,-0.5515,-0.5705,-0.5793,-0.6023,-0.603,-0.6043,-0.6121,-0.6125,-0.6321,-0.6791,-0.6949,-0.7157,-0.7525,-0.7787,-0.7785,-0.7453,-0.7513,-0.7577,-0.7557,-0.7513,-0.7702,-0.8078,-0.8177,-0.8598,0.0,0.0,0.0,0.0,0.0,0.0,0.0,0.0,0.0,0.0,0.0,0.0,0.0,0.0,0.0,0.0,0.0,0.0,0.0,0.0,0.0,0.0,0.8309,0.8105,0.7501,0.6735,0.5828,0.4622,0.4246,0.3847,0.3289,0.2884,0.2654,0.2689,0.2692,0.2692,0.2692,0.2692,0.2692,0.2692,0.2717,0.273,0.273,0.273,0.273,0.273,0.2704,0.2692,0.2692,0.2692,0.2692,0.2692,0.2271,0.2102,0.2102,0.1723,0.1597,0.1549,0.0,0.0,0.0,0.0,0.0589,0.051,-0.0236,0.0,0.0471,-0.0275,-0.0236,0.0,-0.0393,-0.051,-0.055,-0.0825,-0.0864,-0.0979,-0.1429,-0.1593,-0.176,-0.2118,-0.2367,-0.2628,-0.3023,-0.3102,-0.3258,-0.3724,-0.3645,0.0,-0.4693,-0.5043,-0.5315,-0.5544,-0.5583,-0.5583,-0.5583,-0.5583,-0.5741,-0.6131,-0.617,-0.6325,-0.6668,-0.6861,0.0,0.0,0.0,-0.7323,-0.7577,-0.7456,0.0,0.0,0.0,-0.8177,-0.8759,-0.8759,0.0,0.0,-0.973,-1.019,0.0,0.0,0.0,0.0,0.0,0.0,0.0,0.0,0.0,0.0,0.0,0.0,0.0,0.0,0.0,0.0,0.8902,0.8955,0.878,0.7847,0.6823,0.5792,0.5043,0.4446,0.4082,0.329,0.2789,0.2713,0.2713,0.2713,0.2713,0.2713,0.0,0.0,0.0,0.2793,0.2793,0.2793,0.2793,0.2793,0.2738,0.2713,0.2713,0.2713,0.2713,0.2713,0.2713,0.2713,0.2713,0.2713,0.2709,0.2612,0.1398,0.0937,0.0894,0.0755,0.0749,0.0788,0.0668,0.0,0.0,0.0628,0.0667,0.0707,0.0628,0.0589,0.0471,-0.0039,-0.0196,-0.0353,-0.0943,-0.1139,-0.1296,-0.1648,-0.204,-0.2472,-0.2865,-0.2982,-0.31,-0.3606,-0.3335,-0.3178,-0.3724,-0.4231,-0.4776,-0.5312,-0.5389,-0.5389,-0.5389,-0.5389,-0.5428,-0.5506,-0.5506,0.0,-0.5583,-0.5931,-0.597,-0.5622,-0.6549,-0.7239,-0.7545,-0.7536,-0.7597,-0.7641,-0.7709,-0.7808,-0.7954,-0.7987,-0.8149,-0.8479,-0.939,-1.0123,0.0,0.0,0.0,0.0,0.0,0.0,0.0,0.0,0.0,0.0,0.0,0.0,0.0,0.0,0.0,0.893,0.8957,0.9042,0.9161,0.9128,0.8371,0.6452,0.564,0.4814,0.3703,0.3452,0.3217,0.2879,0.2839,0.2839,0.2839,0.2839,0.2839,0.2839,0.2895,0.2902,0.2902,0.2902,0.2902,0.2902,0.2889,0.0,0.2839,0.2839,0.2839,0.2839,0.2839,0.2839,0.2839,0.2839,0.2809,0.2759,0.2445,0.2298,0.2249,0.1709,0.1776,0.2054,0.0988,0.1256,0.1961,0.0942,0.0981,0.1294,0.0746,0.0589,0.0,0.0471,0.0432,0.0393,0.0275,-0.0118,-0.051,-0.0589,-0.1099,-0.1649,-0.204,-0.2117,-0.2353,-0.31,-0.2904,-0.2863,-0.3645,-0.388,-0.3997,-0.4114,-0.4151,-0.4151,-0.4151,-0.4151,-0.4345,-0.4815,-0.4893,-0.5085,-0.5544,-0.5661,-0.5699,-0.5622,-0.6282,-0.6676,-0.6585,-0.704,-0.7269,-0.73,-0.7296,-0.74,-0.7591,-0.7857,-0.8019,-0.8117,-0.8571,-0.9081,0.0,0.0,0.0,0.0,0.0,0.0,0.0,0.0,0.0,0.0,0.0,0.8732,0.8845,0.0,0.893,0.9098,0.9225,0.9329,0.9428,0.9324,0.8905,0.796,0.7246,0.6377,0.5272,0.5012,0.4597,0.3673,0.3942,0.3898,0.3275,0.3262,0.319,0.2961,0.2961,0.2961,0.2961,0.2933,0.292,0.292,0.292,0.292,0.292,0.292,0.292,0.292,0.292,0.292,0.292,0.292,0.29,0.2826,0.2796,0.2747,0.2646,0.2325,0.2398,0.2555,0.1852,0.2037,0.2431,0.1773,0.1765,0.1999,0.1648,0.1569,0.1491,0.1177,0.1099,0.102,0.0667,0.0393,0.0157,0.0157,-0.0471,-0.1137,-0.1372,-0.1646,-0.2078,-0.2668,-0.247,-0.2392,-0.3059,-0.3333,-0.353,-0.3765,-0.3802,-0.3802,-0.3802,-0.3802,-0.3919,-0.4231,-0.4231,-0.4387,-0.4654,-0.4693,-0.481,-0.5124,-0.5476,-0.5909,-0.6442,-0.663,-0.6878,-0.7206,-0.7021,-0.7082,-0.7345,-0.7414,-0.7563,-0.7754,-0.8084,-0.8635,0.0,0.0,0.0,0.0,0.0,0.0,0.0,0.0,0.8765,0.8765,0.8798,0.8874,0.9009,0.9042,0.9108,0.931,0.9489,0.9616,0.9658,0.9363,0.9187,0.9431,0.8671,0.7786,0.6953,0.6681,0.603,0.4855,0.5302,0.5265,0.4303,0.4145,0.3949,0.3575,0.3529,0.3438,0.3161,0.3249,0.3179,0.2954,0.2954,0.2954,0.2954,0.2954,0.2954,0.2954,0.2954,0.2947,0.2935,0.2935,0.2929,0.292,0.292,0.2813,0.2726,0.2714,0.271,0.2702,0.264,0.2619,0.261,0.2561,0.2546,0.2544,0.2531,0.2527,0.2406,0.1923,0.1763,0.1647,0.1099,0.0864,0.0785,0.0785,0.0078,-0.0627,-0.0627,-0.1019,-0.1529,-0.1921,-0.1803,-0.1764,-0.2235,-0.2628,-0.3061,-0.3569,-0.3724,-0.3802,-0.3802,-0.3802,-0.3802,-0.3802,-0.3802,-0.3802,-0.3802,-0.3802,-0.3997,-0.4504,-0.4623,-0.5165,-0.6173,-0.6208,-0.6428,-0.6998,-0.6762,-0.6808,-0.7142,-0.7024,-0.7131,-0.7452,-0.7774,-0.8306,0.8703,0.8703,0.8703,0.8703,0.8703,0.8703,0.0,0.0,0.8948,0.8948,0.9089,0.9221,0.9244,0.9249,0.9319,0.9531,0.9587,0.9667,0.9937,0.9893,0.9898,0.9923,0.8703,0.7654,0.7122,0.7034,0.6862,0.6442,0.6497,0.6597,0.6625,0.5946,0.5531,0.5484,0.5484,0.4922,0.3794,0.444,0.4201,0.3077,0.3077,0.3077,0.3077,0.3077,0.3077,0.3077,0.3077,0.3045,0.2996,0.2996,0.2964,0.292,0.292,0.291,0.2892,0.2793,0.2773,0.2764,0.2703,0.2681,0.2681,0.2674,0.2672,0.2661,0.2608,0.2591,0.2579,0.2447,0.2392,0.2392,0.2314,0.1882,0.1489,0.1489,0.0941,0.0432,0.0432,0.0393,0.0196,-0.0196,-0.0392,-0.0746,-0.1568,-0.1882,-0.2314,-0.3061,-0.353,-0.3802,-0.3802,-0.3802,-0.3802,-0.3802,-0.3802,-0.3802,-0.3802,-0.3802,-0.3841,-0.388,-0.4387,-0.4779,-0.4896,-0.5419,-0.5889,-0.6399,-0.636,-0.6565,-0.7026,-0.7117,-0.7192,-0.7256,-0.7447,-0.7754,0.8703,0.8703,0.8732,0.0,0.8888,0.8921,0.9039,0.9094,0.9159,0.9159,0.9225,0.9319,0.9446,0.947,0.9536,0.979,0.9823,0.9856,0.998,0.9994,0.9994,0.9994,0.957,0.8968,0.8237,0.8633,0.8592,0.7664,0.802,0.8055,0.752,0.713,0.684,0.6553,0.6553,0.6314,0.5787,0.6052,0.564,0.4653,0.4653,0.4468,0.4049,0.4049,0.4049,0.4001,0.3713,0.3553,0.3479,0.3199,0.3044,0.3018,0.2983,0.2969,0.2961,0.2902,0.2837,0.2827,0.2766,0.2745,0.2738,0.2703,0.2692,0.2687,0.2662,0.2654,0.2649,0.2624,0.2616,0.2616,0.2616,0.2387,0.2162,0.2162,0.1664,0.1176,0.1176,0.0863,0.055,0.0392,0.0275,0.0118,-0.0275,-0.0862,-0.145,-0.1763,-0.2705,-0.3374,-0.3374,-0.3645,-0.3802,-0.3802,-0.3802,-0.3802,-0.3802,-0.3802,-0.3802,-0.3802,-0.4036,-0.4348,-0.4701,-0.4932,-0.533,-0.5882,-0.5805,-0.603,-0.6591,-0.6532,-0.6646,-0.6928,-0.7211,-0.7347,0.8774,0.0,0.0,0.9014,0.9065,0.9103,0.9249,0.9329,0.9371,0.9371,0.946,0.9545,0.97,0.9729,0.9776,0.9971,0.9994,0.9994,0.9994,1.0047,1.0085,1.0085,1.027,1.0111,0.942,0.9989,0.9967,0.9008,0.955,0.9545,0.8788,0.8523,0.8247,0.7907,0.7907,0.7709,0.7368,0.7503,0.7117,0.6165,0.6165,0.5883,0.5365,0.5172,0.5092,0.5068,0.4409,0.4159,0.4155,0.3703,0.354,0.352,0.3328,0.3261,0.3254,0.3147,0.3114,0.309,0.3043,0.3025,0.2974,0.2799,0.2743,0.2738,0.2722,0.2718,0.2714,0.2698,0.2692,0.2692,0.2692,0.2659,0.2627,0.2627,0.2268,0.1916,0.1864,0.1505,0.1147,0.114,0.0981,0.0863,0.0863,0.0118,-0.047,-0.047,-0.1489,-0.2431,-0.2865,-0.3335,-0.3608,-0.3608,-0.3724,-0.3802,-0.3802,-0.3802,-0.3802,-0.3802,-0.3802,-0.3997,-0.4426,-0.4467,-0.4735,-0.5354,-0.5266,-0.5522,-0.6119,-0.6082,-0.6244,-0.6589,-0.6986,-0.7061,0.8959,0.8976,0.9023,0.9225,0.9272,0.9277,0.9282,0.9442,0.9592,0.9592,0.9795,0.9975,0.9985,0.9985,0.9985,0.9994,0.9994,0.9994,0.9994,1.0175,1.0308,1.0308,1.0488,1.056,1.0556,1.056,1.065,1.0811,1.0834,1.0924,1.1068,1.035,0.9912,0.9912,0.9912,0.9312,0.7965,0.8742,0.8492,0.7161,0.7161,0.7161,0.7111,0.6318,0.603,0.6128,0.5166,0.4826,0.487,0.473,0.4647,0.4621,0.4089,0.385,0.3842,0.3723,0.3651,0.3587,0.3585,0.3583,0.3494,0.3047,0.2913,0.2902,0.2798,0.2781,0.2767,0.2709,0.2692,0.2692,0.2692,0.2691,0.2689,0.2689,0.2688,0.2629,0.257,0.2558,0.25,0.2443,0.196,0.1568,0.1568,0.102,0.055,0.055,0.0196,-0.0666,-0.2314,-0.2865,-0.3102,-0.3102,-0.353,-0.3802,-0.3802,-0.3802,-0.3802,-0.3802,-0.3802,-0.3802,-0.3841,-0.3841,-0.4114,-0.4701,-0.4735,-0.5002,-0.5616,-0.6088,-0.6311,-0.6341,-0.6805,-0.7011,0.9119,0.9079,0.9235,0.9442,0.9493,0.9531,0.971,0.9795,0.9852,0.9852,0.9795,0.979,0.9971,0.9838,0.9795,0.9971,0.9994,0.9994,0.9994,1.018,1.0317,1.0317,1.0579,1.0787,1.0787,1.0787,1.0816,1.0891,1.1019,1.1123,1.1194,1.0949,1.0801,1.0801,1.0801,1.06,1.0154,1.0395,1.0051,0.9069,0.852,0.8273,0.8273,0.7975,0.7902,0.7852,0.6737,0.6204,0.6084,0.5269,0.4826,0.4741,0.4532,0.4411,0.445,0.4746,0.4833,0.4741,0.4252,0.3853,0.3587,0.3409,0.3141,0.2915,0.2895,0.2888,0.2884,0.2819,0.2813,0.2813,0.2813,0.2783,0.2752,0.2752,0.2722,0.2687,0.2666,0.2661,0.2655,0.2635,0.2436,0.2249,0.2249,0.1704,0.1099,0.0667,-0.0078,-0.0901,-0.1803,-0.2353,-0.2787,-0.3062,-0.3258,-0.3452,-0.3763,-0.3802,-0.3802,-0.3802,-0.3802,-0.3802,-0.3802,-0.3802,-0.388,-0.4114,-0.4114,-0.4387,-0.5007,-0.5162,-0.5401,-0.5725,-0.6268,-0.6481,0.9406,0.9301,0.9446,0.97,0.9757,0.979,0.9966,0.9937,0.9842,0.9842,0.9677,0.9526,0.97,0.962,0.9559,0.9809,0.9842,0.9909,0.9985,1.0246,1.0426,1.0426,1.0749,1.1005,1.1005,1.1005,1.1005,1.1005,1.1123,1.1194,1.1194,1.1194,1.1194,1.1194,1.1194,1.1194,1.1194,1.1194,1.0949,1.0408,0.9912,0.9661,0.9661,0.9369,0.9256,0.9264,0.8208,0.7715,0.763,0.6799,0.6259,0.5884,0.5572,0.5286,0.5031,0.5326,0.5434,0.5363,0.4864,0.4489,0.4209,0.3999,0.3582,0.3219,0.315,0.3053,0.292,0.292,0.292,0.292,0.292,0.2889,0.2815,0.2815,0.2786,0.2751,0.2729,0.2725,0.2718,0.2696,0.2661,0.2634,0.2634,0.226,0.1827,0.1391,0.0552,-0.0274,-0.1019,-0.1607,-0.2117,-0.2628,-0.2787,-0.3022,-0.3294,-0.3452,-0.3569,-0.3569,-0.3724,-0.3802,-0.3802,-0.3802,-0.3802,-0.3802,-0.3802,-0.3997,-0.4389,-0.4582,-0.4856,-0.5161,-0.5761,-0.6125,0.9785,0.9653,0.9663,0.9947,0.9994,0.9994,0.998,0.9786,0.9602,0.9587,0.9455,0.9349,0.0,0.0,0.942,0.9592,0.9639,0.9672,0.9952,1.0341,1.0607,0.0,0.0,0.0,0.0,0.0,1.1194,1.1194,1.1194,1.1194,1.1194,1.1194,1.1194,1.1194,1.1194,1.1194,1.1194,1.1194,1.1194,1.1194,1.1194,1.1194,1.1145,1.0413,1.0112,1.0222,0.9474,0.9259,0.9339,0.9185,0.8663,0.7884,0.7184,0.6431,0.5772,0.5677,0.5642,0.5579,0.5523,0.5481,0.5313,0.4749,0.4214,0.3832,0.3666,0.3283,0.2924,0.2924,0.2921,0.292,0.292,0.292,0.292,0.292,0.292,0.2903,0.2801,0.2788,0.2771,0.2713,0.2699,0.2696,0.2694,0.2644,0.2606,0.2606,0.2074,0.1217,-0.0039,-0.0549,-0.1058,-0.1724,-0.2156,-0.2431,-0.247,-0.2826,-0.3062,-0.3062,-0.3491,-0.3765,-0.3765,-0.3802,-0.3802,-0.3802,-0.3802,-0.3802,-0.3802,-0.4389,-0.4662,-0.4659,-0.5276,-0.5896,1.0845,1.0301,0.9928,0.998,0.9994,0.9952,0.9757,0.9644,0.9559,0.9399,0.9676,1.001,0.0,0.0,0.0,1.0253,0.991,0.0,0.9677,1.0088,0.0,1.0602,0.0,1.1033,1.1179,1.1194,1.1194,1.1194,1.1194,1.1194,1.1194,1.1194,1.1194,1.1194,1.1194,1.1194,1.1194,1.1194,1.1194,1.1194,1.1194,1.1194,1.1194,1.0998,1.0927,1.0942,1.0374,1.0133,1.0004,0.9471,0.9072,0.8744,0.8435,0.8177,0.7971,0.7987,0.7579,0.7078,0.7045,0.6327,0.5374,0.5204,0.4868,0.4393,0.3944,0.3714,0.3489,0.3075,0.2951,0.292,0.292,0.292,0.292,0.292,0.292,0.2914,0.2899,0.2896,0.2891,0.2831,0.279,0.2745,0.27,0.268,0.2669,0.2669,0.2495,0.2041,0.1218,0.0588,0.0039,-0.0431,-0.0979,-0.145,-0.1803,-0.2353,-0.2668,-0.2668,-0.3061,-0.3295,-0.3295,-0.3608,-0.3802,-0.3802,-0.3802,-0.3802,-0.3802,-0.3958,-0.4036,-0.4036,-0.4659,-0.501,1.1427,1.0883,1.0467,1.0081,0.9928,0.9871,1.0085,0.9995,0.9938,1.0162,1.0423,1.0649,1.074,1.039,1.0147,0.0,0.0,0.0,0.9592,1.0008,1.0348,0.0,1.0764,0.0,1.1175,1.1194,1.1194,1.1194,1.1194,1.1194,1.1194,1.1194,1.1194,1.1194,1.1194,1.1194,1.1194,1.1194,1.1194,1.1194,1.1194,1.1194,1.1194,1.1194,1.1194,1.1217,1.1123,1.1026,1.0937,1.0663,1.0212,0.9725,0.9547,0.9187,0.8825,0.8825,0.8528,0.8127,0.8127,0.7331,0.6279,0.5941,0.5497,0.5008,0.4676,0.4393,0.4124,0.3842,0.3694,0.3592,0.3592,0.3389,0.3187,0.3187,0.3053,0.292,0.292,0.292,0.292,0.292,0.2892,0.2812,0.2778,0.2749,0.2732,0.2732,0.268,0.2496,0.2077,0.146,0.0824,0.0314,-0.0039,-0.047,-0.098,-0.149,-0.1921,-0.2235,-0.2628,-0.2904,-0.3102,-0.3335,-0.3608,-0.3802,-0.3802,-0.3802,-0.3802,-0.3802,-0.3802,-0.3802,-0.4153,-0.4465,1.2031,1.158,1.1278,1.0549,1.0133,1.0134,1.0845,1.0694,1.0595,1.1289,1.1376,1.1298,1.1298,1.07,1.0284,1.0451,0.0,0.9601,0.9694,1.0072,1.0417,1.0588,1.074,1.0943,1.1175,1.1194,1.1194,1.1194,1.1194,1.1194,1.1194,1.1194,1.1194,1.1194,1.1194,1.1194,1.1194,1.1194,1.1194,1.1194,1.1194,1.1194,1.1194,1.1194,1.1194,1.1217,1.1638,1.1817,1.1836,1.1996,1.1608,1.0802,1.0527,0.9937,0.9153,0.913,0.9072,0.8973,0.8973,0.8425,0.7611,0.6764,0.6143,0.5686,0.5494,0.5124,0.4782,0.4732,0.4618,0.4547,0.4547,0.4114,0.3737,0.3737,0.3326,0.3008,0.3008,0.2963,0.292,0.292,0.292,0.292,0.292,0.283,0.2796,0.2796,0.2744,0.2685,0.2632,0.2123,0.1495,0.0903,0.0785,0.051,0.0,-0.051,-0.1058,-0.1647,-0.2156,-0.2589,-0.2943,-0.2982,-0.3217,-0.3606,-0.3684,-0.3724,-0.3724,-0.3763,-0.3802,-0.3802,-0.3802,-0.4075,1.3698,1.3069,1.2419,1.2248,1.1983,1.1787,1.193,1.1676,0.0,0.0,1.2022,1.2342,1.2342,1.2077,1.1905,1.1919,1.1433,1.0869,1.039,1.0543,1.0684,0.0,1.0654,1.0778,1.1156,1.1194,0.0,1.1194,1.1194,1.1194,1.1194,1.1194,1.1194,1.1194,1.1194,1.1194,1.1194,1.1194,1.1194,1.1194,1.1194,1.1194,1.1194,1.1194,1.1194,1.1217,1.1638,1.1817,1.1836,1.1996,1.2014,1.178,1.1457,1.1189,1.1034,1.0861,1.0359,0.9768,0.9768,0.927,0.8471,0.7654,0.6854,0.6155,0.5688,0.5527,0.5363,0.4823,0.4662,0.4643,0.4643,0.4481,0.4366,0.4366,0.3904,0.3499,0.3499,0.3187,0.292,0.292,0.292,0.292,0.292,0.291,0.2903,0.2903,0.2807,0.2763,0.2753,0.2571,0.2365,0.2201,0.1725,0.1372,0.1293,0.0235,-0.0471,-0.0589,-0.149,-0.2038,-0.2117,-0.2431,-0.2628,-0.2705,-0.3061,-0.3217,-0.3217,-0.3608,-0.3802,-0.3802,-0.3802,-0.3841,1.435,1.3922,1.3412,1.2751,1.2317,1.2138,1.2492,0.0,0.0,0.0,1.3105,1.3229,1.3229,1.2783,0.0,1.2335,1.1891,1.1471,1.1255,1.0975,0.0,1.11,1.082,1.0744,1.1009,1.1132,1.1194,1.1194,1.1194,1.1194,1.1194,1.1194,1.1194,1.1194,1.1194,1.1194,1.1194,1.1194,1.1194,1.1194,1.1194,1.1194,1.1194,1.1194,1.1255,1.1378,1.1685,1.1883,1.1949,1.2156,1.218,1.2067,1.1864,1.177,1.1661,1.1557,1.1203,1.0766,1.0766,1.0198,0.9373,0.8973,0.8326,0.758,0.7329,0.7288,0.714,0.6396,0.6163,0.6077,0.5653,0.5239,0.4973,0.4973,0.43,0.3681,0.3595,0.323,0.2963,0.323,0.3053,0.2963,0.323,0.3053,0.292,0.292,0.2893,0.2819,0.2788,0.2732,0.2661,0.2568,0.2278,0.1987,0.1648,0.1058,0.0549,0.0196,-0.0628,-0.1176,-0.1371,-0.1882,-0.2275,-0.2511,-0.2707,-0.2787,-0.2787,-0.3217,-0.3452,-0.3452,-0.3686,-0.3802,1.4714,1.4531,1.4303,1.331,1.2755,1.2616,1.3199,1.314,0.0,1.4021,1.4072,1.3935,1.3935,1.3375,1.2856,0.0,1.2404,1.2216,1.2205,1.1706,1.1416,0.0,1.1162,0.0,1.0925,1.1075,1.1194,1.1194,1.1194,1.1194,1.1194,1.1194,1.1194,1.1194,1.1194,1.1194,1.1194,1.1194,1.1194,1.1194,1.1194,1.1194,1.1198,1.1241,1.1354,1.1534,1.1779,1.193,1.21,1.2302,1.2292,1.2147,1.2104,1.1982,1.1883,1.1836,1.1718,1.1576,1.1534,1.0957,1.0321,1.0278,0.962,0.8825,0.8825,0.8825,0.8673,0.8028,0.7845,0.7608,0.6985,0.6452,0.6018,0.5711,0.4891,0.4077,0.3875,0.3534,0.3343,0.3702,0.3464,0.332,0.3676,0.3454,0.3187,0.3053,0.3053,0.2991,0.2852,0.2803,0.276,0.2651,0.2628,0.2393,0.186,0.1698,0.138,0.0864,0.0236,-0.0235,-0.0549,-0.1215,-0.1725,-0.204,-0.2235,-0.2353,-0.2353,-0.2787,-0.2982,-0.2982,-0.3452,-0.3645,1.4946,1.4954,1.4907,1.4792,1.4545,1.4411,1.4561,0.0,1.4281,1.4497,1.4425,1.4325,1.4325,1.4137,1.3949,1.3949,1.3899,1.3726,1.3328,1.3193,1.2782,1.1712,0.0,0.0,1.0967,1.1075,1.1194,1.1194,1.1194,1.1194,1.1194,1.1194,1.1194,1.1194,1.1194,1.1194,1.1194,1.1194,1.1194,1.1194,1.1194,1.1194,1.1203,1.1397,1.1496,1.1539,1.1888,1.2071,1.21,1.2302,1.2372,1.234,1.2161,1.2076,1.2034,1.1888,1.1803,1.1765,1.1581,1.1455,1.1308,1.1161,1.006,0.8825,0.8825,0.8825,0.8775,0.8722,0.8665,0.8651,0.8605,0.8432,0.7986,0.6756,0.5834,0.5124,0.469,0.4483,0.4378,0.4424,0.4266,0.4166,0.421,0.421,0.4032,0.3587,0.3544,0.3361,0.2956,0.291,0.2885,0.2774,0.2717,0.2659,0.2516,0.2024,0.1644,0.1531,0.0903,0.051,0.0471,-0.0118,-0.0471,-0.051,-0.1451,-0.196,-0.196,-0.2353,-0.255,-0.255,-0.2982,-0.318,1.5211,1.5227,1.5181,1.4972,1.4781,1.459,1.4566,0.0,1.4425,1.4569,1.4497,1.4389,1.4389,1.4317,1.4245,1.4129,1.4209,0.0,1.416,1.3807,1.344,1.3052,1.3021,0.0,0.0,0.0,1.278,1.2155,1.1531,1.1194,1.1194,1.1194,1.1194,1.1194,1.1194,1.1194,1.1194,1.1194,1.1194,1.1194,1.1194,1.1194,1.1203,1.142,1.1581,1.1713,1.1958,1.2156,1.2274,1.2354,1.2387,1.2377,1.2297,1.2264,1.2255,1.217,1.2062,1.1949,1.1869,1.1676,1.1505,1.142,1.0852,1.0256,1.0256,1.0256,1.0158,0.9669,0.9521,0.9422,0.8924,0.8773,0.8582,0.7938,0.7327,0.6831,0.6608,0.5894,0.5396,0.5722,0.5037,0.4518,0.479,0.4559,0.4255,0.4032,0.4032,0.3942,0.3765,0.3497,0.3309,0.328,0.2956,0.2722,0.2661,0.2448,0.2259,0.2206,0.1602,0.1234,0.1216,0.0589,0.0079,-0.0275,-0.0706,-0.1138,-0.1531,-0.1961,-0.2156,-0.2156,-0.255,-0.2746,1.5203,1.5161,1.5098,1.4856,1.4712,1.4649,0.0,0.0,1.4848,1.4955,1.4883,1.4748,1.4497,1.4461,1.4425,1.4274,1.4353,1.4506,1.4627,1.4392,1.4159,0.0,0.0,1.4053,1.3742,1.4188,1.4214,1.3445,1.2727,1.2296,1.2204,1.2204,1.1917,1.1243,1.1194,1.1194,1.1194,1.1194,1.1194,1.1194,1.1194,1.1194,1.1203,1.142,1.1628,1.1831,1.1991,1.2198,1.2387,1.2387,1.2387,1.2387,1.2387,1.2387,1.2387,1.2387,1.2297,1.2165,1.2104,1.1855,1.16,1.1539,1.1373,1.1194,1.1194,1.1194,1.1096,1.0507,1.0364,1.0212,0.9665,0.932,0.914,0.9016,0.8597,0.8177,0.8112,0.7336,0.6735,0.7117,0.6356,0.5709,0.5769,0.5423,0.5001,0.4569,0.452,0.4476,0.43,0.4032,0.381,0.381,0.3364,0.2959,0.2767,0.2719,0.2694,0.2632,0.2216,0.1949,0.1903,0.1269,0.0711,0.0275,0.0079,-0.0353,-0.1021,-0.1295,-0.1529,-0.1726,-0.2118,-0.2392,1.4828,1.4621,1.4613,1.4613,1.4605,1.482,0.0,1.5798,1.5798,1.5798,1.5798,1.5551,1.4748,1.4605,1.4605,1.4605,1.4605,1.4651,1.4776,1.5133,0.0,0.0,0.0,1.4771,1.4251,1.4689,1.5013,1.4965,1.4965,1.4823,1.4603,1.4555,1.3547,1.1292,1.1194,1.1194,1.1194,1.1194,1.1194,1.1194,1.1194,1.1194,1.1203,1.142,1.1628,1.1831,1.1991,1.2198,1.2387,1.2387,1.2387,1.2387,1.2387,1.2387,1.2387,1.2387,1.2382,1.2354,1.2156,1.1997,1.1784,1.1581,1.1373,1.1194,1.1194,1.1194,1.1194,1.1194,1.1194,1.1194,1.1194,1.0556,0.9969,0.9969,0.9369,0.8772,0.8772,0.8687,0.8571,0.8571,0.8532,0.818,0.725,0.709,0.6584,0.5203,0.501,0.4832,0.4342,0.43,0.43,0.43,0.3853,0.3379,0.2831,0.2782,0.2756,0.2695,0.2692,0.2664,0.2602,0.199,0.1646,0.1568,0.0942,0.0275,-0.0314,-0.0314,-0.0668,-0.1296,-0.1726,-0.2117,1.6105,1.5789,1.5409,1.5409,1.5789,1.6105,1.5868,1.6175,1.6559,1.6559,1.6559,1.6315,1.5551,1.5409,1.524,1.4677,1.4605,1.4609,0.0,0.0,0.0,1.5092,1.5841,1.6463,1.651,1.6262,1.6069,1.6069,1.5393,1.4965,1.4877,1.487,1.4399,1.3355,1.2587,1.2587,1.3307,1.2587,1.2587,1.3312,1.3451,1.3065,1.2257,1.298,1.2774,1.1827,1.2403,1.2564,1.2436,1.2822,1.2767,1.2441,1.2822,1.2767,1.2387,1.2387,1.2387,1.2372,1.2311,1.2062,1.1808,1.1742,1.1482,1.1194,1.1194,1.1194,1.1194,1.1194,1.1194,1.1194,1.1194,1.0998,1.0801,1.0801,1.0654,1.0453,1.0453,0.9964,0.9535,0.9535,0.9047,0.8478,0.8193,0.7959,0.7528,0.6572,0.6308,0.5985,0.5327,0.4968,0.4788,0.4788,0.4342,0.3888,0.3377,0.3067,0.2819,0.2758,0.2755,0.2728,0.2666,0.2496,0.2139,0.1688,0.1446,0.0997,0.0314,0.0314,0.0,-0.0628,-0.1217,-0.1687,0.0,1.655,1.621,1.621,1.6559,0.0,1.6655,1.7001,1.731,1.731,1.731,1.7001,1.6009,1.5798,1.5551,1.474,1.4605,1.4605,0.0,0.0,0.0,1.5866,0.0,0.0,1.7681,1.7522,1.7451,1.7451,1.6821,1.6398,1.6304,1.6304,1.6123,1.5744,1.4214,1.374,1.4411,1.374,1.3782,1.4549,1.4686,1.4358,1.359,1.3951,1.3624,1.289,1.3044,1.3128,0.0,1.3835,1.3889,1.3555,1.3943,1.3727,1.3186,1.2871,1.2604,1.2372,1.2297,1.2048,1.1803,1.1728,1.1472,1.1194,1.1194,1.1194,1.1194,1.1194,1.1194,1.1194,1.1194,1.1194,1.1194,1.1194,1.1194,1.1194,1.1194,1.0806,1.0462,1.0462,0.9966,0.9469,0.9116,0.8926,0.8529,0.7728,0.7451,0.7176,0.6693,0.6061,0.5675,0.5675,0.5008,0.4431,0.4166,0.3544,0.3124,0.3083,0.2949,0.279,0.2729,0.2726,0.2529,0.21,0.2058,0.1717,0.1008,0.0806,0.0483,0.0081,-0.0605,-0.1047,0.0,1.7001,1.6966,0.0,0.0,0.0,1.7867,1.8037,0.0,1.807,1.807,1.7653,1.621,1.5965,1.5692,1.4883,1.4713,0.0,0.0,1.5274,0.0,0.0,1.7326,1.779,1.7806,1.839,1.8758,1.8781,1.8781,1.8743,1.8527,1.8527,1.8381,1.8133,1.6035,1.4889,1.4841,1.4794,1.4883,1.5203,1.5251,1.5203,1.5108,1.4447,1.4344,1.463,1.4015,1.3937,1.4406,1.5204,1.5524,1.5524,1.5524,1.5209,1.4632,1.3846,1.3132,1.2655,1.236,1.214,1.1915,1.1613,1.1359,1.1194,1.1194,1.1194,1.1194,1.1194,1.1194,1.1194,1.1194,1.1194,1.1194,1.1194,1.1194,1.1194,1.1194,1.1194,1.1194,1.1194,1.1194,1.0937,1.0027,0.9888,0.9581,0.8742,0.8429,0.8272,0.8227,0.7406,0.6868,0.6823,0.5805,0.5097,0.5055,0.421,0.3631,0.3631,0.323,0.2936,0.2879,0.2877,0.2803,0.27,0.2695,0.2397,0.1765,0.1176,0.0882,0.084,0.0126,-0.021,1.862,0.0,1.7721,1.7721,1.8172,1.8486,0.0,1.8452,1.8831,1.8831,0.0,1.8553,1.7653,1.7482,1.7242,1.6481,0.0,1.5515,1.5515,0.0,0.0,1.661,1.7119,1.7536,1.779,1.8168,1.8533,1.8758,1.8781,1.8781,1.8743,1.8743,1.8651,1.8427,1.7854,1.7466,1.7271,1.6506,1.6553,1.7358,1.7559,1.7178,1.6257,1.664,1.6177,1.5159,1.5676,1.5808,1.5827,1.6655,1.6745,1.6433,1.685,1.6692,1.6168,1.5743,1.5458,1.517,1.4292,1.3837,1.343,1.227,1.158,1.1194,1.1194,1.1194,1.1194,1.1194,1.1194,1.1194,1.1194,1.1194,1.1194,1.1194,1.1194,1.1194,1.1194,1.1194,1.1194,1.1194,1.1194,1.113,1.0933,1.075,1.0396,0.9625,0.9204,0.8771,0.8272,0.7808,0.7349,0.6868,0.6558,0.6163,0.5597,0.4659,0.4121,0.4121,0.4032,0.3801,0.3428,0.3428,0.3218,0.2806,0.2715,0.2608,0.2481,0.1807,0.1471,0.1471,0.084,0.0546,1.9108,1.8798,1.8509,1.8509,1.8787,1.8998,1.8586,0.0,0.0,0.0,0.0,0.0,0.0,0.0,0.0,0.0,1.628,0.0,0.0,0.0,1.6118,1.6626,1.7056,1.7448,1.7783,1.8089,1.8446,1.8758,1.8781,1.8781,1.8781,1.8781,1.8735,1.8658,1.8658,1.852,1.828,1.7753,1.7792,1.8411,1.8558,1.8272,1.7591,1.7692,1.7297,1.6586,1.675,1.679,1.6832,1.7839,1.8074,1.7829,1.8338,1.8043,1.7348,1.6814,1.6317,1.5808,1.5137,1.4773,1.4449,1.3642,1.3156,1.2872,1.2538,1.2441,1.2247,1.1433,1.1194,1.1194,1.1194,1.1194,1.1194,1.1194,1.1194,1.1194,1.1194,1.1194,1.1194,1.1194,1.1194,1.1194,1.1194,1.1104,1.0888,1.0492,1.0189,0.9822,0.9363,0.8779,0.8275,0.7797,0.7482,0.6956,0.6257,0.5719,0.523,0.4654,0.4431,0.4166,0.3942,0.3942,0.37,0.3177,0.314,0.299,0.2775,0.2428,0.2253,0.2253,0.156,0.1256,1.9108,1.9108,1.9108,1.9108,1.9108,1.9108,1.9108,0.0,0.0,0.0,0.0,0.0,0.0,1.8172,0.0,0.0,0.0,0.0,1.5811,1.6015,1.6333,1.665,1.7008,1.7326,1.7703,1.7969,1.8287,1.8637,1.867,1.8702,1.8702,1.875,1.8781,1.8781,1.8781,1.8743,1.8574,1.8574,1.8612,1.8781,1.8781,1.8781,1.8781,1.8164,1.7989,1.818,1.7601,1.7476,1.7796,1.8805,1.924,1.9278,1.9615,1.9241,1.8427,1.7645,1.6891,1.6143,1.5771,1.5416,1.5108,1.5108,1.5061,1.487,1.4256,1.4064,1.3734,1.2204,1.158,1.1292,1.1243,1.1194,1.1194,1.1194,1.1194,1.1194,1.1194,1.1194,1.1194,1.1194,1.1194,1.1194,1.1194,1.1194,1.1194,1.1194,1.1023,1.083,1.0692,0.9908,0.9253,0.8998,0.8376,0.7702,0.6997,0.6953,0.6467,0.5364,0.4788,0.4478,0.4431,0.4342,0.4121,0.3721,0.3721,0.3454,0.3008,0.3008,0.2963,0.2873,0.2243,0.1974,1.9108,1.9108,1.9108,1.9108,1.9108,1.9108,1.9108,0.0,0.0,0.0,0.0,0.0,0.0,1.8931,1.8898,0.0,0.0,1.6895,0.0,1.6174,1.6333,1.665,1.6745,1.6961,1.7318,1.7405,1.7572,1.795,1.8208,1.8383,1.8383,1.8669,1.8781,1.8781,1.8781,1.8781,1.8735,1.8735,1.8781,1.8781,1.8781,1.8781,1.8781,1.8681,1.8666,1.8691,1.8949,1.9058,1.9136,1.961,1.9793,1.9801,1.9856,1.9791,1.9597,1.9253,1.899,1.8661,1.769,1.6588,1.5697,1.5697,1.5358,1.4965,1.487,1.4823,1.4775,1.4489,1.321,1.1785,1.134,1.1194,1.1194,1.1194,1.1194,1.1194,1.1194,1.1194,1.1194,1.1194,1.1194,1.1194,1.1194,1.1194,1.1194,1.1194,1.1023,1.0882,1.0853,1.0416,0.9894,0.9229,0.8899,0.8448,0.7702,0.7658,0.7305,0.6558,0.5858,0.5329,0.4921,0.452,0.4253,0.421,0.421,0.3942,0.3499,0.3499,0.3275,0.292,0.2784,0.2739,1.9868,1.9759,1.9639,1.9198,1.9108,1.9108,1.9108,1.9108,0.0,0.0,0.0,0.0,0.0,0.0,1.8903,1.8281,0.0,1.7076,1.6316,1.6373,1.6515,1.6673,1.6689,1.6881,1.7247,1.7278,1.7456,1.779,1.7922,1.8009,1.8009,1.8351,1.8541,1.8541,1.8724,1.8781,1.8781,1.8781,1.8781,1.8781,1.8781,1.8781,1.8781,1.8781,1.8781,1.8789,1.9002,1.9082,1.9105,1.9455,1.9646,1.967,1.9845,1.9805,1.9574,1.9241,1.9115,1.9011,1.8458,1.7924,1.7404,1.7404,1.7257,1.6962,1.6586,1.6445,1.6304,1.5643,1.4549,1.3445,1.2823,1.2678,1.2538,1.217,1.1834,1.1634,1.1634,1.1389,1.1194,1.1194,1.1194,1.1194,1.1194,1.1194,1.1194,1.1194,1.1118,1.1019,1.091,1.0627,1.0304,0.9827,0.9632,0.92,0.8448,0.8404,0.7921,0.6868,0.6127,0.5599,0.5371,0.5149,0.4926,0.4699,0.4699,0.4431,0.3989,0.3989,0.3721,0.3275,0.3275,0.3142,2.059,2.0365,2.0171,1.9363,0.0,1.9108,1.9108,1.9108,0.0,0.0,0.0,0.0,0.0,1.9191,0.0,1.8112,1.7927,1.77,1.7009,1.6952,1.7009,1.7009,1.6812,1.68,1.7127,1.7151,1.7254,1.7509,1.7612,1.7695,1.7695,1.7985,1.8176,1.8176,1.8438,1.8581,1.8581,1.8661,1.8694,1.8781,1.8781,1.8781,1.8781,1.8781,1.8781,1.8781,1.8781,1.8781,1.8805,1.9129,1.9248,1.9272,1.9519,1.9471,1.9209,1.8931,1.8781,1.8781,1.8781,1.8781,1.8781,1.8781,1.8781,1.8689,1.8118,1.7978,1.7738,1.6788,1.621,1.563,1.4447,1.416,1.4022,1.3468,1.2985,1.2646,1.25,1.2111,1.1722,1.1438,1.1389,1.134,1.1243,1.1194,1.1194,1.1194,1.1194,1.1142,1.0986,1.0735,1.0559,1.0407,1.0151,0.9772,0.92,0.8978,0.8452,0.7349,0.6432,0.5863,0.5688,0.5688,0.5552,0.5191,0.5146,0.4924,0.4476,0.4476,0.421,0.3765,0.3765,0.3587,2.0751,2.059,2.0365,1.9495,1.9208,1.9108,1.9108,1.9108,0.0,1.9108,0.0,0.0,0.0,1.9461,1.9751,1.9725,1.9723,1.9583,1.9125,1.8412,1.7917,1.7917,1.7204,1.6705,1.6729,1.6737,1.6745,1.6768,1.7127,1.736,1.736,1.7671,1.7854,1.7854,1.7878,1.7886,1.7886,1.8168,1.8502,1.8781,1.8781,1.8781,1.8781,1.8781,1.8781,1.8781,1.8781,1.8781,1.8781,1.8805,1.8821,1.8867,1.8891,1.8837,1.8821,1.8789,1.8781,1.8781,1.8781,1.8781,1.8781,1.8781,1.8781,1.8781,1.8735,1.8735,1.8689,1.8589,1.8542,1.7963,1.5535,1.4918,1.4918,1.487,1.4823,1.4584,1.3926,1.3734,1.3355,1.2165,1.1927,1.178,1.1292,1.1194,1.1194,1.1194,1.1194,1.1189,1.1175,1.082,1.057,1.0597,1.0236,0.9994,0.9907,0.9288,0.8846,0.8759,0.7485,0.6432,0.5733,0.5688,0.5688,0.5644,0.5644,0.5416,0.4966,0.4966,0.4699,0.4255,0.4255,0.421,2.1573,2.129,2.1144,2.0074,1.9495,0.0,0.0,1.9108,1.9108,1.9108,1.9108,0.0,0.0,0.0,1.9862,1.9901,1.9698,1.9481,1.9316,1.9027,1.8829,1.8829,1.8037,1.7723,1.8278,1.7326,1.6927,1.7489,1.7146,1.6937,1.6937,1.727,1.7512,1.7512,1.7703,1.7814,1.7814,1.795,1.8041,1.8176,1.8613,1.8781,1.8781,1.8781,1.8781,1.8781,1.8781,1.8781,1.8781,1.8781,1.8781,1.8781,1.8781,1.8781,1.8781,1.8781,1.8781,1.8781,1.8781,1.8781,1.8781,1.8781,1.8781,1.8781,1.8781,1.8781,1.8781,1.8781,1.8781,1.8488,1.7063,1.668,1.6546,1.6082,1.5744,1.5406,1.5121,1.4829,1.4304,1.3355,1.3162,1.298,1.2316,1.2175,1.2078,1.1731,1.1688,1.159,1.1243,1.083,1.0621,1.0621,1.0246,0.9994,0.9994,0.9728,0.9375,0.8934,0.7965,0.7132,0.6432,0.6387,0.6169,0.5688,0.5688,0.5599,0.5416,0.5416,0.5191,0.4743,0.4743,0.4565,2.2144,2.1865,2.1659,2.0291,0.0,0.0,1.9198,1.9108,1.9108,1.9108,1.9222,1.9502,2.0114,0.0,2.0337,2.0476,2.0265,2.009,2.009,1.9855,1.9698,1.9698,1.8948,1.855,1.8868,1.7796,1.7245,1.7561,1.7049,1.6689,1.6689,1.6969,1.7104,1.7104,1.7326,1.7445,1.7445,1.7556,1.7655,1.7663,1.8208,1.8494,1.8494,1.8613,1.8661,1.8669,1.8734,1.8781,1.8781,1.8781,1.8781,1.8781,1.8781,1.8781,1.8781,1.8781,1.8781,1.8781,1.8781,1.8781,1.8781,1.8781,1.8781,1.8758,1.8647,1.8661,1.8637,1.8526,1.8494,1.835,1.7842,1.7903,1.7932,1.7426,1.699,1.6695,1.6459,1.6116,1.5582,1.4692,1.4501,1.4268,1.3607,1.3468,1.3275,1.2694,1.2597,1.2334,1.1686,1.1169,1.0753,1.0436,1.0165,0.9994,0.9994,0.9994,0.9772,0.9288,0.8759,0.8097,0.7173,0.7129,0.6779,0.6083,0.6038,0.5952,0.5688,0.5688,0.5552,0.5235,0.5235,0.5057,2.2286,2.2101,2.1698,0.0,0.0,0.0,1.9363,1.9098,1.9108,1.9108,1.9482,2.0083,2.0948,2.1087,2.1269,2.1725,2.1807,2.1807,2.1807,2.1059,2.0498,2.0498,1.9816,1.8988,1.8118,1.7997,1.7642,1.6771,1.6689,1.6689,1.6689,1.6689,1.6689,1.6689,1.6689,1.6689,1.6689,1.7096,1.7321,1.7321,1.7647,1.7806,1.783,1.8136,1.8295,1.8311,1.8669,1.8773,1.8781,1.8781,1.8781,1.8781,1.8781,1.8781,1.8781,1.8781,1.8781,1.8781,1.8781,1.8781,1.8781,1.8781,1.8781,1.871,1.8406,1.8295,1.8224,1.791,1.7814,1.7814,1.7814,1.8287,1.8773,1.8773,1.8773,1.8581,1.787,1.7684,1.735,1.6075,1.5792,1.5643,1.5102,1.5,1.4769,1.401,1.3914,1.3551,1.2531,1.1822,1.1051,1.0125,0.9994,0.9994,0.9994,0.9994,0.9994,0.9994,0.9994,0.9331,0.7878,0.7834,0.7482,0.6823,0.6823,0.6432,0.5688,0.5688,0.5688,0.5688,0.5688,0.5688,2.2804,2.2713,0.0,2.1772,0.0,0.0,0.0,1.9781,0.0,0.0,2.0207,2.0793,2.1062,2.1383,2.1652,2.1787,2.1807,2.1807,2.1807,2.1568,2.1405,2.1405,2.0653,2.0021,1.9786,1.8669,1.7876,1.7642,1.7049,1.6689,1.6689,1.6689,1.6689,1.6689,1.6689,1.6689,1.6689,1.68,1.7178,1.7778,1.7878,1.7869,1.7814,1.7882,1.793,1.793,1.8041,1.8224,1.8478,1.8678,1.8781,1.8781,1.8781,1.8781,1.8781,1.8781,1.8781,1.8781,1.8781,1.8781,1.8781,1.8781,1.8661,1.8438,1.8327,1.812,1.795,1.7846,1.7814,1.7814,1.7814,1.7966,1.8081,1.8081,1.8081,1.8036,1.7807,1.7957,1.7788,1.6644,1.6608,1.6497,1.5536,1.5359,1.517,1.4565,1.4068,1.3296,1.1981,1.1663,1.1366,1.097,1.0895,1.0895,1.0895,1.0895,1.0766,1.0419,1.0419,0.985,0.8627,0.8584,0.8229,0.7526,0.7482,0.7177,0.6473,0.6473,0.6213,0.5688,0.5688,0.5688,2.3045,2.2955,0.0,2.2341,2.1846,2.1414,2.1054,0.0,0.0,0.0,2.0731,2.1176,2.1352,2.1621,2.1807,2.1807,2.1807,2.1807,2.1807,2.1807,2.1807,2.1807,2.1328,2.0895,2.0537,1.959,1.8718,1.8037,1.7521,1.709,1.673,1.6689,1.6689,1.6689,1.6689,1.6689,1.6689,1.7049,1.7489,1.7997,1.835,1.8473,1.8389,1.8541,1.8404,1.8071,1.7881,1.789,1.812,1.847,1.8613,1.8629,1.8726,1.8781,1.8781,1.8781,1.8781,1.8781,1.8781,1.8781,1.8758,1.8615,1.8478,1.8247,1.7977,1.7747,1.7591,1.7397,1.7358,1.7358,1.7358,1.7358,1.7429,1.7743,1.7814,1.7814,1.7814,1.7938,1.7892,1.7249,1.7284,1.7219,1.6522,1.6397,1.6213,1.5585,1.4772,1.3799,1.2497,1.2218,1.1925,1.1338,1.1284,1.1284,1.1284,1.1284,1.1192,1.0895,1.0895,1.0587,0.9889,0.9501,0.8978,0.8229,0.8229,0.7878,0.7217,0.7217,0.6956,0.652,0.6257,0.6124,2.3177,2.31,0.0,2.2249,2.2187,0.0,2.113,2.036,2.0104,2.0938,0.0,2.1311,2.1725,2.1807,2.1807,2.1807,2.1849,2.1869,2.1869,2.1901,2.1921,2.188,2.1869,2.1494,2.0586,2.0498,1.9825,1.8238,1.8118,1.7755,1.6968,1.6927,1.6927,1.6927,1.6927,1.6927,1.6927,1.7723,1.8158,1.8238,1.9027,1.9453,1.955,1.9681,1.9325,1.8537,1.8156,1.7975,1.8008,1.8282,1.8382,1.8414,1.8605,1.8732,1.8732,1.8732,1.8732,1.8732,1.8732,1.8732,1.8676,1.8359,1.8232,1.8089,1.7469,1.7254,1.7159,1.6784,1.6689,1.6689,1.6689,1.6689,1.6848,1.7525,1.7719,1.7719,1.7719,1.7743,1.7759,1.7727,1.7743,1.7759,1.7727,1.7719,1.7459,1.6725,1.577,1.4759,1.3673,1.3323,1.2741,1.1709,1.158,1.1542,1.1542,1.1451,1.1413,1.137,1.1365,1.1327,1.1284,1.0511,0.9728,0.9065,0.9021,0.8627,0.7921,0.7921,0.7878,0.779,0.7173,0.6908,2.3894,2.3865,0.0,0.0,2.2537,2.1652,2.1722,2.0968,2.0441,2.1,2.1404,2.1683,2.1787,2.1807,2.1807,2.1807,2.2118,2.2346,2.2346,2.2656,2.2749,2.2387,2.2346,2.1841,2.0615,2.0498,2.0099,1.9107,1.9027,1.8939,1.8749,1.8749,1.8749,1.8749,1.8749,1.8749,1.8749,1.8948,1.9344,1.9943,2.0138,2.0615,2.1213,1.9989,1.9314,1.9132,1.9293,1.938,1.9333,1.9059,1.8927,1.8849,1.8233,1.8001,1.8001,1.8001,1.8001,1.8001,1.8001,1.8001,1.7985,1.795,1.7707,1.7469,1.7326,1.708,1.6792,1.6713,1.6689,1.6689,1.6689,1.6689,1.6729,1.6879,1.6953,1.6953,1.6953,1.7183,1.7302,1.7016,1.7183,1.7294,1.7008,1.6953,1.6703,1.6034,1.5715,1.5294,1.4536,1.4355,1.423,1.4013,1.3506,1.3173,1.3173,1.2705,1.2229,1.1886,1.1843,1.1671,1.1327,1.0766,1.0419,1.0246,0.9946,0.9419,0.8667,0.8667,0.836,0.779,0.7658,0.757,2.4083,0.0,0.0,2.3789,0.0,2.2162,2.2538,2.2151,2.1717,2.1728,2.1775,2.1807,2.1807,2.1807,2.1807,2.1807,2.2004,2.2159,2.2159,2.2377,2.2439,2.219,2.2159,2.1994,2.1497,2.1257,2.0858,2.0267,2.0008,1.9698,1.9335,1.9295,1.9295,1.9295,1.9295,1.9295,1.9295,1.9698,2.0099,2.0508,2.0934,2.1405,2.1921,2.0489,1.9855,1.9874,1.9645,1.9577,1.9573,1.9448,1.945,1.9384,1.8691,1.8422,1.8378,1.7945,1.7814,1.7814,1.7814,1.7814,1.779,1.7631,1.7456,1.7247,1.7072,1.6881,1.6689,1.6689,1.6689,1.6689,1.6689,1.6689,1.6689,1.6689,1.6689,1.6689,1.6689,1.684,1.6961,1.6729,1.6889,1.6961,1.6729,1.6689,1.6566,1.6237,1.6196,1.5948,1.5276,1.5193,1.5068,1.4734,1.4405,1.4195,1.4195,1.3555,1.3088,1.2833,1.2528,1.2229,1.1972,1.1542,1.1154,1.0933,1.0722,1.0419,1.0062,1.0062,0.9845,0.9449,0.8925,0.8663,2.4083,0.0,2.3878,2.3717,2.325,0.0,2.3249,2.3155,2.2865,2.2519,2.2236,2.1987,2.1845,2.1845,2.1845,2.1807,2.1908,2.1998,2.1921,2.2032,2.2053,2.1932,2.1921,2.2014,2.2242,2.1911,2.1492,2.1076,2.0711,2.0226,1.9625,1.9625,1.9662,1.9767,1.9767,1.9806,1.9846,2.0489,2.0808,2.0857,2.1568,2.1987,2.2101,2.1242,2.0808,2.0731,2.0051,1.9737,1.9717,1.9864,1.9931,1.9878,1.9323,1.9117,1.9041,1.8309,1.8053,1.8053,1.7881,1.7838,1.7755,1.7355,1.7183,1.7127,1.6784,1.6689,1.6689,1.6689,1.6689,1.6689,1.6689,1.6689,1.6689,1.6689,1.6689,1.6689,1.6689,1.6689,1.6689,1.6689,1.6689,1.6689,1.6689,1.6689,1.6689,1.6689,1.6689,1.6484,1.594,1.5858,1.565,1.511,1.4943,1.4817,1.4692,1.4195,1.3779,1.3519,1.3137,1.2833,1.2705,1.2314,1.1929,1.1542,1.137,1.1284,1.1284,1.1284,1.1284,1.1284,1.0323,0.9884,0.0,0.0,2.4054,0.0,2.3412,2.291,0.0,0.0,2.2435,2.2629,2.2838,2.2761,2.1949,2.1959,2.1987,2.1845,2.2447,2.2787,2.2447,2.2908,2.3052,2.2499,2.2408,2.2118,2.1373,2.1238,2.0989,2.0539,2.0457,2.0554,2.0832,2.0863,2.1111,2.17,2.1749,2.1825,2.1966,2.209,2.2138,2.2138,2.2252,2.2327,2.2365,2.2214,2.2052,2.1873,2.1606,2.1482,2.1405,2.0683,2.043,2.0312,1.9561,1.9261,1.9261,1.9141,1.9101,1.8981,1.8224,1.7989,1.7817,1.7056,1.6768,1.6753,1.6705,1.6689,1.6689,1.6689,1.6689,1.6689,1.6689,1.6689,1.6689,1.6689,1.6689,1.6689,1.6689,1.6689,1.6689,1.6689,1.6689,1.6689,1.6689,1.6689,1.6689,1.6689,1.6689,1.6648,1.6566,1.6566,1.6525,1.6443,1.5899,1.5318,1.4734,1.4608,1.4062,1.2918,1.3307,1.3307,1.2705,1.2619,1.2577,1.2528,1.1714,1.1284,1.1284,1.1284,1.1284,1.1284,1.1149,1.1063,2.4083,2.4083,2.4083,0.0,2.3822,2.3565,2.379,2.3826,2.3696,2.3254,2.3245,2.3078,2.2296,2.2214,2.2252,2.2138,2.2469,2.2635,2.2492,2.2478,2.2324,2.1935,2.1636,2.1391,2.1135,2.085,2.0715,2.0803,2.0529,2.0549,2.0855,2.0865,2.1042,2.148,2.1734,2.1935,2.2009,2.2264,2.2402,2.2402,2.2515,2.2553,2.2553,2.2553,2.2478,2.2252,2.2073,2.1959,2.1949,2.1558,2.1405,2.1318,2.0595,2.0246,2.009,1.9629,1.9471,1.9432,1.9036,1.8917,1.8838,1.8447,1.7925,1.7448,1.7448,1.709,1.6738,1.7025,1.6894,1.6771,1.7025,1.6902,1.6689,1.6689,1.6689,1.6689,1.6689,1.6689,1.6689,1.6689,1.6689,1.6689,1.6689,1.6689,1.6689,1.6689,1.6689,1.6689,1.6689,1.6689,1.6689,1.6689,1.6443,1.6147,1.5858,1.511,1.4608,1.4384,1.3935,1.3561,1.3264,1.3264,1.3163,1.294,1.2347,1.21,1.21,1.21,1.21,1.21,1.18,1.1671,0.0,0.0,2.4083,2.4083,2.4083,2.4083,0.0,0.0,2.4525,2.3754,2.353,2.3349,2.2806,2.2373,2.2088,2.2051,2.2125,2.2162,2.2051,2.1779,2.152,2.1313,2.0997,2.081,2.0896,2.0533,2.0419,2.0683,2.0346,2.0271,2.0562,2.0607,2.0741,2.1066,2.1421,2.1628,2.1664,2.2017,2.2264,2.2381,2.253,2.2658,2.2777,2.2777,2.2703,2.2553,2.2289,2.2176,2.2176,2.2176,2.2176,2.2138,2.1614,2.1336,2.1106,2.0527,2.0294,2.0265,2.006,1.9982,1.9943,1.9756,1.9116,1.8399,1.8399,1.7965,1.7497,1.7861,1.7619,1.7375,1.7708,1.7424,1.7017,1.6894,1.6894,1.6861,1.6738,1.6689,1.6689,1.6689,1.6689,1.6689,1.6689,1.6689,1.6689,1.6689,1.6689,1.6689,1.6689,1.6689,1.6689,1.6689,1.6689,1.6607,1.6443,1.5692,1.5276,1.5443,1.465,1.411,1.3942,1.3942,1.3867,1.3674,1.3256,1.301,1.291,1.291,1.2874,1.2807,1.242,1.225,0.0,2.4083,0.0,2.4083,2.4083,0.0,0.0,0.0,2.4088,2.3816,2.3785,2.3719,2.3577,2.2342,2.1271,2.1105,2.1388,2.1528,2.1129,2.1225,2.1239,2.1027,2.1006,2.0825,2.039,2.0165,1.9941,1.9687,1.9468,1.9647,2.0294,2.0315,2.0631,2.1255,2.1298,2.1415,2.159,2.1612,2.1863,2.2321,2.2321,2.255,2.2964,2.2964,2.2964,2.2964,2.2553,2.2365,2.2365,2.2365,2.2365,2.2365,2.2365,2.2327,2.2327,2.2279,2.2241,2.2128,2.1298,2.1019,2.0904,2.0138,1.9717,1.952,1.952,1.9481,1.9441,1.9481,1.9204,1.8877,1.8917,1.8416,1.7838,1.7432,1.7351,1.7229,1.682,1.6689,1.6689,1.6689,1.6689,1.6689,1.6689,1.6689,1.6689,1.6689,1.6689,1.6689,1.6689,1.6689,1.6689,1.6689,1.6689,1.6443,1.5816,1.6278,1.6064,1.4817,1.5276,1.5318,1.465,1.465,1.4838,1.5175,1.4439,1.3831,1.3471,1.3471,1.3344,1.3103,1.3059,1.2915,0.0,0.0,0.0,2.4083,2.4083,2.4083,2.4083,2.4083,2.4076,2.4004,2.3644,2.336,2.33,2.3004,2.2763,2.2661,2.2434,2.2183,2.2045,2.148,2.0986,2.078,2.0477,2.0186,1.9881,1.9804,1.9696,1.9615,1.9539,1.9646,2.0016,2.0027,2.0168,2.0519,2.0857,2.1241,2.1592,2.1592,2.168,2.1843,2.1843,2.1942,2.2095,2.2095,2.2095,2.2106,2.2277,2.2433,2.259,2.259,2.259,2.2628,2.274,2.2703,2.259,2.259,2.259,2.2553,2.2231,2.2117,2.208,2.1804,2.1183,2.0556,2.0556,2.0207,1.9864,2.008,1.9894,1.955,1.9402,1.9006,1.8496,1.791,1.8103,1.8256,1.7668,1.7098,1.6689,1.6689,1.6689,1.6689,1.6689,1.6689,1.6689,1.6689,1.6689,1.6689,1.6689,1.6689,1.6689,1.6689,1.6689,1.6607,1.636,1.6147,1.6031,1.5989,1.5816,1.5609,1.536,1.536,1.5396,1.5476,1.5225,1.4792,1.4186,1.374,1.3465,1.3369,1.3155,1.3067,2.4083,0.0,0.0,0.0,2.4083,2.4083,2.4083,2.4083,2.4083,2.4083,2.3763,2.3442,2.3442,2.361,2.3622,2.3159,2.2704,2.242,2.242,2.1595,2.093,2.0765,2.0292,1.99,1.978,1.9747,1.9704,1.978,1.9747,1.9769,1.9976,1.9976,2.0009,2.0118,2.0456,2.0773,2.1101,2.1112,2.1188,2.1376,2.1376,2.1463,2.1592,2.1592,2.1592,2.1614,2.1931,2.2263,2.2598,2.275,2.2815,2.2815,2.2964,2.2927,2.2815,2.2815,2.2815,2.2815,2.2815,2.2815,2.2815,2.2815,2.2268,2.1652,2.1652,2.126,2.0914,2.1173,2.0942,2.0615,2.0459,1.9982,1.9344,1.8696,1.8776,1.8807,1.8152,1.7424,1.6943,1.6943,1.6943,1.6894,1.6738,1.6812,1.6894,1.673,1.6689,1.6689,1.6689,1.6689,1.6689,1.6689,1.6689,1.6689,1.6689,1.6278,1.6237,1.6648,1.6278,1.6031,1.6031,1.6031,1.6079,1.6155,1.6044,1.5803,1.5458,1.4832,1.4374,1.4,1.3733,1.3378,0.0,0.0,0.0,0.0,0.0,0.0,2.4083,2.4083,2.4083,2.4083,2.4083,2.4083,2.4083,2.4083,2.3675,2.2359,2.2132,2.2144,2.2144,2.1553,2.1123,2.1123,2.055,2.0118,2.0118,2.0009,1.9976,2.0074,1.9976,1.9976,2.0074,2.0118,2.0118,2.0118,2.0118,2.0118,2.0118,2.0118,2.0347,2.0872,2.0872,2.1124,2.1549,2.1549,2.1549,2.1549,2.1559,2.1832,2.2313,2.2772,2.2957,2.2957,2.2968,2.2979,2.2979,2.299,2.3001,2.3001,2.3001,2.3001,2.3001,2.3001,2.2852,2.2703,2.2703,2.2703,2.2703,2.2703,2.244,2.2101,2.2101,2.1336,2.0391,1.9786,1.9353,1.8926,1.8233,1.7749,1.7473,1.7432,1.7432,1.727,1.682,1.7106,1.7229,1.6771,1.6697,1.6689,1.6689,1.6689,1.6689,1.6689,1.6689,1.6689,1.6689,1.6689,1.6689,1.6689,1.6689,1.6689,1.6689,1.6689,1.6905,1.727,1.6911,1.6892,1.7228,1.6807,1.6053,1.5015,1.4773,1.397,2.4083,0.0,0.0,0.0,0.0,0.0,2.4083,2.4083,2.4083,2.4083,2.4083,2.4083,2.4083,2.4083,2.3995,2.3616,2.313,2.2804,2.2804,2.2255,2.1834,2.1834,2.1219,2.0816,2.0816,2.0356,2.0042,2.0118,2.0085,2.0042,2.0118,2.0118,2.0118,2.0118,2.0118,2.0118,2.0118,2.0118,2.0172,2.0314,2.0314,2.038,2.0511,2.0511,2.0511,2.0532,2.0949,2.1179,2.1332,2.1778,2.1985,2.2007,2.2368,2.251,2.2542,2.2881,2.3001,2.3001,2.3001,2.3001,2.3001,2.3001,2.2964,2.2927,2.2927,2.2927,2.2927,2.2927,2.2852,2.2665,2.2214,2.1863,2.151,2.0885,2.1011,2.1088,2.0459,1.9638,1.8776,1.7991,1.7838,1.7797,1.7676,1.7514,1.7351,1.7229,1.6902,1.6689,1.6689,1.6689,1.6689,1.6689,1.6689,1.6689,1.6689,1.6689,1.6689,1.6689,1.6689,1.6689,1.6689,1.6689,1.6905,1.727,1.7431,1.7681,1.7989,1.704,1.6445,1.6161,1.5586,1.5045,0.0,0.0,0.0,0.0,0.0,0.0,2.4083,2.4083,2.4083,2.4083,2.4083,2.4083,2.4083,2.4083,2.4083,2.4083,2.3763,2.3501,2.3501,2.2937,2.2512,2.2512,2.1928,2.1534,2.1534,2.0912,2.0518,2.0518,2.027,2.0118,2.0118,2.0118,2.0118,2.0118,2.0118,2.0118,2.0118,2.0118,2.0118,2.0118,2.0118,2.0118,2.0118,2.0118,2.0118,2.0129,2.0435,2.0566,2.0587,2.0871,2.1221,2.1614,2.1898,2.2018,2.2073,2.2542,2.2717,2.2739,2.2936,2.3001,2.3001,2.3001,2.3001,2.3001,2.3001,2.3001,2.3001,2.3001,2.3001,2.2927,2.2553,2.2478,2.2327,2.1711,2.1825,2.1949,2.1318,2.0508,1.9608,1.8816,1.8474,1.8241,1.804,1.7959,1.7887,1.7676,1.727,1.6976,1.6976,1.682,1.6689,1.6689,1.6689,1.6689,1.6689,1.6689,1.6689,1.6689,1.6689,1.6689,1.6689,1.6689,1.6792,1.7048,1.739,1.7811,1.8295,1.7773,1.7306,1.6882,1.6017,1.5483,0.0,0.0,0.0,0.0,2.42,0.0,2.4112,2.4083,2.4083,2.4083,2.4083,2.4083,2.4083,2.4083,2.4083,2.4083,2.4083,2.4083,2.4083,2.3603,2.3207,2.3207,2.2634,2.2194,2.2194,2.1585,2.1187,2.1103,2.0485,2.0118,2.0118,2.0118,2.0118,2.0118,2.0118,2.0118,2.0118,2.0118,2.0118,2.0118,2.0118,2.0118,2.0118,2.0118,2.0118,2.0118,2.0118,2.0118,2.0118,2.0118,2.062,2.1428,2.1483,2.1505,2.157,2.2062,2.2237,2.2291,2.2706,2.2848,2.2848,2.2848,2.2848,2.2848,2.2903,2.2925,2.2936,2.299,2.3001,2.3001,2.3001,2.3001,2.2852,2.2327,2.2214,2.2063,2.151,2.0895,2.0313,1.9952,1.935,1.8732,1.8322,1.8563,1.8652,1.8161,1.7716,1.7473,1.7473,1.7098,1.6812,1.6771,1.6779,1.6779,1.6689,1.6689,1.6689,1.6689,1.6689,1.6689,1.6689,1.6689,1.6689,1.6689,1.7096,1.762,1.8295,1.8653,1.834,1.744,1.6386,1.5796,0.0,0.0,0.0,2.4935,2.4806,0.0,2.42,2.4083,2.4083,2.4083,2.4083,2.4083,2.4083,2.4083,2.4083,2.4083,2.4083,2.4083,2.4083,2.3995,2.3894,2.3894,2.331,2.2907,2.2907,2.2286,2.1678,2.1123,2.0485,2.0118,2.0118,2.0118,2.0118,2.0118,2.0118,2.0118,2.0118,2.0118,2.0118,2.0118,2.0118,2.0118,2.0118,2.0118,2.0118,2.0118,2.0118,2.0118,2.0118,2.0118,2.0227,2.0434,2.0883,2.1036,2.1091,2.1549,2.1734,2.1745,2.1832,2.1865,2.1865,2.1865,2.1865,2.1942,2.2335,2.2455,2.2531,2.2892,2.3001,2.3001,2.3001,2.3001,2.2964,2.2852,2.2815,2.2767,2.2654,2.2166,2.1721,2.1634,2.0712,1.9893,1.9775,1.9569,1.9222,1.8652,1.817,1.7878,1.7878,1.7789,1.7635,1.731,1.727,1.7106,1.6738,1.6689,1.6689,1.6689,1.6689,1.6689,1.6689,1.6689,1.6689,1.6689,1.7096,1.762,1.8295,1.8653,1.8703,1.8487,1.7998,1.7603,0.0,0.0,2.5398,2.5398,2.5398,0.0,0.0,2.475,2.4563,2.4563,2.4316,2.4083,2.4083,2.4083,2.4083,2.4083,2.4083,2.4083,2.4083,2.4083,2.4083,2.4083,2.3793,2.3603,2.3603,2.301,2.2194,2.1187,2.0796,2.0453,2.0118,2.0118,2.0118,2.0118,2.0118,2.0118,2.0118,2.0118,2.0118,2.0118,2.0118,2.0118,2.0118,2.0118,2.0118,2.0118,2.0118,2.0118,2.0118,2.0118,2.0118,2.014,2.0413,2.05,2.0566,2.108,2.1255,2.1288,2.1505,2.1592,2.1592,2.1592,2.1592,2.1636,2.1876,2.2127,2.2368,2.2597,2.2826,2.3001,2.3001,2.3001,2.3001,2.3001,2.3001,2.3001,2.3001,2.2515,2.2176,2.2478,2.1787,2.1049,2.0741,2.0537,2.0196,1.9548,1.9063,1.8705,1.8402,1.8121,1.7919,1.7716,1.7716,1.7595,1.7383,1.7139,1.7066,1.7066,1.6812,1.6689,1.6689,1.6689,1.6689,1.6689,1.7096,1.7488,1.7787,1.8136,1.8486,1.8773,1.8462,1.8112,2.5076,2.53,2.5481,2.5755,2.5755,2.566,0.0,0.0,0.0,2.5005,2.462,2.4287,2.4287,2.4171,2.4083,2.4083,2.4083,2.4083,2.4083,2.4083,2.4083,2.4083,2.4083,2.4083,2.4083,2.3501,2.2652,2.1553,2.1376,2.106,2.0518,2.0356,2.0302,2.0302,2.0183,2.0118,2.0118,2.0118,2.0118,2.0118,2.0237,2.0302,2.0302,2.0421,2.0485,2.0485,2.0485,2.0485,2.0485,2.0485,2.0485,2.0453,2.0205,2.0118,2.0162,2.0587,2.0763,2.0807,2.1177,2.1308,2.1308,2.1308,2.1374,2.1485,2.1485,2.1789,2.2193,2.2255,2.2586,2.2892,2.2979,2.3001,2.3001,2.3001,2.3001,2.3001,2.3001,2.2628,2.2402,2.2927,2.2628,2.2101,2.1471,2.1357,2.1165,2.0469,2.0109,1.9726,1.924,1.8873,1.8545,1.8345,1.8313,1.8233,1.804,1.7716,1.7514,1.7514,1.7139,1.6935,1.6935,1.6935,1.6894,1.6861,1.7149,1.7291,1.7278,1.7591,1.8001,1.8613,1.8327,1.8009,2.5863,2.6361,2.6718,2.6133,2.5632,2.5105,2.4434,0.0,2.5005,2.5005,0.0,2.4892,2.4892,0.0,0.0,2.4083,2.4083,2.4083,2.4083,2.4083,2.4083,2.4083,2.4083,2.4083,2.4083,2.3501,2.3027,2.2864,2.2317,2.1959,2.1896,2.1313,2.1008,2.1008,2.0421,2.0118,2.0118,2.0118,2.0118,2.0107,2.07,2.1008,2.1008,2.1585,2.1865,2.1865,2.1865,2.1865,2.1865,2.1865,2.1865,2.1741,2.0571,2.0118,2.0118,2.0172,2.0194,2.0205,2.026,2.0282,2.0282,2.0282,2.0598,2.0971,2.0971,2.1321,2.1767,2.2193,2.2357,2.2488,2.2892,2.3001,2.3001,2.3001,2.3001,2.3001,2.3001,2.2964,2.2927,2.3001,2.2927,2.2703,2.2101,2.1987,2.1787,2.1165,2.1049,2.1011,2.0934,2.0857,2.0459,1.952,1.9402,1.9015,1.8072,1.7959,1.791,1.791,1.7878,1.7838,1.7838,1.7838,1.7668,1.731,1.7351,1.7375,1.7278,1.736,1.7568,1.789,1.785,1.7695,2.5328,2.566,2.5906,2.6027,2.5892,2.566,2.5425,2.5258,2.5118,2.5118,0.0,0.0,0.0,0.0,0.0,0.0,2.439,2.439,2.439,2.439,2.4316,2.4112,2.4083,2.4083,2.4083,2.3865,2.3501,2.3118,2.2847,2.25,2.2132,2.1822,2.1678,2.1678,2.104,2.088,2.125,2.088,2.088,2.125,2.1553,2.1678,2.1678,2.1978,2.2101,2.2101,2.2101,2.2101,2.2101,2.2101,2.2101,2.2039,2.1471,2.1028,2.0635,2.0237,2.0118,2.0118,2.0118,2.0118,2.0118,2.0118,2.0249,2.0445,2.0445,2.0784,2.1299,2.1756,2.2095,2.2422,2.2881,2.3001,2.3001,2.3001,2.3001,2.3001,2.3001,2.3001,2.3001,2.3001,2.3001,2.2927,2.2665,2.2628,2.244,2.1825,2.1711,2.1596,2.1242,2.1203,2.1049,2.0576,2.0537,2.0343,1.9913,1.9292,1.8935,1.8935,1.8353,1.8,1.8,1.8,1.7919,1.7757,1.7757,1.7629,1.7342,1.7342,1.729,1.7183,1.758,1.7631,2.4991,2.5132,2.5286,2.5824,2.596,2.5987,2.6041,2.5755,2.5508,2.5508,2.495,0.0,0.0,0.0,2.4421,2.4591,0.0,2.4591,2.4591,2.4591,2.4505,2.4287,2.42,2.4128,2.4112,2.4083,2.3894,2.3412,2.3369,2.316,2.2665,2.2482,2.2378,2.2378,2.171,2.1616,2.2101,2.1616,2.1616,2.2101,2.2286,2.2378,2.2378,2.2573,2.2647,2.2647,2.2647,2.2647,2.2647,2.2647,2.2647,2.2634,2.2451,2.2082,2.1553,2.0912,2.0539,2.0356,2.0356,2.0237,2.0118,2.0118,2.0118,2.0118,2.0118,2.0478,2.0993,2.1485,2.1942,2.2422,2.2881,2.3001,2.3001,2.3001,2.3001,2.3001,2.3001,2.3001,2.3001,2.3001,2.3001,2.3001,2.3001,2.3001,2.2852,2.2402,2.2327,2.2203,2.1738,2.17,2.1624,2.1471,2.1433,2.1395,2.1203,2.0498,2.0031,2.0031,1.9134,1.8585,1.8585,1.8434,1.8313,1.8201,1.8201,1.7959,1.7554,1.7554,1.7351,1.691,1.7297,1.7358,2.5356,2.5481,2.5605,2.5618,2.5618,2.5563,2.5453,2.5864,2.6256,2.6256,2.5783,2.537,2.537,2.495,0.0,0.0,0.0,0.0,0.0,2.4591,2.4591,2.4591,2.4421,2.4247,2.4112,2.4083,2.4083,2.4083,2.4083,2.4054,2.4024,2.3412,2.3058,2.3058,2.2421,2.2082,2.2101,2.2082,2.2082,2.2101,2.2743,2.3058,2.3088,2.3734,2.4024,2.4024,2.4024,2.4024,2.4024,2.4024,2.4024,2.3953,2.331,2.3058,2.2967,2.2286,2.1616,2.1071,2.1071,2.0635,2.0118,2.0118,2.0118,2.0118,2.0118,2.0478,2.0993,2.1485,2.1942,2.2422,2.2881,2.3001,2.3001,2.3001,2.3001,2.3001,2.3001,2.3001,2.3001,2.3001,2.3001,2.3001,2.3001,2.3001,2.3001,2.2964,2.2964,2.2964,2.2953,2.2927,2.274,2.2138,2.2063,2.1825,2.1242,2.1165,2.1165,2.1165,2.0508,2.0128,2.0128,1.9578,1.9073,1.87,1.87,1.8451,1.8,1.8,1.7757,1.7359,1.6926,1.6721,2.452,2.4637,2.4766,2.4893,2.502,2.5076,2.5132,2.5495,2.5742,2.537,2.5356,2.5328,2.5048,2.4863,0.0,0.0,0.0,0.0,0.0,2.5118,2.4835,2.4721,2.4578,2.4434,2.4261,2.4218,2.4203,2.4112,2.4083,2.4083,2.4083,2.3894,2.3763,2.3763,2.313,2.2967,2.3424,2.298,2.2967,2.3424,2.3632,2.3763,2.3763,2.3995,2.4083,2.4083,2.4083,2.4083,2.4083,2.4083,2.4083,2.4083,2.3852,2.3763,2.3632,2.2512,2.1947,2.1772,2.1772,2.1616,2.1345,2.0912,2.0752,2.0756,2.0654,2.0763,2.1069,2.1843,2.2193,2.2422,2.2881,2.3001,2.3001,2.3001,2.3001,2.3001,2.3001,2.3001,2.3001,2.3001,2.3001,2.3001,2.3001,2.3001,2.3001,2.3001,2.3001,2.3001,2.3001,2.3001,2.2927,2.2703,2.2703,2.2628,2.2429,2.2014,2.1634,2.1242,2.0972,2.0857,2.0857,2.0235,1.9814,1.9706,1.9311,1.8882,1.8451,1.8451,1.8241,1.7797,1.7627,1.7261,2.4258,2.4376,2.4507,2.4692,2.4977,2.5202,2.5314,2.5522,2.5619,2.5244,2.5244,2.5175,2.492,2.4863,2.5033,0.0,0.0,0.0,0.0,2.5564,2.5286,2.5202,2.4863,2.4578,2.4321,2.4292,2.4247,2.4112,2.4083,2.4083,2.4083,2.4083,2.4083,2.4083,2.3691,2.3662,2.4083,2.3662,2.3662,2.4083,2.4083,2.4083,2.4083,2.4083,2.4083,2.4083,2.4083,2.4083,2.4083,2.4083,2.4083,2.4083,2.4083,2.4083,2.3995,2.3143,2.2665,2.2408,2.2194,2.2101,2.2044,2.1839,2.1783,2.1812,2.1897,2.2048,2.2298,2.2694,2.3055,2.3336,2.3145,2.3264,2.3313,2.3075,2.3001,2.3001,2.3001,2.3001,2.3001,2.3001,2.3001,2.3001,2.3001,2.3001,2.3001,2.3001,2.3001,2.3001,2.3001,2.3001,2.3001,2.3001,2.3001,2.3001,2.3001,2.2628,2.2241,2.1852,2.1624,2.152,2.152,2.0895,2.0547,2.0547,2.0157,1.9844,1.9587,1.9359,1.8993,1.8585,1.8514,1.7991]}]]